[[{"header":{"parameterUnit":"m.s-1","parameterCategory":1,"la1":30.6,"la2":29.2853,"lo1":-89.7004,"lo2":-87.6739,"dx":0.0162,"dy":0.0183,"nx":112,"ny":82,"refTime":"2023-01-19T06:00:00:Z","depth":0,"parameterNumber":2,"parameterNumberName":"U-component_of_WINDS"},"data":[0.0,0.0,0.0,0.0,0.0,0.0,0.0,0.0,0.0,0.0,0.0,0.0,0.0,0.0,0.0,0.0,0.0,0.0,0.0,0.0,0.0,0.0,0.0,0.0,0.0,0.0,0.0,0.0,0.0,0.0,0.0,0.0,0.0,0.0,0.0,0.0,0.0,0.0,0.0,0.0,0.0,0.0,0.0,0.0,0.0,0.0,0.0,0.0,0.0,0.0,0.0,0.0,0.0,0.0,0.0,0.0,0.0,0.0,0.0,0.0,0.0,0.0,0.0,0.0,0.0,0.0,0.0,0.0,0.0,0.0,0.0,0.0,0.0,0.0,0.0,0.0,0.0,0.0,0.0,0.0,0.0,0.0,0.0,0.0,0.0,0.0,0.0,0.0,0.0,0.0,3.2742,3.5503,4.0806,4.2953,4.0102,3.8442,3.5784,3.1624,0.0,0.0,0.0,0.0,0.0,0.0,0.0,0.0,0.0,0.0,0.0,0.0,0.0,0.0,0.0,0.0,0.0,0.0,0.0,0.0,0.0,0.0,0.0,0.0,0.0,0.0,0.0,0.0,0.0,0.0,0.0,0.0,0.0,0.0,0.0,0.0,0.0,0.0,0.0,0.0,0.0,0.0,0.0,0.0,0.0,0.0,0.0,0.0,0.0,0.0,0.0,0.0,0.0,0.0,0.0,0.0,0.0,0.0,0.0,0.0,0.0,0.0,0.0,0.0,0.0,0.0,0.0,0.0,0.0,0.0,0.0,0.0,0.0,0.0,0.0,0.0,0.0,0.0,0.0,0.0,0.0,0.0,0.0,0.0,0.0,0.0,0.0,0.0,0.0,0.0,0.0,0.0,0.0,0.0,0.0,0.0,0.0,0.0,0.0,0.0,0.0,0.0,0.0,0.0,3.4135,3.815,4.189,4.3014,4.0303,3.7838,3.5462,3.3161,0.0,0.0,0.0,0.0,0.0,0.0,0.0,0.0,0.0,0.0,0.0,0.0,0.0,0.0,0.0,0.0,0.0,0.0,0.0,0.0,0.0,0.0,0.0,0.0,0.0,0.0,0.0,0.0,0.0,0.0,0.0,0.0,0.0,0.0,0.0,0.0,0.0,0.0,0.0,0.0,0.0,0.0,0.0,0.0,0.0,0.0,0.0,0.0,0.0,0.0,0.0,0.0,0.0,0.0,0.0,0.0,0.0,0.0,0.0,0.0,0.0,0.0,0.0,0.0,0.0,0.0,0.0,0.0,0.0,0.0,0.0,0.0,0.0,0.0,0.0,0.0,0.0,0.0,0.0,0.0,0.0,0.0,0.0,0.0,0.0,0.0,0.0,0.0,0.0,0.0,0.0,0.0,0.0,0.0,0.0,0.0,0.0,0.0,0.0,0.0,0.0,0.0,0.0,3.3033,3.5367,3.9473,4.2161,4.2603,3.9963,3.7549,3.5594,3.4132,3.1734,0.0,0.0,0.0,0.0,0.0,0.0,0.0,0.0,0.0,0.0,0.0,0.0,0.0,0.0,0.0,0.0,0.0,0.0,0.0,0.0,0.0,0.0,0.0,0.0,0.0,0.0,0.0,0.0,0.0,0.0,0.0,0.0,0.0,0.0,0.0,0.0,0.0,0.0,0.0,0.0,0.0,0.0,0.0,0.0,0.0,0.0,0.0,0.0,0.0,0.0,0.0,0.0,0.0,0.0,0.0,0.0,0.0,0.0,0.0,0.0,0.0,0.0,0.0,0.0,0.0,0.0,0.0,0.0,0.0,0.0,0.0,0.0,0.0,0.0,0.0,0.0,0.0,0.0,0.0,0.0,0.0,0.0,0.0,0.0,0.0,0.0,0.0,0.0,0.0,0.0,0.0,0.0,0.0,0.0,0.0,0.0,0.0,0.0,0.0,0.0,0.0,0.0,3.4975,3.6567,3.9963,4.1947,4.1999,3.9417,3.7117,3.5374,3.4378,3.148,0.0,0.0,0.0,0.0,0.0,0.0,0.0,0.0,0.0,0.0,0.0,0.0,0.0,0.0,0.0,0.0,0.0,0.0,0.0,0.0,0.0,0.0,0.0,0.0,0.0,0.0,0.0,0.0,0.0,0.0,0.0,0.0,0.0,0.0,0.0,0.0,0.0,0.0,0.0,0.0,0.0,0.0,0.0,0.0,0.0,0.0,0.0,0.0,0.0,0.0,0.0,0.0,0.0,0.0,0.0,0.0,0.0,0.0,0.0,0.0,0.0,0.0,0.0,0.0,0.0,0.0,0.0,0.0,0.0,0.0,0.0,0.0,0.0,0.0,0.0,0.0,0.0,0.0,0.0,0.0,0.0,0.0,0.0,0.0,0.0,0.0,0.0,0.0,0.0,0.0,0.0,0.0,0.0,0.0,0.0,0.0,0.0,0.0,0.0,0.0,0.0,0.0,3.6132,3.784,3.9585,4.1227,4.1199,3.8752,3.6194,3.435,3.3538,3.1154,0.0,0.0,0.0,0.0,0.0,0.0,0.0,0.0,0.0,0.0,0.0,0.0,0.0,0.0,0.0,0.0,0.0,0.0,0.0,0.0,0.0,0.0,0.0,0.0,0.0,0.0,0.0,0.0,0.0,0.0,0.0,0.0,0.0,0.0,0.0,0.0,0.0,0.0,0.0,0.0,0.0,0.0,0.0,0.0,0.0,0.0,0.0,0.0,0.0,0.0,0.0,0.0,0.0,0.0,0.0,0.0,0.0,0.0,0.0,0.0,0.0,0.0,0.0,0.0,0.0,0.0,0.0,0.0,0.0,0.0,0.0,0.0,0.0,0.0,0.0,0.0,0.0,0.0,0.0,0.0,0.0,0.0,0.0,0.0,0.0,0.0,0.0,0.0,0.0,0.0,0.0,0.0,0.0,0.0,0.0,0.0,0.0,0.0,0.0,0.0,0.0,0.0,3.7592,3.9241,4.0778,4.1959,4.1641,3.9269,3.631,3.4689,3.487,0.0,0.0,0.0,0.0,0.0,0.0,0.0,0.0,0.0,0.0,0.0,0.0,0.0,0.0,0.0,0.0,0.0,0.0,0.0,0.0,0.0,0.0,0.0,0.0,0.0,0.0,0.0,0.0,0.0,0.0,0.0,0.0,0.0,0.0,0.0,0.0,0.0,0.0,0.0,0.0,0.0,0.0,0.0,0.0,0.0,0.0,0.0,0.0,0.0,0.0,0.0,0.0,0.0,0.0,0.0,0.0,0.0,0.0,0.0,0.0,0.0,0.0,0.0,0.0,0.0,0.0,0.0,0.0,0.0,0.0,0.0,0.0,0.0,0.0,0.0,0.0,0.0,0.0,0.0,0.0,0.0,0.0,0.0,0.0,0.0,0.0,0.0,0.0,0.0,0.0,0.0,0.0,0.0,0.0,0.0,0.0,0.0,0.0,0.0,0.0,0.0,0.0,3.6705,3.84,3.9985,4.1524,4.1759,4.1044,3.916,3.5856,3.4182,3.4979,0.0,0.0,0.0,0.0,0.0,0.0,0.0,0.0,0.0,0.0,0.0,0.0,0.0,0.0,0.0,0.0,0.0,0.0,0.0,0.0,0.0,0.0,0.0,0.0,0.0,0.0,0.0,0.0,0.0,0.0,0.0,0.0,0.0,0.0,0.0,0.0,0.0,0.0,0.0,0.0,0.0,0.0,0.0,0.0,0.0,0.0,0.0,0.0,0.0,0.0,0.0,0.0,0.0,0.0,0.0,0.0,0.0,0.0,0.0,0.0,0.0,0.0,0.0,0.0,0.0,0.0,0.0,0.0,0.0,0.0,0.0,0.0,0.0,0.0,0.0,0.0,0.0,0.0,0.0,0.0,0.0,0.0,0.0,0.0,0.0,0.0,0.0,0.0,0.0,0.0,0.0,0.0,0.0,0.0,0.0,0.0,0.0,0.0,0.0,0.0,0.0,0.0,3.6814,3.8444,4.0021,4.156,4.0338,3.9088,3.8291,3.4523,3.2567,0.0,0.0,0.0,0.0,0.0,0.0,0.0,0.0,0.0,0.0,0.0,0.0,0.0,0.0,0.0,0.0,0.0,0.0,0.0,0.0,0.0,0.0,0.0,0.0,0.0,0.0,0.0,0.0,0.0,0.0,0.0,0.0,0.0,0.0,0.0,0.0,0.0,0.0,0.0,0.0,0.0,0.0,0.0,0.0,0.0,0.0,0.0,0.0,0.0,0.0,0.0,0.0,0.0,0.0,0.0,0.0,0.0,0.0,0.0,0.0,0.0,0.0,0.0,0.0,0.0,0.0,0.0,0.0,0.0,0.0,0.0,0.0,0.0,0.0,0.0,0.0,0.0,0.0,0.0,0.0,0.0,0.0,0.0,0.0,0.0,0.0,0.0,0.0,0.0,0.0,0.0,0.0,0.0,0.0,0.0,0.0,0.0,0.0,0.0,0.0,0.0,0.0,0.0,3.7647,3.9695,4.1424,4.2448,4.1107,3.9876,3.9124,3.4849,3.2777,3.4146,0.0,0.0,0.0,0.0,0.0,0.0,0.0,0.0,0.0,0.0,0.0,0.0,0.0,0.0,0.0,0.0,0.0,0.0,0.0,0.0,0.0,0.0,0.0,0.0,0.0,0.0,0.0,0.0,0.0,0.0,0.0,0.0,0.0,0.0,0.0,0.0,0.0,0.0,0.0,0.0,0.0,0.0,0.0,0.0,0.0,0.0,0.0,0.0,0.0,0.0,0.0,0.0,0.0,0.0,0.0,0.0,0.0,0.0,0.0,0.0,0.0,0.0,0.0,0.0,0.0,0.0,0.0,0.0,0.0,0.0,0.0,0.0,0.0,0.0,0.0,0.0,0.0,0.0,0.0,0.0,0.0,0.0,0.0,0.0,0.0,0.0,0.0,0.0,0.0,0.0,0.0,0.0,0.0,0.0,0.0,0.0,0.0,0.0,0.0,0.0,0.0,0.0,3.8001,3.9985,4.1533,4.2339,4.0999,3.9767,3.8979,3.4777,3.2741,3.4037,0.0,0.0,0.0,0.0,0.0,0.0,0.0,0.0,0.0,0.0,0.0,0.0,0.0,0.0,0.0,0.0,0.0,0.0,0.0,0.0,0.0,0.0,0.0,0.0,0.0,0.0,0.0,0.0,0.0,0.0,0.0,0.0,0.0,0.0,0.0,0.0,0.0,0.0,0.0,0.0,0.0,0.0,0.0,0.0,0.0,0.0,0.0,0.0,0.0,0.0,0.0,0.0,0.0,0.0,0.0,0.0,0.0,0.0,0.0,0.0,0.0,0.0,0.0,0.0,0.0,0.0,0.0,0.0,0.0,0.0,0.0,0.0,0.0,0.0,0.0,0.0,0.0,0.0,0.0,0.0,0.0,0.0,0.0,0.0,0.0,0.0,0.0,0.0,0.0,0.0,0.0,0.0,0.0,0.0,0.0,0.0,0.0,0.0,0.0,0.0,0.0,0.0,3.811,3.9586,4.0836,4.1705,4.0347,3.9088,3.8363,3.4632,3.2632,3.3458,0.0,0.0,0.0,0.0,0.0,0.0,0.0,0.0,0.0,0.0,0.0,0.0,0.0,0.0,0.0,0.0,0.0,0.0,0.0,0.0,0.0,0.0,0.0,0.0,0.0,0.0,0.0,0.0,0.0,0.0,0.0,0.0,0.0,0.0,0.0,0.0,0.0,0.0,0.0,0.0,0.0,0.0,0.0,0.0,0.0,0.0,0.0,0.0,0.0,0.0,0.0,0.0,0.0,0.0,0.0,0.0,0.0,0.0,0.0,0.0,3.4305,3.4791,0.0,0.0,0.0,0.0,0.0,0.0,0.0,0.0,0.0,0.0,0.0,0.0,0.0,0.0,0.0,0.0,0.0,0.0,0.0,0.0,0.0,0.0,0.0,0.0,0.0,0.0,0.0,0.0,0.0,0.0,0.0,0.0,0.0,0.0,0.0,0.0,0.0,0.0,0.0,0.0,3.8943,3.994,4.1062,4.2484,4.0718,3.9341,3.916,3.5457,3.3502,3.4291,3.2234,0.0,0.0,0.0,0.0,0.0,0.0,0.0,0.0,0.0,0.0,0.0,0.0,0.0,0.0,0.0,0.0,0.0,0.0,0.0,0.0,0.0,0.0,0.0,0.0,0.0,0.0,0.0,0.0,0.0,0.0,0.0,0.0,0.0,0.0,0.0,0.0,0.0,0.0,0.0,0.0,0.0,0.0,0.0,0.0,0.0,0.0,0.0,0.0,0.0,0.0,0.0,0.0,0.0,0.0,0.0,0.0,0.0,0.0,0.0,3.6102,3.5667,0.0,0.0,0.0,0.0,0.0,0.0,0.0,0.0,0.0,0.0,0.0,0.0,0.0,0.0,0.0,0.0,0.0,0.0,0.0,0.0,0.0,0.0,0.0,0.0,0.0,0.0,0.0,0.0,0.0,0.0,0.0,0.0,0.0,0.0,0.0,0.0,0.0,0.0,0.0,0.0,3.9197,4.0048,4.0954,4.2185,4.089,3.9623,3.8907,3.5856,3.4001,3.4001,3.2488,0.0,0.0,0.0,0.0,0.0,0.0,0.0,0.0,0.0,0.0,0.0,0.0,0.0,0.0,0.0,0.0,0.0,0.0,0.0,0.0,0.0,0.0,0.0,0.0,0.0,0.0,0.0,0.0,0.0,0.0,0.0,0.0,0.0,0.0,0.0,0.0,0.0,0.0,0.0,0.0,0.0,0.0,0.0,0.0,0.0,0.0,0.0,0.0,0.0,0.0,0.0,0.0,0.0,3.9384,4.027,4.1166,4.1206,4.1036,4.0664,3.8597,3.7091,3.6171,3.6771,0.0,0.0,0.0,0.0,0.0,0.0,0.0,0.0,0.0,0.0,0.0,0.0,0.0,0.0,0.0,0.0,0.0,0.0,0.0,0.0,0.0,0.0,3.739,3.8186,3.8404,3.7925,3.6086,0.0,0.0,0.0,0.0,0.0,0.0,0.0,0.0,0.0,0.0,0.0,3.9405,4.0203,4.099,4.1813,4.1207,4.0121,3.8726,3.6544,3.4834,3.3893,3.2922,3.2415,0.0,0.0,0.0,0.0,0.0,0.0,0.0,0.0,0.0,0.0,0.0,0.0,0.0,0.0,0.0,0.0,0.0,0.0,0.0,0.0,0.0,0.0,0.0,0.0,0.0,0.0,0.0,0.0,0.0,0.0,0.0,0.0,3.1183,3.2315,0.0,0.0,0.0,0.0,0.0,0.0,0.0,0.0,0.0,0.0,0.0,0.0,0.0,3.9037,3.981,4.0477,4.0731,4.0544,4.1566,4.2019,4.1883,4.1912,4.1911,4.1832,4.0886,0.0,3.7345,3.715,0.0,0.0,0.0,0.0,0.0,0.0,0.0,0.0,0.0,0.0,0.0,0.0,0.0,0.0,0.0,0.0,0.0,0.0,0.0,0.0,0.0,0.0,3.7835,3.7255,3.7859,3.833,3.7404,3.7827,3.821,3.7586,3.756,3.7685,0.0,0.0,0.0,0.0,0.0,0.0,4.0203,4.0916,4.1672,4.2655,4.2004,4.1162,4.0266,3.8681,3.7087,3.5594,3.4074,3.3248,3.3248,3.2669,0.0,0.0,0.0,0.0,0.0,0.0,0.0,0.0,0.0,0.0,0.0,0.0,0.0,0.0,0.0,0.0,0.0,0.0,0.0,0.0,0.0,0.0,0.0,0.0,0.0,0.0,0.0,0.0,0.0,3.2791,3.3104,3.2685,3.2256,3.2181,0.0,0.0,0.0,0.0,0.0,0.0,0.0,0.0,0.0,3.9014,3.9779,4.0307,4.0632,4.1567,4.2147,4.2432,4.3318,4.4016,4.4534,4.4811,4.4717,4.4271,4.4233,4.2637,4.0036,3.8786,3.7634,3.6584,0.0,0.0,0.0,0.0,3.614,3.6949,3.6821,3.6758,3.6804,3.7023,0.0,0.0,0.0,0.0,0.0,0.0,0.0,3.7454,3.7684,3.8883,3.9928,3.9573,4.0168,4.0704,4.0216,4.0169,3.9704,3.7803,3.7775,3.7983,3.7784,3.7748,0.0,0.0,0.0,3.937,4.0816,4.1218,4.1967,4.3416,4.2049,4.0736,3.9948,3.8436,3.6842,3.5232,3.4472,3.3856,3.3429,3.3502,3.3893,0.0,0.0,0.0,0.0,0.0,0.0,0.0,0.0,0.0,0.0,0.0,0.0,0.0,0.0,0.0,0.0,0.0,0.0,0.0,0.0,0.0,0.0,0.0,0.0,0.0,0.0,0.0,0.0,3.4029,3.4431,3.2873,3.3039,3.3403,0.0,0.0,0.0,0.0,0.0,0.0,3.7949,3.8887,3.9744,4.0468,4.1391,4.196,4.2161,4.3329,4.4176,4.4739,4.5649,4.6582,4.7474,4.7729,4.7393,4.6694,4.6858,4.55,4.3069,4.0862,3.9192,3.7974,3.7437,3.7065,3.6837,3.6837,3.7533,3.8493,3.8493,3.8493,3.846,3.8248,3.7698,3.697,3.6253,0.0,0.0,0.0,0.0,3.8698,3.9334,4.0624,4.1793,4.1777,4.2392,4.2904,4.2439,4.2112,4.115,3.8492,3.8395,3.8607,3.8045,3.8052,0.0,3.8424,3.909,4.0081,4.1711,4.204,4.2648,4.3897,4.2435,4.0899,3.9767,3.8581,3.7132,3.5313,3.5204,3.4842,3.4037,3.4581,3.5015,3.5204,0.0,0.0,0.0,0.0,0.0,0.0,0.0,0.0,0.0,0.0,0.0,0.0,0.0,0.0,0.0,0.0,0.0,0.0,0.0,0.0,0.0,0.0,0.0,0.0,0.0,0.0,0.0,0.0,0.0,3.2785,3.3933,0.0,0.0,0.0,0.0,3.6949,3.8288,3.913,3.9209,4.0509,4.1588,4.235,4.3757,4.4866,4.5547,4.699,4.7736,4.7802,4.9243,4.9955,4.9989,4.9706,4.9159,4.8435,4.7809,4.7083,4.6043,4.3157,4.0876,3.9209,3.9176,3.9163,3.9149,3.9149,3.9183,3.9249,3.9249,3.9249,3.9481,4.0779,4.0746,4.0031,3.9315,3.8606,0.0,0.0,3.9439,3.9802,4.0213,4.1432,4.2534,4.2465,4.3356,4.4018,4.323,4.3048,4.2367,4.0193,3.9742,3.9556,3.903,0.0,3.9782,4.0673,4.1359,4.2122,4.3141,4.3784,4.4062,4.3837,4.3698,4.277,4.0646,4.0374,3.9333,3.7031,3.6886,3.6516,3.5703,3.5731,3.6109,3.685,3.6146,0.0,0.0,0.0,0.0,0.0,0.0,0.0,0.0,0.0,0.0,0.0,0.0,0.0,0.0,0.0,0.0,0.0,0.0,0.0,0.0,0.0,0.0,0.0,0.0,0.0,0.0,0.0,0.0,3.6174,3.6692,0.0,3.7313,3.74,3.793,3.9136,4.0117,4.1077,4.2038,4.2999,4.4092,4.5284,4.5847,4.6709,4.7901,4.8465,4.8961,4.9408,4.9938,5.0203,5.022,5.0392,4.9906,4.8893,4.8478,4.7709,4.6644,4.5112,4.3525,4.2038,4.1541,4.1375,4.1375,4.1375,4.1972,4.2715,4.2237,4.2071,4.1939,4.1044,4.0263,3.9647,3.9381,3.9116,3.907,3.9799,4.0392,4.0978,4.1602,4.2484,4.3261,4.3208,4.3533,4.3852,4.3871,4.3633,4.3156,4.2223,4.1417,4.0666,3.9959,3.995,4.0274,4.0903,4.1601,4.2508,4.3813,4.4181,4.4283,4.4325,4.338,4.2327,4.1175,4.0148,3.8968,3.767,3.7093,3.6445,3.5643,3.5607,3.6069,3.6995,3.6218,3.6319,0.0,0.0,0.0,0.0,0.0,0.0,0.0,0.0,0.0,0.0,0.0,0.0,0.0,0.0,0.0,0.0,0.0,0.0,0.0,0.0,0.0,0.0,0.0,0.0,0.0,3.697,3.8381,3.8891,3.9573,4.0103,4.0362,4.0169,4.0547,4.1754,4.2502,4.3414,4.464,4.5417,4.6378,4.7603,4.7901,4.8498,4.9441,4.9723,5.0088,5.0585,5.0817,5.0949,5.0949,5.126,5.0843,4.984,4.9659,4.8976,4.7968,4.7504,4.6576,4.5335,4.411,4.3613,4.3613,4.3613,4.4224,4.5002,4.4507,4.4342,4.411,4.2682,4.1721,4.1124,4.1124,4.0959,4.0859,4.1342,4.1806,4.2255,4.2738,4.3234,4.3598,4.3598,4.3779,4.4067,4.4359,4.4382,4.4281,4.4106,4.2962,4.1795,4.1023,4.0989,4.1411,4.2405,4.2755,4.3459,4.5129,4.5117,4.4833,4.4514,4.354,4.2485,4.1395,4.0369,3.9337,3.8223,3.7747,3.7135,3.6344,3.6308,3.6653,3.7393,3.6616,3.687,3.8182,0.0,0.0,0.0,0.0,0.0,0.0,0.0,0.0,0.0,0.0,0.0,0.0,0.0,0.0,0.0,0.0,0.0,0.0,0.0,0.0,0.0,0.0,0.0,3.6174,3.9805,4.199,4.0694,4.2402,4.3414,4.2719,4.33,4.4044,4.477,4.5499,4.6212,4.6974,4.7669,4.8431,4.9177,4.9839,5.0236,5.0302,5.0966,5.1298,5.1331,5.206,5.2391,5.2391,5.2391,5.1994,5.1331,5.1298,5.09,5.0236,5.0203,4.9773,4.8928,4.6742,4.5881,4.5863,4.5863,4.5863,4.583,4.583,4.583,4.5797,4.5797,4.5333,4.4736,4.4736,4.4257,4.3664,4.3664,4.3631,4.3631,4.3664,4.3631,4.3631,4.3664,4.4224,4.4736,4.4736,4.53,4.5797,4.5797,4.4367,4.2945,4.2253,4.2441,4.3373,4.5334,4.4958,0.0,4.7111,4.667,4.5702,4.448,4.4326,4.347,4.1365,4.1313,4.0625,3.8842,3.8913,3.8708,3.7917,3.7881,3.7986,3.8182,3.7421,3.7421,3.8182,0.0,0.0,0.0,0.0,0.0,0.0,0.0,0.0,0.0,0.0,0.0,0.0,0.0,0.0,0.0,0.0,0.0,0.0,0.0,0.0,0.0,3.9148,4.0511,4.0001,4.1428,4.2752,4.3444,4.4986,4.5914,4.5715,4.6378,4.7106,4.7835,4.8067,4.8531,4.9243,4.9475,5.0187,5.1463,5.0651,5.0932,5.2488,5.1729,5.1563,5.2093,5.2292,5.2391,5.2391,5.2391,5.2292,5.206,5.153,5.1165,5.0966,5.0419,5.0071,4.9773,4.8663,4.7868,4.7404,4.7404,4.7073,4.6609,4.6609,4.6261,4.5797,4.5797,4.5664,4.5499,4.5499,4.5351,4.5185,4.5185,4.4821,4.4522,4.5052,4.4787,4.4522,4.5052,4.5351,4.5499,4.5499,4.5664,4.5797,4.5797,4.5392,4.5003,4.4803,4.4842,4.5213,4.6114,4.5614,4.5555,4.6725,4.6239,4.573,4.569,4.5199,4.4495,4.3494,4.1856,4.0456,3.9432,3.8379,3.7697,3.7474,3.7586,3.7855,3.8182,3.783,3.783,0.0,0.0,0.0,0.0,0.0,0.0,0.0,0.0,0.0,0.0,0.0,0.0,0.0,0.0,0.0,0.0,0.0,0.0,0.0,0.0,0.0,0.0,4.1409,4.3232,4.4,4.463,4.5332,4.6205,4.7473,4.8299,4.8299,4.8961,4.9375,4.9304,4.9863,5.039,5.0803,5.0922,5.1553,5.2771,5.1933,5.2079,5.3382,5.2425,5.2377,5.3268,5.269,5.2557,5.2804,5.2524,5.2391,5.2391,5.1961,5.1762,5.1729,5.128,5.0949,5.0551,0.0,0.0,0.0,0.0,4.7736,4.7371,4.7371,4.7073,4.6709,4.6709,4.6709,4.6643,4.6344,4.6245,4.6194,4.5881,4.5499,4.5267,4.5697,4.5499,4.5267,4.5682,4.6062,4.6245,4.6245,4.651,4.6709,4.6709,4.6709,0.0,4.6709,4.6212,4.6067,4.6843,4.6331,4.6123,4.6832,4.6401,4.5883,4.5486,4.5252,4.4718,4.3766,4.204,0.0,0.0,0.0,3.7508,3.7305,3.7476,0.0,0.0,0.0,3.7995,3.8182,3.8182,0.0,0.0,3.7965,3.7965,0.0,0.0,0.0,0.0,0.0,0.0,0.0,0.0,0.0,0.0,0.0,0.0,0.0,0.0,0.0,0.0,4.3444,4.5118,4.778,4.8604,4.8886,4.8692,4.9627,5.033,5.0396,5.1074,5.1082,5.007,5.1161,5.188,5.1866,5.2078,0.0,0.0,0.0,5.329,5.35,5.3081,5.3344,5.4344,5.3144,5.2882,5.3427,5.2885,5.2656,5.2656,5.2656,5.259,5.2524,5.2524,5.2027,5.1165,4.9756,4.921,4.911,4.8398,4.8133,4.81,4.8034,0.0,0.0,4.8001,4.8001,4.7868,4.7206,4.7007,4.6874,4.6212,4.5996,4.5947,4.6029,4.6046,4.6046,4.6046,4.6609,4.7139,4.704,4.7537,4.8001,4.8001,4.8001,4.8001,4.8001,4.6908,4.6402,4.7487,4.7011,4.6705,4.7194,4.6838,4.6098,4.4859,4.4973,0.0,4.315,4.2078,4.0888,3.95,3.858,3.7807,3.72,3.7541,3.7763,3.7864,3.7945,3.8071,3.8264,3.8299,3.8333,3.8351,3.8266,3.8182,0.0,0.0,0.0,0.0,0.0,0.0,0.0,0.0,0.0,0.0,0.0,0.0,0.0,0.0,0.0,4.2469,4.5609,4.8257,4.9367,5.0851,5.1315,4.9872,5.0436,5.1141,5.1693,5.2408,5.2746,5.2507,5.2747,5.2909,5.2929,5.2981,5.3324,5.4085,5.3538,5.3506,5.4117,5.3454,5.3227,5.3435,5.3572,0.0,5.3827,5.4014,5.4078,5.4078,5.4078,5.3765,5.3202,5.3202,5.244,5.1198,5.032,4.9971,4.9905,4.9143,4.8895,4.8796,4.8199,4.8001,4.8001,4.8001,4.8001,4.7968,4.7835,4.7802,0.0,4.7603,4.7139,4.6808,4.7404,4.757,4.757,4.757,4.8133,4.8531,4.7934,4.7901,4.8001,4.8001,4.8001,4.8001,4.8001,4.7769,4.7636,4.7899,4.7283,4.6991,4.7469,4.6437,4.5928,4.6603,4.5973,4.5238,4.4529,4.2983,4.1508,4.028,3.918,3.7914,3.6461,3.7732,3.8231,3.7691,3.8087,3.84,3.8611,3.8944,3.9173,3.9313,3.8563,3.8182,0.0,0.0,0.0,0.0,0.0,0.0,0.0,0.0,0.0,0.0,0.0,3.7596,3.8362,0.0,4.3878,4.5543,4.8149,5.0204,5.0859,5.1706,5.2052,5.1392,5.1785,5.2275,5.2631,5.333,5.349,5.2917,5.356,5.3838,5.3484,5.3582,5.3856,5.4301,5.3877,5.3856,5.4301,5.3725,5.3725,5.4268,5.3773,5.376,5.4085,5.392,5.3967,5.4176,5.4176,5.409,5.3945,5.3945,5.3316,5.234,5.2356,5.1461,5.017,4.9773,4.9408,4.9077,4.9077,4.8845,4.8564,4.8564,4.8796,4.9011,4.8663,4.8829,4.9077,4.9077,4.8829,4.863,4.9028,4.9077,4.9077,4.9077,4.9375,4.9541,4.9177,4.9077,4.9077,4.9077,4.8796,4.8564,4.8564,4.8233,4.8001,4.8001,4.7703,4.7402,4.7274,4.6483,4.605,4.6283,4.5665,4.4997,4.4393,4.2474,4.0813,3.9633,3.8835,3.8013,3.7202,3.7944,3.8252,3.8003,3.8273,3.849,3.8688,3.8883,3.9031,3.9157,3.876,3.8702,0.0,0.0,0.0,0.0,0.0,0.0,0.0,3.4984,3.5995,3.5995,3.7765,3.9882,4.1683,4.3927,4.6297,4.8699,5.0394,5.1595,5.2144,5.2333,5.2521,5.2849,5.3066,5.3234,5.3363,5.393,5.3885,5.2963,5.3984,5.442,5.3825,5.3978,5.4137,5.4264,5.4147,5.4158,5.4253,5.3937,5.4225,5.5143,5.4043,5.3825,5.4394,5.3873,5.3851,5.4182,5.4018,5.4178,5.4463,5.4557,5.4165,5.357,5.4405,5.3217,5.0998,5.0733,5.0253,4.979,5.0071,4.9806,4.9309,4.9309,4.9706,5.0071,4.9475,4.9739,5.0203,5.0203,5.0203,5.0203,5.0203,5.0302,5.0386,5.0236,5.0302,5.0369,5.0236,5.0203,5.0203,5.0203,4.9706,4.9309,4.9309,4.8829,4.8332,4.8034,4.8001,4.7802,4.7173,4.6789,4.6297,4.5544,4.519,4.4654,4.3768,4.1928,4.0244,3.8916,3.87,3.8428,3.7916,3.8258,3.8421,3.8367,3.8515,3.8665,3.8814,3.8917,3.8939,3.8995,3.9084,3.929,3.5394,3.4352,3.3625,3.4067,3.4681,3.5331,0.0,3.7149,3.816,3.816,4.0324,4.2473,4.3309,4.6202,4.8731,4.9627,5.1543,5.2902,5.2965,5.3502,5.3871,5.3914,5.345,5.3365,5.3936,5.4062,5.4073,5.3935,5.4094,5.4157,5.4062,5.4061,5.4114,5.4126,5.4135,5.4114,5.4126,5.4083,5.4115,5.4253,5.4484,5.4661,5.4757,5.5032,5.5183,5.5211,5.4543,5.4271,5.435,5.4776,5.4525,5.3953,5.5071,5.4872,5.3879,5.2605,5.2093,5.1861,5.0651,5.0137,5.0071,5.0071,5.0137,5.017,5.0104,5.0137,5.0203,5.0203,5.0203,5.0203,5.0203,5.0684,5.1,5.0353,5.0684,5.1,5.0336,5.0203,5.0203,5.0203,5.0137,5.0071,5.0071,5.0004,4.9508,4.8199,4.8001,4.7968,4.7901,4.7287,4.6556,4.5826,4.5518,4.4788,4.338,4.264,4.1388,3.9382,4.0059,3.9587,3.7307,3.8816,3.9244,3.823,3.8876,3.9201,3.9214,3.9576,3.9845,4.0024,3.9994,3.9615,3.5693,3.4966,3.4573,3.4871,3.609,3.7291,3.756,3.9013,4.0419,4.0862,4.2853,4.497,4.6455,4.8592,5.0489,5.1586,5.2839,5.3692,5.3692,5.3913,5.3787,5.2997,5.3344,5.3787,5.4071,5.4103,5.4103,5.4103,5.4103,5.4103,5.4103,5.4103,5.4103,5.4103,5.4103,5.4103,5.4103,5.4103,5.4103,5.4103,5.4316,5.4401,5.4423,5.456,5.479,5.506,5.4964,5.4709,5.4353,5.4975,5.4953,5.4631,5.5561,5.5685,5.5295,5.407,5.3367,5.297,5.2753,5.2422,5.1991,5.1612,5.2042,5.2455,5.1214,5.1413,5.2058,5.2058,5.1777,5.1578,5.1958,5.2009,5.1861,5.1545,5.2009,5.244,5.2124,5.2389,5.2687,5.2687,5.2356,5.2058,5.2058,5.138,5.0618,5.0005,4.9193,4.8663,4.8663,4.7636,4.6609,4.5896,4.5701,4.5223,4.4171,4.3499,4.2587,4.1243,4.1164,4.0712,3.9653,3.9994,3.9974,3.9501,3.9381,3.9315,3.9315,3.9488,3.9599,3.9683,3.9729,3.9788,3.5693,3.5521,3.5868,3.6627,3.827,3.9756,4.0119,4.1683,4.3186,4.3706,4.5476,4.7403,4.8889,5.0331,5.169,5.2902,5.3502,5.3945,5.4324,5.4229,5.3724,5.2712,5.3155,5.3597,5.3787,5.3976,5.4103,5.4103,5.4103,5.4103,5.4103,5.4103,5.4103,5.4103,5.4103,5.4103,5.4103,5.4103,5.4103,5.4103,5.4103,5.4103,5.4103,5.4103,5.4295,5.4602,5.4915,5.475,5.428,5.4938,5.5118,5.5017,5.5638,5.5906,5.5816,5.5009,5.4378,5.3896,5.4339,5.4144,5.3614,5.3135,5.3665,5.421,5.2638,5.2904,5.3713,5.3713,5.3367,5.3069,5.3599,5.3334,5.297,5.297,5.3367,5.3713,5.3713,5.4111,5.4508,5.4508,5.4078,5.3713,5.3713,5.2672,5.1894,5.1894,5.0618,4.9624,4.9408,4.8133,4.6908,4.6179,4.5914,4.5598,4.5068,4.4324,4.358,4.2851,4.2123,4.1626,4.1428,4.0912,4.0694,4.0694,4.0163,3.9865,3.9865,3.9865,3.9865,3.9865,3.9993,4.0299,3.5408,3.5854,3.7023,3.9756,4.1525,4.2916,4.4211,4.5634,4.6645,4.6676,4.8332,4.9785,4.9848,5.1017,5.2238,5.2997,5.3123,5.3576,5.4903,5.4492,5.4071,5.404,5.287,5.2344,5.306,5.3724,5.4103,5.4103,5.4103,5.4103,5.4103,5.4103,5.4103,5.4103,5.4103,5.4103,5.4103,5.4103,5.4103,5.4103,5.4103,5.4103,5.4103,5.4103,5.4124,5.4124,5.4146,5.4114,5.4157,5.4623,5.4811,5.4874,5.5266,5.5409,5.5409,5.5397,5.5192,5.4919,5.4609,5.4475,5.4475,5.4442,5.4475,5.4475,5.4409,5.4442,5.4475,5.4475,5.4442,5.4442,5.4475,5.4442,5.4442,5.4442,5.4442,5.4475,5.4475,5.4475,5.4508,5.4508,5.4475,5.4475,5.4475,5.3846,5.3349,5.3349,5.2159,5.0966,5.0269,4.8895,4.7669,4.6941,4.6228,4.5797,4.5764,4.5101,4.4357,4.3613,4.287,4.2156,4.1428,4.1394,4.1361,4.1361,4.1361,4.1328,4.1328,4.1328,4.1328,4.1328,4.1328,4.1361,3.6673,3.8665,4.0893,4.23,4.3706,4.4978,4.589,4.6467,4.6701,4.6353,4.6841,4.7309,4.7309,4.8454,4.994,5.1471,5.2491,5.3386,5.4324,5.4229,5.3597,5.2227,5.246,5.2249,5.108,5.2049,5.3092,5.404,5.4103,5.4103,5.4103,5.4524,5.4555,5.4103,5.4988,5.5019,5.4103,5.4524,5.4524,5.4103,5.4103,5.4103,5.4103,5.4103,5.4103,5.4103,5.4103,5.4103,5.4124,5.4274,5.4528,5.479,5.4936,5.4978,5.5019,5.5287,5.5146,5.4879,5.5022,5.5293,5.5481,5.4988,5.5325,5.5786,5.4806,5.4839,5.5237,5.5237,5.4872,5.4607,5.5104,5.4872,5.4508,5.4508,5.4872,5.5237,5.5237,5.562,5.5951,5.5951,5.5951,5.5951,5.5951,5.4957,5.3813,5.287,5.1927,5.1033,5.0269,4.9342,4.863,4.8398,4.7703,4.7073,4.6576,4.6311,4.5649,4.4423,4.4092,4.3628,4.287,4.2388,4.2123,4.2123,4.1659,4.1394,4.1394,4.1394,4.1394,4.1394,4.1394,4.1659,3.8591,4.1345,4.4022,4.4988,4.6066,4.7009,4.7437,4.7223,4.6726,4.6139,4.6035,4.5959,4.5675,4.6571,4.7918,4.96,5.0658,5.1828,5.3502,5.3755,5.3439,5.2554,5.2839,5.2628,5.1491,5.2017,5.2776,5.366,5.3976,5.4103,5.4103,5.4492,5.465,5.4482,5.5335,5.5493,5.4861,5.5272,5.5124,5.4482,5.4482,5.4324,5.4103,5.4103,5.4103,5.4103,5.4103,5.4103,5.4103,5.4103,5.4295,5.4571,5.4571,5.4571,5.4539,5.456,5.4359,5.4285,5.5102,5.5592,5.5769,5.5292,5.5752,5.6301,5.5358,5.5487,5.5965,5.5965,5.5634,5.5421,5.5866,5.5634,5.5289,5.5289,5.5653,5.5965,5.5965,5.6382,5.6699,5.6699,5.6699,5.6699,5.6699,5.5487,5.4111,5.2937,5.2159,5.143,5.0684,4.9955,4.9375,4.911,4.8431,4.7802,4.7338,4.704,4.6477,4.5565,4.5233,4.4754,4.4011,4.3562,4.315,4.2918,4.2421,4.2189,4.2189,4.2189,4.2189,4.2189,4.2189,4.2454,4.1182,4.3921,4.6281,4.7694,4.8465,4.8852,4.8862,4.7835,4.668,4.5951,4.5829,4.5602,4.4761,4.5265,4.6282,4.7681,4.7985,4.9268,5.2712,5.3144,5.3565,5.4774,5.3849,5.3313,5.3869,5.346,5.3144,5.3091,5.3776,5.4198,5.4134,5.4229,5.4545,5.5155,5.525,5.5566,5.6211,5.6211,5.5841,5.5124,5.5155,5.4776,5.4103,5.4134,5.4134,5.4103,5.4103,5.4103,5.4103,5.406,5.406,5.4038,5.4017,5.3995,5.3878,5.3201,5.2958,5.3148,5.4696,5.5246,5.5266,5.5266,5.5592,5.6026,5.6046,5.631,5.6641,5.6661,5.6661,5.6661,5.6661,5.668,5.6699,5.6699,5.6699,5.6699,5.6699,5.6732,5.6766,5.6699,5.6699,5.6699,5.6666,5.5487,5.4276,5.3515,5.287,5.2192,5.143,5.0717,4.9971,4.9293,4.8531,4.8067,4.8067,4.7371,4.6941,4.6908,4.6245,4.5532,4.4803,4.477,4.4423,4.3664,4.3712,4.3679,4.3598,4.3631,4.3631,4.3598,4.3598,4.3598,4.4757,4.6741,4.8377,4.9781,4.9096,4.8071,4.8122,4.6764,4.5035,4.3429,4.2749,4.2068,4.0791,4.2306,4.4699,4.7578,4.9264,5.1227,5.4176,5.369,5.2978,5.2822,5.2947,5.2644,5.1729,5.3006,5.3586,5.2947,5.4621,5.543,5.4871,5.585,5.6252,5.5936,5.6915,5.7073,5.6211,5.6211,5.5841,5.5124,5.5651,5.5272,5.4103,5.4618,5.4555,5.4103,5.4103,5.4103,5.406,5.3509,5.329,5.3223,5.2681,5.2448,5.2426,5.2245,5.2154,5.2222,5.2651,5.2998,5.3315,5.3315,5.3976,5.4819,5.5181,5.5499,5.5794,5.6165,5.6264,5.6264,5.6264,5.6466,5.6699,5.6699,5.6699,5.6699,5.6699,5.713,5.7362,5.6832,5.6699,5.6534,5.5984,5.5568,5.4872,5.3581,5.325,5.2904,5.2192,5.1497,5.0966,5.0768,4.9591,4.8829,4.8829,4.8133,4.7504,4.6941,4.6709,4.6278,4.5565,4.5532,4.5152,4.4423,4.4953,4.4706,4.3598,4.4158,4.4158,4.3598,4.3598,4.3598,4.6557,4.8462,4.9816,5.0293,4.9318,4.806,4.722,4.5531,4.3502,4.1283,4.0546,3.9942,3.8793,4.0516,4.3116,4.6079,4.8008,5.0337,5.368,5.3441,5.3135,5.3706,5.379,5.3514,5.2677,5.3699,5.4114,5.329,5.4801,5.5528,5.51,5.6136,5.6726,5.6631,5.739,5.7579,5.7128,5.6755,5.641,5.604,5.6073,5.5718,5.5019,5.5092,5.4718,5.4025,5.3743,5.3443,5.3104,5.2704,5.2524,5.2479,5.204,5.1903,5.1858,5.1565,5.1426,5.1379,5.1052,5.1092,5.1442,5.2086,5.2865,5.3579,5.3869,5.438,5.4975,5.5222,5.5539,5.5846,5.6046,5.6514,5.6961,5.7138,5.7428,5.7693,5.7693,5.7972,5.8071,5.7329,5.7177,5.6945,5.6216,5.58,5.5336,5.4475,5.3813,5.3268,5.287,5.1927,5.1298,5.1298,5.0253,4.9441,4.911,4.873,4.8166,4.7438,4.7371,4.7206,4.6775,4.6444,4.6095,4.5664,4.5764,4.5384,4.4573,4.4986,4.4953,4.4573,4.4573,4.4573,4.7664,4.9442,5.0593,4.9958,4.9157,4.8007,4.6089,4.3931,4.1715,3.9421,3.8812,3.8472,3.7811,3.9355,4.1644,4.4351,4.5932,4.8263,5.2312,5.2743,5.3314,5.5231,5.4944,5.4607,5.4599,5.477,5.4558,5.3833,5.4575,5.5095,5.5109,5.5883,5.6591,5.7167,5.729,5.7597,5.8127,5.7566,5.7199,5.7018,5.6427,5.6061,5.5866,5.5215,5.4536,5.3818,5.3169,5.2502,5.188,5.1789,5.1743,5.1743,5.1651,5.1604,5.1512,5.0887,5.065,5.0555,4.9912,4.9693,4.9912,5.1186,5.1949,5.2381,5.2448,5.3165,5.4019,5.4147,5.4666,5.5272,5.5893,5.6605,5.7298,5.774,5.8396,5.8899,5.8899,5.8899,5.8734,5.8204,5.7939,5.7594,5.6964,5.6249,5.57,5.5634,5.4508,5.3647,5.3548,5.2325,5.1448,5.1448,5.0783,5.0088,4.9458,4.921,4.8829,4.8199,4.8067,4.8001,4.8001,4.7404,4.704,4.704,4.6411,4.6046,4.5963,4.5963,4.5896,4.5797,4.5797,4.5797,4.9787,5.0143,4.9903,4.9806,4.8106,4.6039,4.4639,4.1564,3.8783,3.7825,3.6798,3.6172,3.6505,3.821,4.0887,4.5147,4.6456,4.8332,5.233,5.1897,5.1498,5.2426,5.2897,5.3114,5.2997,5.4156,5.4534,5.3616,5.4409,5.5211,5.5798,5.652,5.6995,5.7119,5.7753,5.7839,5.7298,5.7825,5.7479,5.6218,5.6667,5.5964,5.4223,5.414,5.3757,5.3045,5.2368,5.2018,5.1835,5.1239,5.0981,5.0934,5.0316,5.0076,5.0081,4.9936,4.9888,4.9863,4.9742,4.9693,4.9742,5.0009,5.0555,5.1193,5.1574,5.1987,5.2495,5.3402,5.3737,5.4139,5.5424,5.6422,5.7213,5.7945,5.8505,5.8899,5.8899,5.8899,5.9032,5.9529,5.8634,5.776,5.7608,5.6978,5.6316,5.57,5.5369,5.5005,5.4376,5.3069,5.2192,5.2192,5.1563,5.1066,5.0933,4.979,4.9044,4.8928,4.8332,4.8001,4.8001,4.7868,4.7802,4.7802,4.7669,4.7305,4.6709,4.6709,4.6378,4.5797,4.5797,4.5797,5.0354,5.0519,5.014,4.9831,4.7823,4.5372,4.3456,4.0525,3.7738,3.6141,3.5822,3.584,3.5737,3.7896,4.062,4.3446,4.48,4.6851,5.081,5.0724,5.0911,5.2634,5.3032,5.3125,5.3088,5.3733,5.3979,5.3524,5.3936,5.4515,5.5274,5.6079,5.6482,5.6482,5.6844,5.6868,5.6482,5.6427,5.6273,5.5967,5.5883,5.5505,5.4874,5.4218,5.3512,5.2804,5.2143,5.1428,5.0805,5.1106,5.1023,5.0759,5.0688,5.0685,5.0685,5.0685,5.0481,5.0274,5.0569,5.0481,5.0274,5.0569,5.0491,5.0333,5.0921,5.1441,5.2017,5.2832,5.3344,5.3881,5.4846,5.5956,5.7057,5.7936,5.9118,6.0158,6.0543,6.0324,6.0158,6.0523,5.9694,5.8833,5.8436,5.8071,5.7574,5.6879,5.6415,5.5899,5.517,5.4144,5.3334,5.297,5.2292,5.1729,5.1331,5.1,5.0651,5.027,4.9558,4.9326,4.9707,4.8597,4.8365,4.911,4.8763,4.8597,4.863,4.863,4.8233,4.7504,4.7504,4.7305,5.0129,5.0477,5.0303,4.949,4.737,4.485,4.244,3.9538,3.6838,3.4818,3.4963,3.542,3.5263,3.7464,3.9813,4.147,4.2832,4.4969,4.8705,4.9449,5.0496,5.3009,5.3308,5.3355,5.3474,5.3474,5.3474,5.3474,5.3474,5.3867,5.4658,5.5441,5.5819,5.567,5.5819,5.5819,5.5645,5.519,5.519,5.5645,5.4988,5.4938,5.5366,5.4157,5.3329,5.2709,5.2039,5.1136,5.0162,5.1207,5.1323,5.0942,5.141,5.1588,5.1588,5.1588,5.1294,5.0946,5.1439,5.1294,5.0946,5.1468,5.0917,5.0216,5.0739,5.1306,5.1891,5.2487,5.3084,5.3748,5.4589,5.5836,5.725,5.8695,6.0249,6.1589,6.2278,6.1869,6.1351,6.1351,6.0622,5.9827,5.9231,5.8999,5.8701,5.8104,5.7428,5.6713,5.6131,5.5303,5.4508,5.3945,5.3102,5.2391,5.1795,5.1994,5.1927,5.1348,5.0618,5.0452,5.1033,4.9226,4.8862,5.017,4.9475,4.9441,5.0203,5.0203,4.9905,4.9342,4.9342,4.9028,4.9432,4.978,4.949,4.827,4.6063,4.3631,4.1657,3.7854,3.4673,3.4441,3.357,3.3371,3.5083,3.6102,3.7637,4.0691,4.18,4.3394,4.6625,4.8079,4.9563,5.1569,5.2304,5.2917,5.3471,5.3474,5.3474,5.3474,5.3474,5.3867,5.4658,5.5441,5.5571,5.4836,5.5546,5.5571,5.4811,5.5441,5.5441,5.4811,5.4735,5.4355,5.3681,5.3007,5.2661,5.2555,5.1918,5.1548,5.1414,5.153,5.1559,5.1501,5.1559,5.1588,5.1588,5.1588,5.1559,5.153,5.1559,5.1559,5.153,5.1559,5.1501,5.1439,5.1501,5.1552,5.1773,5.2439,5.2665,5.3161,5.5233,5.6629,5.829,6.1361,6.2223,6.2519,6.3075,6.2631,6.2101,6.2101,6.0953,5.9993,5.9926,5.933,5.8866,5.88,5.8171,5.7674,5.7608,5.6363,5.5468,5.5402,5.4144,5.3283,5.3217,5.2093,5.1364,5.1298,5.0618,5.0236,5.032,4.9441,4.9375,5.017,4.9475,4.9441,5.0203,5.0203,5.017,5.0104,5.0104,5.0071,4.9141,4.9983,4.9983,4.8682,4.6156,4.3369,4.1018,3.7669,3.4794,3.401,3.3732,3.4022,3.5189,3.6217,3.7447,3.9102,3.9567,4.0612,4.305,4.4472,4.6417,4.9499,5.0801,5.1987,5.3384,5.3474,5.3474,5.3474,5.3474,5.3632,5.3942,5.4278,5.4304,5.3968,5.4278,5.4304,5.3968,5.4278,5.4278,5.3968,5.3968,5.3815,5.35,5.2888,5.2597,5.2597,5.2336,5.1962,5.1646,5.243,5.2543,5.2223,5.2601,5.272,5.272,5.272,5.2514,5.2252,5.263,5.2514,5.2252,5.263,5.272,5.2662,5.231,5.2194,5.231,5.2949,5.3123,5.3425,5.472,5.6622,5.864,6.0455,6.1492,6.2268,6.2862,6.2672,6.2497,6.2958,6.2108,6.1339,6.1339,6.1073,6.061,5.9694,5.9694,5.9463,5.8568,5.7574,5.6912,5.6912,5.5204,5.3879,5.3448,5.3283,5.3036,5.2605,5.191,5.1512,5.1512,5.0386,4.9905,5.0203,5.0353,5.0569,5.0867,5.1331,5.128,5.0867,5.0867,5.0618,4.7921,4.9199,4.9548,4.8217,4.5779,4.3021,4.0437,3.7524,3.5101,3.3981,3.3981,3.4457,3.5462,3.6402,3.7273,3.8057,3.8376,3.916,4.1105,4.2498,4.4501,4.7758,4.9291,5.0772,5.2514,5.3181,5.3474,5.3474,5.3474,5.359,5.3764,5.359,5.3474,5.3474,5.3474,5.3474,5.3474,5.3474,5.3474,5.3474,5.3474,5.3474,5.3474,5.3065,5.2888,5.2888,5.2888,5.2601,5.2227,5.3126,5.3239,5.2917,5.3326,5.3474,5.3474,5.3474,5.3239,5.2946,5.3355,5.321,5.2949,5.3588,5.3793,5.3762,5.35,5.3323,5.3294,5.3907,5.4211,5.4568,5.527,5.7027,5.8952,6.0145,6.1162,6.2079,6.2927,6.2851,6.2787,6.3467,6.2892,6.2349,6.2477,6.2333,6.1836,6.0788,6.0721,6.039,5.9363,5.8568,5.8038,5.7806,5.6415,5.5071,5.4144,5.4144,5.3945,5.3415,5.2771,5.2391,5.2391,5.1181,5.0618,5.085,5.1165,5.1397,5.1629,5.2159,5.2126,5.1629,5.1629,5.1364,4.5424,4.6876,4.7515,4.6266,4.4465,4.2324,3.9799,3.7233,3.5218,3.4545,3.3923,3.4068,3.5938,3.6315,3.6722,3.7999,3.8754,3.9857,4.1831,4.3195,4.4705,4.6598,4.7932,4.9238,5.0593,5.2397,5.3474,5.3474,5.3474,5.3764,5.4432,5.3878,5.3474,5.3474,5.3474,5.3474,5.3474,5.3474,5.3474,5.3474,5.3474,5.3474,5.3474,5.3474,5.3474,5.3474,5.3474,5.3474,5.35,5.3474,5.3474,5.3474,5.3474,5.3474,5.3474,5.3474,5.3474,5.3474,5.3474,5.3474,5.359,5.4284,5.449,5.4577,5.5184,5.4952,5.4633,5.5213,5.5952,5.6737,5.7503,5.8234,5.9321,6.1377,6.1916,6.2263,6.3602,6.3311,6.2964,6.3498,6.2998,6.2662,6.3207,6.2664,6.22,6.2167,6.092,6.0026,5.9993,5.933,5.8601,5.7873,5.7773,5.7177,5.57,5.4243,5.3415,5.3382,5.2771,5.2391,5.2391,5.1662,5.1629,5.2358,5.1662,5.1662,5.2391,5.2391,5.2391,5.2391,5.2391,5.2391,4.2092,4.3565,4.4211,4.2934,4.1802,4.0466,3.8376,3.6925,3.5706,3.4615,3.4254,3.4428,3.5491,3.6025,3.6722,3.7999,3.8754,3.9567,4.0583,4.2208,4.4356,4.7143,5.0917,5.3097,5.2659,5.3936,5.4458,5.3588,5.3909,5.4081,5.3822,5.3617,5.3706,5.4168,5.3735,5.3474,5.3474,5.3474,5.3474,5.3474,5.3474,5.3474,5.3474,5.3474,5.3474,5.3474,5.3474,5.3474,5.3474,5.3474,5.3474,5.3474,5.3474,5.3474,5.3474,5.3474,5.3764,5.4171,5.4171,5.4171,5.4287,5.4896,5.4865,5.4693,5.5765,5.5649,5.5155,5.5358,5.5927,5.6525,5.6729,5.7737,5.8984,6.0255,6.1016,6.1677,6.2653,6.3004,6.3099,6.3297,6.2987,6.2867,6.3417,6.3319,6.2958,6.229,6.2233,6.1881,6.0887,6.0125,5.9562,5.933,5.8833,5.774,5.5767,5.517,5.4707,5.4177,5.3945,5.3599,5.3102,5.287,5.2373,5.1662,5.1894,5.2159,5.2391,5.287,5.3069,5.3069,5.2623,5.2391,3.9276,4.0931,4.1657,4.0641,3.9886,3.8957,3.7302,3.6431,3.5648,3.4615,3.4382,3.469,3.5578,3.6054,3.6722,3.7999,3.8551,3.9131,3.9973,4.157,4.3942,4.7399,5.1439,5.3762,5.321,5.4313,5.4836,5.4284,5.4168,5.4168,5.42,5.3762,5.3793,5.4487,5.3849,5.3474,5.3474,5.3474,5.3474,5.3474,5.3474,5.3474,5.3474,5.3474,5.3474,5.3474,5.3474,5.3474,0.0,5.3474,5.3474,5.3474,5.3474,5.3474,5.3532,5.3764,5.3994,5.4171,5.4691,5.4691,5.4635,5.5503,5.5678,5.5707,5.652,5.6461,5.6113,5.6113,5.6432,5.6752,5.6752,5.7431,5.8303,5.9201,6.0262,6.1252,6.1821,6.2653,6.3361,6.3556,6.3236,6.3203,6.4007,6.3652,6.3181,6.2782,6.2649,6.2318,6.1595,6.0887,6.0324,6.0026,5.9595,5.8535,5.6594,5.6164,5.57,5.4972,5.4641,5.4177,5.3415,5.3382,5.3003,5.2126,5.2292,5.2656,5.3202,5.3614,5.3813,5.3813,5.34,5.3202,0.0,3.8725,3.9538,3.8899,3.8347,3.768,3.6402,3.5723,0.0,3.4545,3.4382,3.4789,3.6025,3.6286,3.6722,3.7999,3.8289,3.8783,4.0002,4.1541,4.3921,4.7573,5.0336,5.2136,5.2626,5.3849,5.4836,5.53,5.4255,5.4081,5.5213,5.4142,5.3764,5.4403,5.3822,5.3474,5.3474,5.3474,5.3474,5.3474,5.3474,5.3474,5.3474,5.3474,5.3474,5.3474,5.3474,5.3474,5.3474,5.3474,5.3474,5.3474,5.3474,5.3474,5.3588,5.4229,5.4084,5.3735,5.5039,5.5068,5.4778,5.5997,5.681,5.7303,5.7303,5.7303,5.7303,5.7303,5.7303,5.7303,5.7303,5.7303,5.7528,5.8388,5.9792,6.0955,6.1237,6.2461,6.3703,6.4144,6.3691,6.3573,6.473,6.3759,6.2983,6.3453,6.232,6.1611,6.2094,6.1508,6.0812,6.0158,6.0092,5.9496,5.8071,5.7296,5.6547,5.58,5.5104,5.4409,5.3647,5.3581,5.3515,5.3382,5.2771,5.3135,5.4508,5.4508,5.4541,5.4574,5.4541,5.4508,0.0,0.0,3.5456,3.4353,3.5067,3.5723,0.0,3.4811,3.5218,3.4545,3.4382,3.4661,3.5462,3.5996,3.6722,3.7999,3.9015,3.9944,4.0757,4.4501,4.7869,4.978,5.3123,5.4749,5.3413,5.4923,5.562,5.4778,5.4432,5.4168,5.3965,5.3648,5.3588,5.3706,5.3588,5.3474,5.3474,5.3474,5.3474,5.3474,5.3474,5.3474,5.3474,5.3474,5.3474,5.3474,5.3474,5.3474,5.3474,5.3474,5.3474,5.3474,5.3474,5.3474,5.3588,5.4229,5.4374,5.4458,5.5736,5.5736,5.5329,5.6142,5.681,5.7303,5.7303,5.7303,5.7303,5.7303,5.7303,5.7303,5.7303,5.7303,5.7528,5.8388,5.9792,6.1107,6.1825,6.3181,6.4304,6.4431,6.3911,6.3641,6.4294,6.3685,6.3073,6.3015,6.2272,6.1682,6.1589,6.0987,6.0642,6.0812,6.0854,6.049,5.9562,5.88,5.8071,5.7342,5.7111,5.668,5.5951,5.5369,5.4541,5.3415,5.3268,5.3614,5.4508,5.4508,5.4806,5.5336,5.4773,5.4508,0.0,3.2977,3.4237,3.3541,3.437,3.5218,3.452,0.0,3.4852,3.447,3.4632,3.5055,3.5694,3.6315,3.7186,3.8463,3.9479,4.0728,4.2586,4.5698,4.8658,5.0859,5.321,5.4575,5.44,5.5068,5.5358,5.4952,5.4371,5.3996,5.3938,5.3675,5.3474,5.3474,5.3474,5.3474,5.3474,5.3474,5.3474,5.3474,5.3474,5.3474,5.3474,5.3474,5.3474,5.3474,5.3474,5.3474,5.3474,5.3474,5.3474,5.3474,5.3474,5.3474,5.3588,5.4229,5.449,5.4662,5.562,5.591,5.5968,5.6607,5.7042,5.7303,5.7303,5.7303,5.7361,5.7681,5.7768,5.7826,5.8145,5.8,5.7968,5.8741,6.0181,6.1514,6.197,6.3268,6.4507,6.4928,6.4098,6.3575,6.4234,6.3786,6.325,6.3018,6.2412,6.1842,6.1627,6.0978,6.0587,6.0762,6.1068,6.1054,6.0568,6.0456,5.9814,5.8403,5.7972,5.7475,5.6732,5.5965,5.5071,5.3945,5.3912,5.4111,5.4508,5.4508,5.4707,5.5104,5.5038,5.5005,3.0859,3.26,3.4324,3.4034,3.4661,3.5334,0.0,0.0,3.4545,3.4545,3.5084,3.5723,3.6344,3.6983,3.7835,3.9131,4.0089,4.1802,4.5024,4.6505,4.8368,5.1385,5.2426,5.35,5.5126,5.478,5.4693,5.5242,5.4168,5.3762,5.4316,5.3733,5.3355,5.3355,5.3355,5.3355,5.3355,5.3471,5.3474,5.3474,5.3474,5.3474,5.3474,5.3474,5.3474,5.3474,5.3474,5.3474,5.3474,5.3474,5.3474,5.3503,5.359,5.3648,5.3762,5.449,5.4749,5.4749,5.5358,5.5997,5.6636,5.7129,5.7303,5.7303,5.7303,5.7303,5.7448,5.8116,5.829,5.8435,5.9016,5.8813,5.861,5.9161,6.0656,6.1913,6.1885,6.3061,6.4394,6.5203,6.4265,6.3556,6.4166,6.3753,6.3261,6.3098,6.2348,6.1766,6.1681,6.1038,6.0528,6.0293,6.0848,6.113,6.0922,6.1459,6.0997,5.9127,5.8376,5.7594,5.6732,5.5965,5.5303,5.4674,5.4574,5.4574,5.4674,5.4674,5.474,5.4839,5.5369,5.5601,3.1932,3.328,3.4005,3.2351,3.369,3.5131,3.4026,3.4549,3.5247,3.5247,3.5723,3.6373,3.7041,3.7651,3.8492,3.9741,4.1889,4.4501,4.7671,4.8769,5.0071,5.2191,5.3471,5.4342,5.4606,5.4548,5.4546,5.4606,5.3909,5.3532,5.3675,5.3065,5.2743,5.2743,5.2743,5.2743,5.2743,5.3239,5.3474,5.3474,5.3474,5.3474,5.3474,5.3474,5.3474,5.3474,5.3474,5.3474,5.3474,5.3474,5.3474,5.3559,5.4113,5.4371,5.449,5.5678,5.5765,5.5358,5.6026,5.6665,5.7187,5.7274,5.7303,5.7303,5.7303,5.7303,5.7448,5.8116,5.829,5.8319,5.8435,5.8813,5.919,5.9277,6.0526,6.1653,6.1653,6.2871,6.3972,6.4112,6.4115,6.3898,6.3472,6.284,6.2445,6.2509,6.1345,6.0599,6.1134,6.056,6.0035,5.9837,5.9913,5.9957,5.9925,6.0022,5.9925,5.9599,5.9054,5.8104,5.6766,5.5965,5.5568,5.5435,5.4806,5.4806,5.5435,5.5435,5.5733,5.6368,5.5833,5.5601,3.1293,3.2674,3.369,3.2803,3.4532,3.6188,3.5229,3.5462,3.5897,3.5897,3.6402,3.7041,3.768,3.887,4.0525,4.2868,4.4843,4.665,4.8455,4.9582,5.0826,5.2394,5.312,5.3733,5.4432,5.4171,5.3965,5.3965,5.3648,5.3474,5.3474,5.2946,5.2743,5.3065,5.2426,5.2223,5.2597,5.2888,5.3181,5.3474,5.3474,5.3474,5.3474,5.3474,5.3474,5.3474,5.3474,5.3474,5.3474,5.3474,5.3474,5.3532,5.3822,5.4197,5.4635,5.5939,5.5997,5.5562,5.6549,5.6868,5.6868,5.7187,5.7303,5.7303,5.7303,5.7303,5.7361,5.7681,5.829,5.8929,5.9248,5.9568,5.9887,6.0235,6.0969,6.1692,6.202,6.2635,6.3275,6.3787,6.3572,6.3371,6.371,6.2786,6.2113,6.2263,6.1273,6.0501,6.0554,6.0582,6.0566,6.0449,6.0457,6.057,6.0818,6.0818,6.0443,5.9533,5.9249,5.8756,5.7939,5.7177,5.6812,5.6812,5.5667,5.527,5.5601,5.5204,5.517,5.5521,5.5568,5.5601,3.096,3.2122,3.3284,3.3474,0.0,3.6838,3.678,3.6733,3.6867,3.7331,3.7825,3.8347,3.8783,4.0466,4.2789,4.5859,4.7404,4.8566,4.947,5.0481,5.161,5.2888,5.2917,5.3239,5.4374,5.388,5.3474,5.3474,5.3474,5.3442,5.3297,5.2688,5.2514,5.2833,5.1904,5.1643,5.2162,5.2452,5.283,5.3297,5.3442,5.3474,5.3474,5.3474,5.3474,5.3474,5.3474,5.3474,5.3474,5.3474,5.3474,5.353,5.3648,5.4229,5.5097,5.62,5.6287,5.5997,5.6955,5.7013,5.6694,5.7158,5.7303,5.7303,5.7303,5.7303,5.7332,5.7507,5.8406,5.9422,5.9858,6.0206,6.0555,6.1077,6.1351,6.1642,6.2115,6.2204,6.2349,6.2893,6.2754,6.2691,6.322,6.2491,6.1898,6.206,6.1203,6.0418,6.0065,6.0347,6.0482,6.0327,6.0345,6.0416,6.0633,6.052,5.9928,5.8755,5.8959,5.8885,5.8298,5.7871,5.7648,5.7648,5.6456,5.5866,5.5866,5.527,5.5024,5.5005,5.5435,5.5601,3.2032,3.2468,3.27,3.3342,3.452,3.5973,3.768,3.8057,3.858,4.0379,4.0786,4.0844,4.0873,4.2469,4.464,4.7253,4.874,5.022,5.2075,5.2394,5.2946,5.4226,5.3793,5.3733,5.4432,5.388,5.3474,5.3474,5.3474,5.3268,5.2685,5.202,5.1439,5.0913,5.0826,5.0797,5.0826,5.2017,5.2626,5.2655,5.3239,5.3474,5.3474,5.3474,5.3474,5.3474,5.3474,5.3474,5.3474,5.3474,5.3474,5.3561,5.4171,5.5184,5.6345,5.6984,5.7216,5.7187,5.7274,5.7274,5.7245,5.7303,5.7303,5.7303,5.7303,5.7303,5.7448,5.8058,5.8755,5.9306,5.9364,6.0235,6.1135,6.1193,6.1224,6.1255,6.1254,6.1283,6.1139,6.0588,6.1557,6.2139,6.0975,6.1242,6.1674,6.1789,6.0609,5.9732,5.9789,5.9314,5.8728,5.808,5.8044,5.7826,5.7317,5.6677,5.6464,5.6755,5.7959,5.7979,5.6557,5.6918,5.7167,5.7167,5.6796,5.6614,5.6614,5.6567,5.6514,5.6534,5.5899,5.5601,3.1642,3.2177,3.2758,3.379,3.5009,3.6344,3.7854,3.9131,4.0321,4.1482,4.2353,4.3021,4.3369,4.4705,4.6214,4.7602,4.9228,5.0569,5.1319,5.2397,5.3181,5.3323,5.3791,5.3907,5.3355,5.3442,5.3155,5.2372,5.2688,5.2659,5.202,5.1381,5.1091,5.1265,5.0506,5.0274,5.071,5.1174,5.1407,5.1436,5.2833,5.3474,5.3474,5.3474,5.3474,5.3474,5.3474,5.3474,5.3474,5.3474,5.3474,5.359,5.4662,5.562,5.649,5.7071,5.7303,5.7303,5.7303,5.7303,5.7303,5.7303,5.7303,5.7303,5.7303,5.7594,5.7971,5.8232,5.9045,5.9858,5.9858,6.0526,6.1106,6.0671,6.0903,6.099,6.0206,6.0322,6.038,5.9771,6.0122,6.0646,6.1103,6.0612,6.0378,6.096,6.0105,5.9319,5.908,5.9186,5.9252,5.9118,5.8356,5.7775,5.7557,5.6555,5.5946,5.6033,5.6872,5.7451,5.7674,5.7426,5.7302,5.7335,5.7102,5.6731,5.6343,5.6564,5.6699,5.6699,5.6415,5.6282,3.0843,3.1539,3.238,3.3251,3.5212,3.7342,3.9044,4.0466,4.1831,4.3282,4.395,4.4472,4.5104,4.5924,4.6859,4.7898,4.9698,5.0975,5.0975,5.2455,5.321,5.2368,5.3239,5.3471,5.2394,5.2659,5.2517,5.1675,5.202,5.1991,5.1352,5.0942,5.0797,5.1004,5.0158,4.9925,5.039,5.0593,5.071,5.071,5.2194,5.3007,5.321,5.3413,5.3413,5.3239,5.3442,5.3384,5.3239,5.3442,5.3619,5.3909,5.501,5.5823,5.649,5.7071,5.7303,5.7303,5.7303,5.7303,5.7303,5.7303,5.7303,5.7303,5.7303,5.7768,5.8348,5.8552,5.9393,6.0235,6.0467,6.0845,6.1077,6.0613,6.07,6.0642,5.9771,5.9771,5.9742,5.9103,5.9306,5.9772,6.0466,6.0004,5.9743,6.0113,5.9478,5.8898,5.8554,5.8724,5.8916,5.9042,5.8078,5.733,5.712,5.6102,5.5334,5.503,5.5375,5.6146,5.7245,5.6986,5.6847,5.6937,5.6655,5.6327,5.5886,5.6152,5.629,5.629,5.629,5.629,2.9798,3.0553,3.151,3.1539,3.4905,3.8899,4.1512,4.2121,4.3021,4.6192,4.5808,4.5133,4.5801,4.5946,4.6534,4.8397,5.0312,5.1559,5.1588,5.2662,5.301,5.1733,5.2165,5.2336,5.1672,5.1588,5.1588,5.1559,5.1588,5.1323,5.071,5.0681,5.039,4.9722,4.9693,4.9693,4.9693,5.0361,5.0681,5.071,5.1294,5.1933,5.2597,5.321,5.3152,5.2626,5.3239,5.3152,5.2655,5.3239,5.388,5.4575,5.5155,5.5823,5.6461,5.7071,5.7303,5.7303,5.7303,5.7303,5.7303,5.7303,5.7303,5.7303,5.7303,5.7768,5.8464,5.9132,5.9742,6.0351,6.1019,6.1193,6.1193,6.1164,6.0671,6.0177,6.0177,5.9713,5.9103,5.8435,5.9306,5.9771,5.8523,5.9364,5.9974,5.9393,5.8726,5.829,5.829,5.771,5.7303,5.7303,5.6752,5.6142,5.5445,5.4865,5.42,5.3532,5.3474,5.3867,5.4658,5.5214,5.5565,5.5668,5.5421,5.5304,5.5369,5.5389,5.5389,5.5369,5.5389,5.5389,3.1684,3.1916,3.2642,3.4412,3.6925,3.9712,4.2731,4.3427,4.4443,4.8072,4.7834,4.7137,4.7729,4.7874,4.7927,4.8043,4.9291,5.0448,5.0888,5.1265,5.1556,5.1588,5.1788,5.1643,5.1029,5.1352,5.1236,5.0307,5.0685,5.0681,5.0042,5.0013,4.9896,4.9722,4.9693,4.9693,4.9693,4.9896,5.0013,5.0013,5.0681,5.1294,5.1904,5.2082,5.2052,5.1933,5.2572,5.2772,5.2655,5.3239,5.388,5.4519,5.4693,5.5155,5.5794,5.6432,5.6665,5.6723,5.7158,5.7303,5.7303,5.7303,5.7303,5.739,5.7855,5.8464,5.9132,5.9771,6.0409,6.0845,6.0555,6.0496,6.038,5.9974,5.9713,5.9306,5.8348,5.8406,5.8406,5.7739,5.7913,5.8203,5.829,5.861,5.8813,5.861,5.8435,5.8145,5.7652,5.7419,5.7158,5.6723,5.6084,5.5445,5.4836,5.4168,5.3706,5.3503,5.3474,5.3867,5.4658,5.4855,5.4794,5.4427,5.4699,5.4357,5.3446,5.4232,5.438,5.3881,5.4925,5.5111,3.1816,3.2468,3.3744,3.5793,3.8144,4.0786,4.4008,4.5314,4.6592,4.917,4.8677,4.7956,4.86,4.8484,4.8304,4.8188,4.9257,5.0158,5.0274,5.0739,5.1004,5.0859,5.1091,5.0975,5.0361,5.0627,5.0511,4.9751,5.0071,5.0129,4.9722,4.9693,4.9693,4.9693,4.9693,4.9693,4.9693,4.9693,4.9693,4.9693,5.01,5.0506,5.0859,5.1356,5.1443,5.1265,5.1904,5.2365,5.2655,5.3239,5.388,5.449,5.449,5.4894,5.5474,5.6171,5.6403,5.649,5.71,5.7303,5.7303,5.7303,5.7303,5.739,5.7768,5.8552,5.9393,5.9742,6.0322,6.07,6.0293,5.9829,5.9422,5.9335,5.9103,5.8668,5.7884,5.7797,5.7768,5.739,5.7507,5.7739,5.7884,5.8348,5.8523,5.7971,5.7913,5.7768,5.7361,5.7303,5.7071,5.6461,5.6055,5.5445,5.4548,5.4113,5.3764,5.3503,5.3474,5.371,5.42,5.4226,5.4107,5.3826,5.3838,5.3455,5.2742,5.3401,5.3535,5.3133,5.4235,5.4546,3.1105,3.2687,3.4835,3.6286,3.916,4.2382,4.5372,4.7491,4.8948,4.9577,4.8793,4.8159,4.8774,4.8391,4.8154,4.8687,4.9814,5.0419,4.9867,5.0743,5.1033,4.9925,5.0274,5.0361,4.9751,4.9693,4.9693,4.9693,4.9693,4.9693,4.9693,4.9693,4.9693,4.9693,4.9693,4.9693,4.9693,4.9693,4.9693,4.9693,4.9693,4.9693,4.9751,5.0917,5.1149,5.0739,5.1294,5.1933,5.2626,5.3181,5.382,5.4403,5.4403,5.4722,5.5329,5.6055,5.6316,5.6403,5.7071,5.7303,5.7303,5.7303,5.7303,5.7303,5.739,5.829,5.9306,5.9364,5.9829,6.0264,6.0148,5.9248,5.8523,5.9016,5.8668,5.8232,5.829,5.7768,5.7332,5.739,5.7826,5.8029,5.7419,5.8319,5.8697,5.7477,5.7303,5.7303,5.7303,5.7303,5.7071,5.6461,5.6345,5.5852,5.4691,5.4487,5.4171,5.3646,5.3532,5.3474,5.3474,5.3474,5.3549,5.3617,5.302,5.2681,5.2708,5.2839,5.2839,5.2708,5.3468,5.3771,3.3616,3.4387,3.5839,3.858,4.2449,4.5872,4.7114,4.8502,4.9548,4.9664,4.949,4.949,5.0158,4.9722,4.9345,4.9436,4.9722,5.0042,5.0419,5.0274,5.0216,5.0448,5.0158,4.9867,4.9722,4.9693,4.9693,4.9693,4.9693,4.9693,4.9693,4.9693,4.9693,4.9693,4.9693,4.9693,4.9693,4.9693,4.9693,4.9693,4.9693,4.9693,4.9722,4.9983,5.0332,5.071,5.0855,5.1552,5.2597,5.2743,5.3152,5.3733,5.3733,5.3764,5.4052,5.5213,5.562,5.5794,5.6926,5.7303,5.7303,5.7303,5.7303,5.739,5.7942,5.8668,5.9393,5.9858,6.0467,6.0758,5.9742,5.9306,5.8871,5.7942,5.7623,5.7652,5.8203,5.7768,5.7448,5.7971,5.7768,5.7477,5.7332,5.7536,5.7623,5.7332,5.7303,5.7303,5.7303,5.7303,5.7071,5.6461,5.5939,5.5503,5.5242,5.4287,5.3907,5.4284,5.3764,5.3474,5.3474,5.3474,5.3289,5.2855,5.2709,5.2142,5.1175,5.2234,5.218,5.1199,5.299,5.3483,3.4382,3.5532,3.7495,4.067,4.4182,4.6888,4.7259,4.8072,4.888,4.9146,4.9233,4.9407,5.01,4.9432,4.8996,4.9606,4.9432,4.9465,5.0129,4.9925,4.9838,5.0187,4.9896,4.9693,4.9693,4.9693,4.9693,4.9693,4.9378,4.9233,4.9233,4.8967,4.8938,4.9204,4.9233,4.9378,4.9693,4.9693,4.9693,4.9693,4.9693,4.9693,4.9693,4.9693,4.9896,5.0245,5.0564,5.1232,5.2136,5.2481,5.2949,5.3474,5.3474,5.3677,5.4084,5.5068,5.562,5.6026,5.6984,5.7303,5.7361,5.7681,5.7768,5.7855,5.8203,5.8784,5.9306,5.9306,5.9539,5.9655,5.8987,5.8581,5.8174,5.7477,5.7303,5.739,5.7739,5.7565,5.7507,5.8174,5.7768,5.7507,5.8145,5.8,5.7768,5.7768,5.7507,5.7303,5.7303,5.7303,5.6955,5.6026,5.562,5.5155,5.4546,5.3907,5.3675,5.3996,5.3677,5.3474,5.3474,5.3474,5.3355,5.3036,5.2743,5.2278,5.161,5.2306,5.2281,5.1635,5.3006,5.3453,3.4523,3.6519,3.9247,4.2237,4.485,4.6685,4.6772,4.7317,4.795,4.8426,4.8629,4.8861,4.9432,4.8677,4.8299,4.9374,4.8972,4.8827,4.9606,4.9606,4.9577,4.9693,4.9693,4.9664,4.9548,4.9548,4.949,4.9374,4.8856,4.8542,4.8542,4.8072,4.8014,4.8513,4.8542,4.8827,4.9374,4.949,4.9548,4.9548,4.9635,4.9693,4.9693,4.9693,4.9693,4.9722,5.0419,5.1033,5.1646,5.2336,5.2949,5.3474,5.3474,5.3822,5.4403,5.5126,5.5765,5.6345,5.7042,5.7303,5.739,5.7942,5.8203,5.829,5.829,5.8784,5.9219,5.8755,5.8552,5.8464,5.8464,5.7971,5.7448,5.7332,5.7303,5.7332,5.7448,5.739,5.7507,5.8174,5.7768,5.7652,5.8755,5.8493,5.8116,5.8116,5.7652,5.7303,5.7303,5.7303,5.6897,5.5852,5.5649,5.5155,5.4084,5.3793,5.3648,5.3648,5.3561,5.3474,5.3474,5.3474,5.3474,5.3474,5.3007,5.2714,5.2597,5.2714,5.2714,5.2597,5.321,5.3474,3.5074,3.7524,4.035,4.2469,4.4501,4.6156,4.6685,4.7317,4.7834,4.7921,4.8333,4.8716,4.8803,4.8687,4.8629,4.8803,4.8333,4.8357,4.9519,4.9204,4.9059,4.9635,4.9693,4.9465,4.889,4.8832,4.8624,4.8096,4.7979,4.7921,4.7921,4.7834,4.7834,4.7921,4.7921,4.7979,4.8067,4.8566,4.8832,4.8832,4.9407,4.9693,4.9693,4.9693,4.9693,4.9722,5.0419,5.1033,5.1646,5.2336,5.2949,5.3474,5.3474,5.3532,5.3791,5.4981,5.5474,5.5707,5.6897,5.7303,5.7303,5.739,5.7826,5.829,5.829,5.8784,5.9393,5.9829,5.9568,5.9161,5.9161,5.8668,5.8029,5.7448,5.7303,5.7448,5.8058,5.771,5.7507,5.8174,5.7768,5.7361,5.7536,5.7507,5.7448,5.7448,5.7361,5.7303,5.7303,5.7303,5.7245,5.7071,5.6578,5.62,5.6026,5.4983,5.4371,5.4371,5.3822,5.3474,5.3474,5.3474,5.3474,5.3474,5.3442,5.3123,5.2597,5.3123,5.3094,5.2597,5.321,5.3474,3.5851,3.7505,3.9391,4.2289,4.3123,4.376,4.5813,4.6062,4.6117,4.7056,4.6988,4.7091,4.8035,4.7608,4.7491,4.8542,4.7874,4.7695,4.8972,4.8595,4.8304,4.8618,4.8647,4.8531,4.8217,4.8188,4.8072,4.7834,4.7433,4.7259,4.7259,4.6911,4.6882,4.723,4.7259,4.7433,4.7805,4.842,4.889,4.9262,4.9577,4.9693,4.9693,4.9693,4.9693,4.9722,5.0419,5.1033,5.1646,5.2336,5.2949,5.3474,5.3474,5.3706,5.4168,5.5068,5.5649,5.6084,5.6984,5.7303,5.7361,5.7739,5.8319,5.8784,5.8406,5.8784,5.919,5.8726,5.8377,5.8174,5.8174,5.7971,5.7681,5.7361,5.7303,5.739,5.7681,5.7507,5.739,5.7681,5.8116,5.8174,5.7448,5.7623,5.7739,5.7361,5.7303,5.7303,5.7303,5.7303,5.7158,5.6839,5.6578,5.6258,5.5881,5.5039,5.449,5.449,5.3878,5.3474,5.3474,5.3474,5.3474,5.3474,5.3474,5.3384,5.3094,5.3384,5.3355,5.3094,5.3384,5.3474,3.5819,3.6689,3.7655,4.0851,4.1134,4.1411,4.4406,4.4395,4.4219,4.6021,4.5463,4.5092,4.6481,4.5967,4.5987,4.792,4.7055,4.6697,4.8257,4.7956,4.7608,4.7776,4.7805,4.7747,4.755,4.755,4.7462,4.7341,4.6853,4.6569,4.6569,4.6127,4.6098,4.6569,4.6569,4.6824,4.7312,4.8072,4.8798,4.9461,4.9606,4.9693,4.9693,4.9693,4.9693,4.9751,5.0564,5.1178,5.1646,5.2484,5.3094,5.3474,5.3474,5.3793,5.4342,5.5099,5.5736,5.6258,5.7042,5.7303,5.739,5.7884,5.8493,5.8987,5.8668,5.8784,5.8958,5.8435,5.7942,5.7594,5.7768,5.7826,5.7768,5.7594,5.7565,5.7507,5.7332,5.7303,5.7303,5.7303,5.8116,5.8464,5.7477,5.771,5.7884,5.739,5.7303,5.7303,5.7303,5.7303,5.7129,5.6694,5.6636,5.6374,5.5707,5.5242,5.4838,5.4519,5.4025,5.3735,5.3735,5.359,5.3588,5.3735,5.359,5.3474,5.3474,5.3474,5.3474,5.3474,5.3474,5.3474,3.4415,3.4912,3.5422,3.7392,3.8645,4.0018,4.2334,4.2472,4.2704,4.4849,4.4028,4.3106,4.3704,4.3808,4.4491,4.6558,4.5497,4.5241,4.7519,4.7288,4.7091,4.7718,4.7805,4.755,4.6917,4.6859,4.6598,4.6063,4.5976,4.5946,4.5946,4.5917,4.5917,4.5946,4.5946,4.5953,4.6005,4.7224,4.8159,4.8745,4.9378,4.9693,4.9693,4.9693,4.9693,4.978,5.1004,5.1559,5.1704,5.2923,5.3471,5.3474,5.3474,5.3503,5.3677,5.4952,5.5416,5.5649,5.6868,5.7303,5.7303,5.7332,5.7826,5.8464,5.9074,5.8842,5.8726,6.0496,5.9684,5.8406,5.9045,5.919,5.9045,5.8406,5.8261,5.8087,5.7448,5.7303,5.7303,5.7303,5.7361,5.739,5.7303,5.7332,5.7332,5.7303,5.7303,5.7303,5.7303,5.7303,5.7303,5.7274,5.7245,5.7013,5.6403,5.6316,5.5794,5.4604,5.4487,5.4458,5.4458,5.3849,5.3793,5.4458,5.3822,5.3474,5.3474,5.3474,5.3474,5.3474,5.3474,5.3474,3.3621,3.3852,3.4288,3.6751,3.684,3.7052,3.9758,4.0433,4.0846,4.2293,4.2145,4.2041,4.2917,4.3118,4.3494,4.4633,4.3969,4.3763,4.4979,4.4638,4.4331,4.4578,4.4606,4.4498,4.4252,4.4814,4.513,4.4903,4.5498,4.5917,4.5917,4.5917,4.5917,4.5917,4.5917,4.6113,4.6602,4.7386,4.7971,4.8315,4.8919,4.9005,4.8681,4.8681,4.8681,4.8763,5.0376,5.1283,5.1704,5.2952,5.3474,5.3474,5.3474,5.3764,5.42,5.4635,5.5358,5.6113,5.6578,5.6984,5.7303,5.7303,5.7768,5.8261,5.8087,5.8145,5.8464,5.9132,5.8523,5.7826,5.8493,5.8348,5.7971,5.771,5.7652,5.7594,5.7361,5.7303,5.7303,5.7303,5.7303,5.7303,5.7303,5.7303,5.7303,5.7303,5.7303,5.7303,5.7303,5.7303,5.7303,5.7303,5.7303,5.7216,5.7013,5.6636,5.6229,5.5765,5.5329,5.5097,5.5097,5.4487,5.4229,5.449,5.3822,5.3474,5.3474,5.3474,5.3474,5.3474,5.3474,5.3474,3.2844,3.2827,3.3129,3.5491,3.5172,3.5015,3.7798,3.8425,3.8865,4.0532,4.0554,4.0638,4.183,4.1873,4.2121,4.321,4.2744,4.2538,4.3283,4.306,4.2792,4.2792,4.2792,4.2792,4.2792,4.3725,4.4312,4.4312,4.5293,4.5917,4.5917,4.5917,4.5917,4.5917,4.5917,4.6137,4.6657,4.7242,4.761,4.7769,4.8371,4.8431,4.8103,4.8103,4.8215,4.8468,4.9898,5.0714,5.1138,5.2612,5.3105,5.2947,5.3148,5.3493,5.3952,5.4327,5.5043,5.579,5.602,5.6364,5.668,5.668,5.7025,5.7312,5.7082,5.7168,5.7513,5.8116,5.7685,5.7197,5.8061,5.7973,5.7652,5.7652,5.7652,5.7565,5.7361,5.7303,5.7303,5.7303,5.7303,5.7303,5.7303,5.7303,5.7303,5.7303,5.7303,5.7303,5.7303,5.7303,5.7303,5.7303,5.7303,5.7303,5.7303,5.6926,5.6636,5.6432,5.5997,5.5736,5.5736,5.5128,5.478,5.478,5.4168,5.3706,5.3474,5.3474,5.3474,5.3474,5.3474,5.3474,0.0,0.0,0.0,3.3464,3.3673,3.4104,3.6445,3.644,3.6761,3.9647,3.9294,3.8864,4.0171,3.9972,4.0313,4.2352,4.1813,4.1518,4.2574,4.2695,4.2695,4.2719,4.2719,4.2719,4.2719,4.363,4.4219,4.4219,4.5201,4.5827,4.5827,4.5827,4.585,4.5827,4.585,4.5918,4.5987,4.6667,4.7028,4.7107,4.7771,4.8078,4.8052,4.8052,4.8364,4.8955,4.9599,4.9851,5.0016,5.1816,5.2247,5.1843,5.2461,5.2714,5.2883,5.4034,5.4512,5.4624,5.5271,5.5496,5.5496,5.5496,5.5496,5.5608,5.62,5.5975,5.5889,5.7718,5.7324,5.6657,5.7872,5.8233,5.8233,5.8233,5.8262,5.8087,5.7448,5.7303,5.7303,5.7303,5.7303,5.7303,5.7303,5.7303,5.7303,5.7303,5.7303,5.7303,5.7303,5.7303,5.7303,5.7303,5.7303,5.7303,5.7303,5.7303,5.7042,5.6461,5.6432,5.6432,5.6432,5.5794,5.5416,5.5416,5.4807,5.4168,5.3474,5.3474,5.3474,5.3474,5.3474,5.3474,3.2728,0.0,0.0,0.0,0.0,0.0,3.404,3.4411,3.4994,3.6617,3.7143,3.7543,3.8266,3.8291,3.8592,3.9799,3.9906,4.0006,4.0491,4.0389,4.0338,4.0542,4.0567,4.0567,4.0567,4.1468,4.2059,4.2059,4.3057,4.3654,4.3654,4.4036,4.4153,4.3937,4.4908,4.5495,4.5581,4.6564,4.696,4.6679,4.7256,4.7313,4.6951,4.6951,4.7007,4.728,4.8694,4.9056,4.8843,5.1091,5.1923,5.1843,5.2461,5.2967,5.3388,5.3725,5.4427,5.5187,5.4877,5.5073,5.5496,5.5496,5.5496,5.5524,5.5693,5.5636,5.5693,5.665,5.6368,5.5836,5.6179,5.662,5.6939,5.6939,5.7281,5.7536,5.7332,5.7303,5.7303,5.7303,5.7303,5.7303,5.7303,5.7303,5.7303,5.7303,5.7303,5.7303,5.7303,5.7303,5.7303,5.7303,5.7303,5.7303,5.7303,5.7303,5.7245,5.7071,5.7042,5.7042,5.7042,5.6461,5.591,5.5416,5.4807,5.4168,5.3474,5.3474,5.3474,5.3474,5.3474,5.3474,0.0,0.0,0.0,3.3101,0.0,0.0,3.3202,3.3433,3.3784,3.4877,3.5517,3.6133,3.6799,3.6873,3.7072,3.7892,3.799,3.836,3.9545,3.9465,3.9362,3.9491,3.9542,3.9542,3.9542,4.0541,4.1194,4.1194,4.2084,4.2571,4.2425,4.2716,4.2922,4.2996,4.3791,4.4368,4.4683,4.5367,4.5597,4.5395,4.5688,4.5662,4.5368,4.5368,4.5715,4.633,4.7215,4.7751,4.8101,4.9351,5.0321,5.11,5.1709,5.2153,5.254,5.3038,5.3674,5.4313,5.4174,5.4396,5.4701,5.4701,5.4701,5.4701,5.4701,5.4701,5.4867,5.5725,5.5906,5.5726,5.5197,5.5526,5.6019,5.6019,5.6279,5.6623,5.6879,5.6908,5.6993,5.7247,5.7303,5.7303,5.7303,5.7303,5.7303,5.7303,5.7303,5.7303,5.7303,5.7303,5.7303,5.7303,5.7303,5.7303,5.7303,5.7303,5.7303,5.7303,5.7303,5.7303,5.7303,5.6955,5.6345,5.5416,5.5068,5.4403,5.3474,5.3474,5.3474,5.3474,5.3474,5.3474,0.0,0.0,0.0,3.3738,3.3451,0.0,3.3419,3.3197,3.3212,3.4158,3.4419,3.4792,3.576,3.5763,3.5889,3.6626,3.6383,3.6898,3.9167,3.9239,3.9084,3.911,3.916,3.9184,3.9183,4.0236,4.0919,4.0919,4.1591,4.1861,4.1513,4.1588,4.1824,4.2198,4.2485,4.2861,4.3335,4.3596,4.3718,4.372,4.3771,4.3797,4.3797,4.3797,4.452,4.5727,4.5522,4.6205,4.7433,4.7224,4.8184,4.9894,5.0518,5.0846,5.115,5.2289,5.275,5.2886,5.3402,5.3592,5.3592,5.3592,5.3592,5.3592,5.3592,5.3592,5.3836,5.4976,5.5678,5.5835,5.4764,5.4936,5.5379,5.5379,5.5437,5.5642,5.6164,5.6279,5.6451,5.6993,5.7219,5.7303,5.7303,5.7303,5.7303,5.7303,5.7303,5.7303,5.7303,5.7303,5.7303,5.7303,5.7303,5.7303,5.7303,5.7303,5.7303,5.7303,5.7303,5.7303,5.7303,5.7303,5.6752,5.5533,5.5387,5.472,5.3474,5.3474,5.3474,5.3474,5.3474,5.3474,3.3905,3.3582,3.328,3.3859,3.3873,0.0,3.3603,3.3685,3.3836,3.4027,3.4265,3.4602,3.5234,3.5307,3.5575,3.6358,3.6211,3.648,3.7817,3.779,3.7689,3.7891,3.8314,3.851,3.8355,3.8906,3.9259,3.9259,3.9414,3.9364,3.9104,3.9699,3.9778,3.9272,4.1182,4.1879,4.1132,4.2881,4.3573,4.3158,4.3592,4.3797,4.3797,4.3797,4.3956,4.425,4.4678,4.5271,4.5951,4.637,4.747,4.8926,4.9536,5.0535,5.169,5.2422,5.3022,5.3429,5.3565,5.3592,5.3592,5.3592,5.3592,5.3592,5.3592,5.3592,5.3754,5.446,5.4742,5.4811,5.4566,5.4583,5.4675,5.4675,5.5116,5.5525,5.5642,5.5671,5.57,5.5845,5.6623,5.7303,5.7303,5.7303,5.7303,5.7303,5.7303,5.7303,5.7303,5.7303,5.7303,5.7303,5.7303,5.7303,5.7303,5.7303,5.7303,5.7303,5.7303,5.7303,5.7303,5.7303,5.6955,5.6229,5.5213,5.4287,5.3474,5.3474,5.3474,5.3474,5.3474,5.3474,3.4289,3.4027,3.3764,3.4265,3.422,0.0,0.0,3.3422,3.338,3.3714,3.3421,3.3368,3.4404,3.3972,3.3851,3.5009,3.4894,3.5163,3.6604,3.6921,3.7043,3.7193,3.744,3.7561,3.7459,3.8075,3.8492,3.858,3.8361,3.8207,3.8212,3.8093,3.8199,3.858,3.9544,4.0055,4.0055,4.1149,4.172,4.172,4.1994,4.2239,4.2488,4.2488,4.274,4.3156,4.3287,4.3744,4.4443,4.4806,4.5691,4.6968,4.8446,4.951,5.0323,5.1409,5.2181,5.275,5.3049,5.3347,5.3592,5.3592,5.3592,5.3592,5.3592,5.4026,5.4433,5.4134,5.4487,5.4813,5.4189,5.4051,5.4047,5.4047,5.4314,5.4641,5.4939,5.4998,5.5087,5.5437,5.599,5.648,5.6794,5.6851,5.6936,5.7247,5.7303,5.7303,5.7303,5.7303,5.7303,5.7303,5.7303,5.7303,5.7303,5.7303,5.7303,5.7303,5.7303,5.7303,5.7303,5.7303,5.6868,5.5939,5.4981,5.4168,5.3474,5.3474,5.3474,5.3474,5.3474,5.3474,3.4847,3.4799,3.4679,3.4895,3.4775,3.4463,0.0,0.0,0.0,3.3468,3.2868,3.2673,3.3862,3.3048,3.2596,3.3807,3.3655,3.3882,3.5405,3.5989,3.64,3.6766,3.6523,3.6377,3.6545,3.721,3.7652,3.7686,3.7491,3.7413,3.7543,3.6916,3.7108,3.8284,3.8214,3.8455,3.9128,3.9561,3.9922,4.0234,4.0451,4.0763,4.1201,4.1201,4.1573,4.2252,4.1977,4.2307,4.3062,4.3275,4.3916,4.4938,4.7184,4.823,4.865,4.991,5.0815,5.1457,5.1863,5.2574,5.3265,5.3049,5.317,5.3456,5.3565,5.4351,5.503,5.4053,5.4487,5.5003,5.4026,5.3673,5.3592,5.3592,5.3592,5.377,5.4364,5.4401,5.4522,5.5165,5.5198,5.5379,5.6078,5.6308,5.6566,5.7049,5.7219,5.7303,5.7303,5.7303,5.7303,5.7303,5.7303,5.7303,5.7303,5.7303,5.7303,5.7303,5.7303,5.7303,5.7303,5.7303,5.6781,5.562,5.5099,5.4546,5.3878,5.3878,5.3762,5.3474,5.3474,5.3474,3.5496,3.617,3.6627,3.5712,3.6194,3.6338,3.439,0.0,3.4871,3.3595,0.0,3.4438,3.4385,0.0,0.0,3.4026,3.3745,3.3726,3.4151,3.4289,3.492,3.6595,3.5551,3.4945,3.5667,3.5836,3.5716,3.5233,3.6027,3.634,3.5905,3.6651,3.6964,3.6675,3.8022,3.831,3.7469,3.9345,4.009,3.9705,4.0643,4.1124,4.1201,4.1201,4.123,4.1344,4.1302,4.162,4.219,4.2704,4.3186,4.3826,4.5484,4.6949,4.8189,4.836,4.9088,4.9966,4.9558,5.0655,5.2095,5.1092,5.1689,5.2913,5.3429,5.4053,5.4569,5.4464,5.4518,5.4569,5.4406,5.3999,5.3592,5.3592,5.3592,5.3785,5.4362,5.4093,5.3906,5.4484,5.4157,5.4194,5.5408,5.6048,5.6423,5.648,5.6964,5.7303,5.7303,5.7303,5.7303,5.7303,5.7303,5.7303,5.7303,5.7303,5.7303,5.7303,5.7303,5.7303,5.7303,5.7303,5.6984,5.6316,5.6229,5.5852,5.5184,5.5184,5.4577,5.3474,5.3474,5.3474,3.6362,3.6867,3.7084,3.6651,3.6627,3.6338,3.4823,3.4583,3.4583,3.4222,0.0,0.0,0.0,0.0,0.0,0.0,3.3779,3.3663,3.4362,3.369,3.3812,3.5648,3.5138,3.4776,3.5087,3.5135,3.5039,3.4823,3.5496,3.5953,3.6074,3.588,3.6266,3.73,3.7372,3.7493,3.7637,3.8864,3.9513,3.9609,4.0355,4.0912,4.1201,4.1201,4.1201,4.1201,4.1201,4.1345,4.161,4.2452,4.291,4.3229,4.4469,4.5673,4.6819,4.7359,4.8111,4.8783,4.8552,4.9496,5.083,5.1229,5.1971,5.2832,5.3429,5.3999,5.4436,5.408,5.4216,5.4436,5.4053,5.3782,5.3592,5.3592,5.3592,5.3673,5.3917,5.3782,5.3673,5.3917,5.3754,5.3773,5.4314,5.491,5.5527,5.6279,5.6623,5.6908,5.7247,5.7303,5.7303,5.7303,5.7303,5.7303,5.7303,5.7303,5.7303,5.7303,5.7303,5.7303,5.7303,5.7303,5.7013,5.6432,5.6403,5.6084,5.5416,5.5068,5.4807,5.4577,5.4577,5.4403,3.7156,3.7637,3.7757,3.73,3.7012,3.6531,3.5304,3.4823,3.4679,3.4775,3.4438,0.0,0.0,0.0,3.3929,3.4236,0.0,3.3835,3.4486,3.3619,3.3451,3.4921,3.48,3.4535,3.439,3.4511,3.4462,3.4198,3.4775,3.528,3.5545,3.5208,3.5784,3.7519,3.7084,3.7204,3.8,3.8527,3.9008,3.9393,4.0066,4.0595,4.1008,4.1124,4.1201,4.1201,4.1201,4.1297,4.149,4.2404,4.2886,4.3102,4.3955,4.4755,4.5464,4.616,4.6783,4.7268,4.7116,4.7785,4.9035,5.1018,5.1846,5.2233,5.3094,5.3754,5.4134,5.3727,5.3917,5.4134,5.37,5.3592,5.3592,5.3592,5.3592,5.3646,5.3809,5.3727,5.3646,5.3809,5.37,5.3592,5.3592,5.4244,5.4988,5.5787,5.6162,5.6479,5.6766,5.6936,5.7049,5.7049,5.7046,5.7129,5.7303,5.7158,5.7129,5.7303,5.7303,5.7303,5.7303,5.7303,5.71,5.6665,5.6665,5.6403,5.5939,5.5503,5.5416,5.5678,5.5126,5.4749,3.7832,3.8719,3.9152,3.7589,3.7591,3.7517,3.5954,3.5978,3.605,3.5015,3.5592,3.5932,3.4653,3.4822,3.4894,3.4125,3.4208,0.0,0.0,3.3974,3.4174,3.4727,3.4342,3.3862,3.338,3.3766,3.3621,3.2659,3.3501,3.3862,3.3404,3.4775,3.5832,3.6435,3.7447,3.7976,3.8,3.8527,3.8788,3.8836,3.9898,4.0403,4.0427,4.0956,4.1201,4.1201,4.1201,4.1514,4.2019,4.2573,4.3078,4.3553,4.41,4.4316,4.4347,4.4378,4.4746,4.5131,4.4601,4.508,4.6411,4.9471,5.0439,5.0754,5.2266,5.3158,5.3619,5.3619,5.3619,5.3619,5.3619,5.3592,5.3592,5.3592,5.3592,5.3754,5.4355,5.3999,5.3754,5.4382,5.3999,5.3592,5.3592,5.457,5.5185,5.4639,5.5589,5.62,5.5639,5.6077,5.6423,5.6423,5.6417,5.6665,5.7245,5.6781,5.6694,5.7274,5.7303,5.7303,5.7303,5.7303,5.7303,5.7274,5.7274,5.7274,5.7245,5.7216,5.6926,5.6316,5.4458,5.388,3.9345,3.985,3.9826,3.8575,3.8118,3.7591,3.5978,3.6001,3.6218,3.5472,3.6194,3.658,3.5403,3.5645,3.5669,3.4679,3.4631,3.451,0.0,3.3739,3.3717,3.4222,3.4102,3.3814,3.3332,3.3452,3.3092,3.2056,3.2947,3.3621,3.3766,3.427,3.528,3.6867,3.694,3.7276,3.8,3.8527,3.8788,3.8812,3.9898,4.0403,4.0403,4.096,4.1201,4.1201,4.1201,4.1321,4.1538,4.2428,4.2886,4.3126,4.3979,4.4285,4.4285,4.4285,4.4405,4.4604,4.4772,4.5262,4.6093,4.7839,4.904,4.9927,5.0572,5.1355,5.2082,5.2512,5.2619,5.2773,5.344,5.3592,5.3592,5.3592,5.3592,5.3646,5.3863,5.3727,5.3646,5.3863,5.3727,5.3592,5.3592,5.4263,5.4758,5.4548,5.4869,5.5221,5.5465,5.5671,5.5961,5.6337,5.605,5.6217,5.7217,5.71,5.71,5.7303,5.7303,5.7303,5.7303,5.7303,5.7303,5.7303,5.6926,5.6723,5.6723,5.6258,5.6171,5.6374,5.4865,5.449,4.0162,4.0403,4.0186,3.9293,3.8815,3.819,3.6771,3.6867,3.706,3.6314,3.6867,3.7084,3.5808,3.605,3.605,3.4967,3.4967,3.4895,0.0,3.4006,3.3958,3.4246,3.4102,3.3886,3.3597,3.3549,3.302,3.1789,3.2513,3.314,3.3453,3.3814,3.4895,3.6843,3.6771,3.7108,3.8,3.8334,3.8527,3.8527,3.9609,4.0114,4.0138,4.086,4.1201,4.1201,4.1201,4.1418,4.1803,4.2308,4.2837,4.3385,4.3835,4.4148,4.4285,4.4285,4.4285,4.4364,4.47,4.5015,4.5435,4.6495,4.7602,4.8627,4.9281,5.0059,5.0838,5.1413,5.1819,5.2253,5.2895,5.3349,5.3592,5.3592,5.3592,5.3592,5.3592,5.3592,5.3592,5.3592,5.3592,5.3592,5.3592,5.3917,5.4178,5.4191,5.4361,5.4593,5.4817,5.5026,5.5292,5.5701,5.5567,5.5905,5.6899,5.7187,5.7303,5.7303,5.71,5.7071,5.7303,5.71,5.7187,5.7652,5.7042,5.6723,5.6723,5.6084,5.5881,5.6026,5.4981,5.4693]},{"header":{"parameterUnit":"m.s-1","parameterCategory":1,"la1":30.6,"la2":29.2853,"lo1":-89.7004,"lo2":-87.6739,"dx":0.0162,"dy":0.0183,"nx":112,"ny":82,"refTime":"2023-01-19T06:00:00:Z","depth":0,"parameterNumber":3,"parameterNumberName":"V-component_of_WINDS"},"data":[0.0,0.0,0.0,0.0,0.0,0.0,0.0,0.0,0.0,0.0,0.0,0.0,0.0,0.0,0.0,0.0,0.0,0.0,0.0,0.0,0.0,0.0,0.0,0.0,0.0,0.0,0.0,0.0,0.0,0.0,0.0,0.0,0.0,0.0,0.0,0.0,0.0,0.0,0.0,0.0,0.0,0.0,0.0,0.0,0.0,0.0,0.0,0.0,0.0,0.0,0.0,0.0,0.0,0.0,0.0,0.0,0.0,0.0,0.0,0.0,0.0,0.0,0.0,0.0,0.0,0.0,0.0,0.0,0.0,0.0,0.0,0.0,0.0,0.0,0.0,0.0,0.0,0.0,0.0,0.0,0.0,0.0,0.0,0.0,0.0,0.0,0.0,0.0,0.0,0.0,1.1334,1.2073,1.3209,1.406,1.4423,1.3377,1.2694,1.2657,0.0,0.0,0.0,0.0,0.0,0.0,0.0,0.0,0.0,0.0,0.0,0.0,0.0,0.0,0.0,0.0,0.0,0.0,0.0,0.0,0.0,0.0,0.0,0.0,0.0,0.0,0.0,0.0,0.0,0.0,0.0,0.0,0.0,0.0,0.0,0.0,0.0,0.0,0.0,0.0,0.0,0.0,0.0,0.0,0.0,0.0,0.0,0.0,0.0,0.0,0.0,0.0,0.0,0.0,0.0,0.0,0.0,0.0,0.0,0.0,0.0,0.0,0.0,0.0,0.0,0.0,0.0,0.0,0.0,0.0,0.0,0.0,0.0,0.0,0.0,0.0,0.0,0.0,0.0,0.0,0.0,0.0,0.0,0.0,0.0,0.0,0.0,0.0,0.0,0.0,0.0,0.0,0.0,0.0,0.0,0.0,0.0,0.0,0.0,0.0,0.0,0.0,0.0,0.0,1.1608,1.2281,1.3283,1.3872,1.3853,1.3446,1.3237,1.3335,0.0,0.0,0.0,0.0,0.0,0.0,0.0,0.0,0.0,0.0,0.0,0.0,0.0,0.0,0.0,0.0,0.0,0.0,0.0,0.0,0.0,0.0,0.0,0.0,0.0,0.0,0.0,0.0,0.0,0.0,0.0,0.0,0.0,0.0,0.0,0.0,0.0,0.0,0.0,0.0,0.0,0.0,0.0,0.0,0.0,0.0,0.0,0.0,0.0,0.0,0.0,0.0,0.0,0.0,0.0,0.0,0.0,0.0,0.0,0.0,0.0,0.0,0.0,0.0,0.0,0.0,0.0,0.0,0.0,0.0,0.0,0.0,0.0,0.0,0.0,0.0,0.0,0.0,0.0,0.0,0.0,0.0,0.0,0.0,0.0,0.0,0.0,0.0,0.0,0.0,0.0,0.0,0.0,0.0,0.0,0.0,0.0,0.0,0.0,0.0,0.0,0.0,0.0,1.2701,1.3267,1.444,1.493,1.5086,1.4917,1.3899,1.3441,1.3747,1.2801,0.0,0.0,0.0,0.0,0.0,0.0,0.0,0.0,0.0,0.0,0.0,0.0,0.0,0.0,0.0,0.0,0.0,0.0,0.0,0.0,0.0,0.0,0.0,0.0,0.0,0.0,0.0,0.0,0.0,0.0,0.0,0.0,0.0,0.0,0.0,0.0,0.0,0.0,0.0,0.0,0.0,0.0,0.0,0.0,0.0,0.0,0.0,0.0,0.0,0.0,0.0,0.0,0.0,0.0,0.0,0.0,0.0,0.0,0.0,0.0,0.0,0.0,0.0,0.0,0.0,0.0,0.0,0.0,0.0,0.0,0.0,0.0,0.0,0.0,0.0,0.0,0.0,0.0,0.0,0.0,0.0,0.0,0.0,0.0,0.0,0.0,0.0,0.0,0.0,0.0,0.0,0.0,0.0,0.0,0.0,0.0,0.0,0.0,0.0,0.0,0.0,0.0,1.3954,1.4496,1.5893,1.6076,1.5938,1.5576,1.4271,1.3579,1.3868,1.2699,0.0,0.0,0.0,0.0,0.0,0.0,0.0,0.0,0.0,0.0,0.0,0.0,0.0,0.0,0.0,0.0,0.0,0.0,0.0,0.0,0.0,0.0,0.0,0.0,0.0,0.0,0.0,0.0,0.0,0.0,0.0,0.0,0.0,0.0,0.0,0.0,0.0,0.0,0.0,0.0,0.0,0.0,0.0,0.0,0.0,0.0,0.0,0.0,0.0,0.0,0.0,0.0,0.0,0.0,0.0,0.0,0.0,0.0,0.0,0.0,0.0,0.0,0.0,0.0,0.0,0.0,0.0,0.0,0.0,0.0,0.0,0.0,0.0,0.0,0.0,0.0,0.0,0.0,0.0,0.0,0.0,0.0,0.0,0.0,0.0,0.0,0.0,0.0,0.0,0.0,0.0,0.0,0.0,0.0,0.0,0.0,0.0,0.0,0.0,0.0,0.0,0.0,1.3892,1.4124,1.4923,1.544,1.5404,1.4585,1.4166,1.3835,1.355,1.2567,0.0,0.0,0.0,0.0,0.0,0.0,0.0,0.0,0.0,0.0,0.0,0.0,0.0,0.0,0.0,0.0,0.0,0.0,0.0,0.0,0.0,0.0,0.0,0.0,0.0,0.0,0.0,0.0,0.0,0.0,0.0,0.0,0.0,0.0,0.0,0.0,0.0,0.0,0.0,0.0,0.0,0.0,0.0,0.0,0.0,0.0,0.0,0.0,0.0,0.0,0.0,0.0,0.0,0.0,0.0,0.0,0.0,0.0,0.0,0.0,0.0,0.0,0.0,0.0,0.0,0.0,0.0,0.0,0.0,0.0,0.0,0.0,0.0,0.0,0.0,0.0,0.0,0.0,0.0,0.0,0.0,0.0,0.0,0.0,0.0,0.0,0.0,0.0,0.0,0.0,0.0,0.0,0.0,0.0,0.0,0.0,0.0,0.0,0.0,0.0,0.0,0.0,1.4879,1.5383,1.6063,1.6475,1.6324,1.5419,1.4509,1.4037,1.4111,0.0,0.0,0.0,0.0,0.0,0.0,0.0,0.0,0.0,0.0,0.0,0.0,0.0,0.0,0.0,0.0,0.0,0.0,0.0,0.0,0.0,0.0,0.0,0.0,0.0,0.0,0.0,0.0,0.0,0.0,0.0,0.0,0.0,0.0,0.0,0.0,0.0,0.0,0.0,0.0,0.0,0.0,0.0,0.0,0.0,0.0,0.0,0.0,0.0,0.0,0.0,0.0,0.0,0.0,0.0,0.0,0.0,0.0,0.0,0.0,0.0,0.0,0.0,0.0,0.0,0.0,0.0,0.0,0.0,0.0,0.0,0.0,0.0,0.0,0.0,0.0,0.0,0.0,0.0,0.0,0.0,0.0,0.0,0.0,0.0,0.0,0.0,0.0,0.0,0.0,0.0,0.0,0.0,0.0,0.0,0.0,0.0,0.0,0.0,0.0,0.0,0.0,1.4783,1.549,1.6155,1.6829,1.6872,1.6557,1.5797,1.4487,1.3832,1.4155,0.0,0.0,0.0,0.0,0.0,0.0,0.0,0.0,0.0,0.0,0.0,0.0,0.0,0.0,0.0,0.0,0.0,0.0,0.0,0.0,0.0,0.0,0.0,0.0,0.0,0.0,0.0,0.0,0.0,0.0,0.0,0.0,0.0,0.0,0.0,0.0,0.0,0.0,0.0,0.0,0.0,0.0,0.0,0.0,0.0,0.0,0.0,0.0,0.0,0.0,0.0,0.0,0.0,0.0,0.0,0.0,0.0,0.0,0.0,0.0,0.0,0.0,0.0,0.0,0.0,0.0,0.0,0.0,0.0,0.0,0.0,0.0,0.0,0.0,0.0,0.0,0.0,0.0,0.0,0.0,0.0,0.0,0.0,0.0,0.0,0.0,0.0,0.0,0.0,0.0,0.0,0.0,0.0,0.0,0.0,0.0,0.0,0.0,0.0,0.0,0.0,0.0,1.4827,1.5484,1.617,1.6844,1.6323,1.5768,1.5446,1.3926,1.3137,0.0,0.0,0.0,0.0,0.0,0.0,0.0,0.0,0.0,0.0,0.0,0.0,0.0,0.0,0.0,0.0,0.0,0.0,0.0,0.0,0.0,0.0,0.0,0.0,0.0,0.0,0.0,0.0,0.0,0.0,0.0,0.0,0.0,0.0,0.0,0.0,0.0,0.0,0.0,0.0,0.0,0.0,0.0,0.0,0.0,0.0,0.0,0.0,0.0,0.0,0.0,0.0,0.0,0.0,0.0,0.0,0.0,0.0,0.0,0.0,0.0,0.0,0.0,0.0,0.0,0.0,0.0,0.0,0.0,0.0,0.0,0.0,0.0,0.0,0.0,0.0,0.0,0.0,0.0,0.0,0.0,0.0,0.0,0.0,0.0,0.0,0.0,0.0,0.0,0.0,0.0,0.0,0.0,0.0,0.0,0.0,0.0,0.0,0.0,0.0,0.0,0.0,0.0,1.5163,1.6038,1.6763,1.715,1.6608,1.6111,1.5782,1.4058,1.3243,1.3818,0.0,0.0,0.0,0.0,0.0,0.0,0.0,0.0,0.0,0.0,0.0,0.0,0.0,0.0,0.0,0.0,0.0,0.0,0.0,0.0,0.0,0.0,0.0,0.0,0.0,0.0,0.0,0.0,0.0,0.0,0.0,0.0,0.0,0.0,0.0,0.0,0.0,0.0,0.0,0.0,0.0,0.0,0.0,0.0,0.0,0.0,0.0,0.0,0.0,0.0,0.0,0.0,0.0,0.0,0.0,0.0,0.0,0.0,0.0,0.0,0.0,0.0,0.0,0.0,0.0,0.0,0.0,0.0,0.0,0.0,0.0,0.0,0.0,0.0,0.0,0.0,0.0,0.0,0.0,0.0,0.0,0.0,0.0,0.0,0.0,0.0,0.0,0.0,0.0,0.0,0.0,0.0,0.0,0.0,0.0,0.0,0.0,0.0,0.0,0.0,0.0,0.0,1.5329,1.6155,1.6807,1.7106,1.6565,1.6067,1.5724,1.4029,1.3228,1.3774,0.0,0.0,0.0,0.0,0.0,0.0,0.0,0.0,0.0,0.0,0.0,0.0,0.0,0.0,0.0,0.0,0.0,0.0,0.0,0.0,0.0,0.0,0.0,0.0,0.0,0.0,0.0,0.0,0.0,0.0,0.0,0.0,0.0,0.0,0.0,0.0,0.0,0.0,0.0,0.0,0.0,0.0,0.0,0.0,0.0,0.0,0.0,0.0,0.0,0.0,0.0,0.0,0.0,0.0,0.0,0.0,0.0,0.0,0.0,0.0,0.0,0.0,0.0,0.0,0.0,0.0,0.0,0.0,0.0,0.0,0.0,0.0,0.0,0.0,0.0,0.0,0.0,0.0,0.0,0.0,0.0,0.0,0.0,0.0,0.0,0.0,0.0,0.0,0.0,0.0,0.0,0.0,0.0,0.0,0.0,0.0,0.0,0.0,0.0,0.0,0.0,0.0,1.5373,1.5994,1.6551,1.6903,1.6301,1.5768,1.5475,1.397,1.3184,1.3539,0.0,0.0,0.0,0.0,0.0,0.0,0.0,0.0,0.0,0.0,0.0,0.0,0.0,0.0,0.0,0.0,0.0,0.0,0.0,0.0,0.0,0.0,0.0,0.0,0.0,0.0,0.0,0.0,0.0,0.0,0.0,0.0,0.0,0.0,0.0,0.0,0.0,0.0,0.0,0.0,0.0,0.0,0.0,0.0,0.0,0.0,0.0,0.0,0.0,0.0,0.0,0.0,0.0,0.0,0.0,0.0,0.0,0.0,0.0,0.0,1.6454,1.6432,0.0,0.0,0.0,0.0,0.0,0.0,0.0,0.0,0.0,0.0,0.0,0.0,0.0,0.0,0.0,0.0,0.0,0.0,0.0,0.0,0.0,0.0,0.0,0.0,0.0,0.0,0.0,0.0,0.0,0.0,0.0,0.0,0.0,0.0,0.0,0.0,0.0,0.0,0.0,0.0,1.5709,1.6162,1.6616,1.7165,1.6425,1.587,1.5797,1.4326,1.3536,1.3876,1.3023,0.0,0.0,0.0,0.0,0.0,0.0,0.0,0.0,0.0,0.0,0.0,0.0,0.0,0.0,0.0,0.0,0.0,0.0,0.0,0.0,0.0,0.0,0.0,0.0,0.0,0.0,0.0,0.0,0.0,0.0,0.0,0.0,0.0,0.0,0.0,0.0,0.0,0.0,0.0,0.0,0.0,0.0,0.0,0.0,0.0,0.0,0.0,0.0,0.0,0.0,0.0,0.0,0.0,0.0,0.0,0.0,0.0,0.0,0.0,1.7584,1.7228,0.0,0.0,0.0,0.0,0.0,0.0,0.0,0.0,0.0,0.0,0.0,0.0,0.0,0.0,0.0,0.0,0.0,0.0,0.0,0.0,0.0,0.0,0.0,0.0,0.0,0.0,0.0,0.0,0.0,0.0,0.0,0.0,0.0,0.0,0.0,0.0,0.0,0.0,0.0,0.0,1.5812,1.6206,1.6572,1.707,1.6521,1.6009,1.5695,1.4487,1.3759,1.3759,1.3126,0.0,0.0,0.0,0.0,0.0,0.0,0.0,0.0,0.0,0.0,0.0,0.0,0.0,0.0,0.0,0.0,0.0,0.0,0.0,0.0,0.0,0.0,0.0,0.0,0.0,0.0,0.0,0.0,0.0,0.0,0.0,0.0,0.0,0.0,0.0,0.0,0.0,0.0,0.0,0.0,0.0,0.0,0.0,0.0,0.0,0.0,0.0,0.0,0.0,0.0,0.0,0.0,0.0,2.2169,2.2265,2.209,2.1766,2.1078,2.0081,1.906,1.8316,1.7886,1.8258,0.0,0.0,0.0,0.0,0.0,0.0,0.0,0.0,0.0,0.0,0.0,0.0,0.0,0.0,0.0,0.0,0.0,0.0,0.0,0.0,0.0,0.0,1.806,1.7933,1.8112,1.7937,1.6612,0.0,0.0,0.0,0.0,0.0,0.0,0.0,0.0,0.0,0.0,0.0,1.5921,1.6345,1.6691,1.6947,1.6675,1.6235,1.5622,1.4765,1.4096,1.3715,1.3301,1.3097,0.0,0.0,0.0,0.0,0.0,0.0,0.0,0.0,0.0,0.0,0.0,0.0,0.0,0.0,0.0,0.0,0.0,0.0,0.0,0.0,0.0,0.0,0.0,0.0,0.0,0.0,0.0,0.0,0.0,0.0,0.0,0.0,1.8713,1.8005,0.0,0.0,0.0,0.0,0.0,0.0,0.0,0.0,0.0,0.0,0.0,0.0,0.0,2.175,2.2209,2.2697,2.3279,2.3912,2.3787,2.4016,2.4487,2.2845,2.2021,2.1834,2.1284,0.0,1.9286,1.9909,0.0,0.0,0.0,0.0,0.0,0.0,0.0,0.0,0.0,0.0,0.0,0.0,0.0,0.0,0.0,0.0,0.0,0.0,0.0,0.0,0.0,0.0,1.8838,2.0044,2.0157,1.9847,1.9342,1.8144,1.7037,1.6612,1.6576,1.6484,0.0,0.0,0.0,0.0,0.0,0.0,1.6345,1.6974,1.7394,1.7261,1.6997,1.6683,1.6294,1.5628,1.4984,1.4404,1.3788,1.3433,1.3433,1.3199,0.0,0.0,0.0,0.0,0.0,0.0,0.0,0.0,0.0,0.0,0.0,0.0,0.0,0.0,0.0,0.0,0.0,0.0,0.0,0.0,0.0,0.0,0.0,0.0,0.0,0.0,0.0,0.0,0.0,1.9678,1.9915,1.9397,1.943,1.948,0.0,0.0,0.0,0.0,0.0,0.0,0.0,0.0,0.0,2.2582,2.3053,2.3389,2.3607,2.4638,2.5418,2.6002,2.6125,2.6252,2.6298,2.5031,2.4311,2.4068,2.3395,2.282,2.2364,2.1638,2.1455,2.163,0.0,0.0,0.0,0.0,2.2364,2.2615,2.2897,2.2997,2.2998,2.3163,0.0,0.0,0.0,0.0,0.0,0.0,0.0,2.0415,2.0969,2.1139,2.1342,2.1992,2.2208,2.2043,2.1215,2.0799,1.9904,1.7553,1.724,1.716,1.6551,1.6438,0.0,0.0,0.0,1.7017,1.7011,1.7364,1.7598,1.7569,1.6989,1.6484,1.614,1.5505,1.4862,1.4257,1.3949,1.37,1.3506,1.3536,1.3715,0.0,0.0,0.0,0.0,0.0,0.0,0.0,0.0,0.0,0.0,0.0,0.0,0.0,0.0,0.0,0.0,0.0,0.0,0.0,0.0,0.0,0.0,0.0,0.0,0.0,0.0,0.0,0.0,2.0726,2.0816,2.0442,2.062,2.0847,0.0,0.0,0.0,0.0,0.0,0.0,2.2774,2.3337,2.3881,2.4345,2.4932,2.5275,2.5395,2.678,2.7638,2.799,2.8524,2.865,2.8384,2.7487,2.6814,2.6385,2.5607,2.5319,2.5243,2.3443,2.2742,2.2732,2.2411,2.2575,2.3018,2.3018,2.3453,2.4053,2.4053,2.4053,2.4033,2.3929,2.3557,2.3101,2.2626,0.0,0.0,0.0,0.0,2.2034,2.2652,2.3072,2.3465,2.3968,2.4229,2.412,2.3103,2.3373,2.2692,1.9008,1.8494,1.8414,1.7589,1.7291,0.0,1.7132,1.7557,1.7924,1.8001,1.8225,1.8295,1.8043,1.7388,1.6706,1.6067,1.5563,1.4979,1.4267,1.4223,1.4077,1.3774,1.3993,1.4169,1.4223,0.0,0.0,0.0,0.0,0.0,0.0,0.0,0.0,0.0,0.0,0.0,0.0,0.0,0.0,0.0,0.0,0.0,0.0,0.0,0.0,0.0,0.0,0.0,0.0,0.0,0.0,0.0,0.0,0.0,2.0436,2.1178,0.0,0.0,0.0,0.0,2.306,2.3867,2.4362,2.4382,2.5251,2.5956,2.6431,2.7276,2.7934,2.8392,2.9327,2.9829,2.987,3.0808,3.1215,3.1161,2.9903,2.9066,2.8602,2.8126,2.7665,2.7122,2.5326,2.45,2.4382,2.4361,2.4383,2.4404,2.4404,2.4425,2.4466,2.4466,2.4466,2.4611,2.5482,2.5461,2.4984,2.4507,2.4094,0.0,0.0,2.3932,2.3709,2.4764,2.4405,2.4218,2.6023,2.6212,2.5864,2.5433,2.5357,2.443,2.1259,2.0688,2.0454,1.9593,0.0,1.8392,1.8322,1.8985,1.9474,1.9405,2.0069,2.0022,1.8692,1.8521,1.7907,1.6499,1.6338,1.5891,1.4915,1.4856,1.473,1.4448,1.4482,1.4589,1.4842,1.4604,0.0,0.0,0.0,0.0,0.0,0.0,0.0,0.0,0.0,0.0,0.0,0.0,0.0,0.0,0.0,0.0,0.0,0.0,0.0,0.0,0.0,0.0,0.0,0.0,0.0,0.0,0.0,0.0,2.2604,2.2956,0.0,2.3288,2.337,2.3701,2.4425,2.5068,2.5668,2.6268,2.6868,2.7552,2.8297,2.8649,2.9187,2.9932,3.0284,3.0594,3.0911,3.1243,3.1408,3.1381,3.0354,2.995,2.9962,2.8913,2.8525,2.8549,2.7611,2.6836,2.6268,2.5958,2.5854,2.5854,2.5854,2.6227,2.6659,2.6392,2.6289,2.6206,2.5647,2.5128,2.4714,2.4549,2.4383,2.4384,2.4839,2.4995,2.5235,2.5933,2.6066,2.6219,2.6901,2.6972,2.6675,2.6036,2.6282,2.6091,2.4132,2.3017,2.2195,2.1696,2.1382,2.1021,2.0477,2.0827,2.0934,2.0285,2.0514,2.0385,1.9532,1.906,1.8349,1.7266,1.6784,1.6266,1.5724,1.5483,1.5212,1.4901,1.4886,1.4894,1.49,1.4633,1.4697,0.0,0.0,0.0,0.0,0.0,0.0,0.0,0.0,0.0,0.0,0.0,0.0,0.0,0.0,0.0,0.0,0.0,0.0,0.0,0.0,0.0,0.0,0.0,0.0,0.0,2.3101,2.4012,2.4302,2.4758,2.5089,2.519,2.5131,2.5337,2.6059,2.6558,2.7161,2.7928,2.838,2.898,2.9746,2.9932,3.0305,3.0932,3.1071,3.1298,3.1609,3.1754,3.1836,3.1836,3.1258,3.1042,3.1106,3.0208,2.9902,2.9973,2.9684,2.9104,2.8363,2.7596,2.7286,2.7286,2.7286,2.7634,2.8086,2.7845,2.7741,2.7596,2.6638,2.6038,2.5666,2.5666,2.5563,2.5501,2.5834,2.6123,2.6436,2.677,2.7081,2.7309,2.7309,2.7389,2.7369,2.6818,2.7231,2.7469,2.6633,2.5117,2.3858,2.3476,2.322,2.2866,2.234,2.2346,2.2173,2.1526,2.1369,2.1055,2.0257,1.9756,1.9055,1.7945,1.7266,1.6799,1.6521,1.6144,1.5787,1.5451,1.5435,1.5323,1.5061,1.4794,1.4896,1.5402,0.0,0.0,0.0,0.0,0.0,0.0,0.0,0.0,0.0,0.0,0.0,0.0,0.0,0.0,0.0,0.0,0.0,0.0,0.0,0.0,0.0,0.0,0.0,2.2604,2.4903,2.627,2.5397,2.6496,2.7161,2.6726,2.7123,2.7555,2.7941,2.8396,2.8876,2.9352,2.9787,3.0263,3.0766,3.1181,3.1429,3.1471,3.1809,3.2016,3.2036,3.2491,3.2698,3.2698,3.2698,3.245,3.2036,3.2016,3.1767,3.1429,3.1408,3.1139,3.0574,2.9208,2.8669,2.8624,2.8624,2.8624,2.8603,2.8603,2.8603,2.8582,2.8582,2.8293,2.7921,2.7921,2.7655,2.7351,2.7351,2.733,2.733,2.7351,2.733,2.733,2.7351,2.7634,2.7921,2.7921,2.8272,2.8582,2.8582,2.6956,2.5454,2.5013,2.438,2.3919,2.382,2.3528,0.0,2.3169,2.2826,2.2136,2.0889,2.0758,2.0097,1.8498,1.7937,1.7559,1.7345,1.6894,1.648,1.6144,1.6128,1.588,1.5402,1.5096,1.5096,1.5402,0.0,0.0,0.0,0.0,0.0,0.0,0.0,0.0,0.0,0.0,0.0,0.0,0.0,0.0,0.0,0.0,0.0,0.0,0.0,0.0,0.0,2.6065,2.6624,2.5178,2.5918,2.6747,2.7114,2.811,2.869,2.8566,2.898,2.9435,2.9891,3.0036,3.0325,3.0808,3.0953,3.136,3.2119,3.165,3.1864,3.2838,3.2284,3.2181,3.2512,3.2636,3.2698,3.2698,3.2698,3.2636,3.2491,3.216,3.1933,3.1809,3.1505,3.1326,3.1139,3.0408,2.9911,2.9622,2.9622,2.9415,2.9125,2.9125,2.8872,2.8582,2.8582,2.85,2.8396,2.8396,2.8338,2.8235,2.8235,2.8007,2.7821,2.8152,2.7986,2.7821,2.8152,2.8338,2.8396,2.8396,2.85,2.8582,2.8582,2.8124,2.7713,2.759,2.7378,2.7066,2.6456,2.6071,2.5381,2.4194,2.3687,2.305,2.2161,2.1832,2.1223,2.0137,1.9213,1.8517,1.8126,1.7516,1.713,1.7053,1.671,1.619,1.5402,1.5645,1.5645,0.0,0.0,0.0,0.0,0.0,0.0,0.0,0.0,0.0,0.0,0.0,0.0,0.0,0.0,0.0,0.0,0.0,0.0,0.0,0.0,0.0,0.0,2.8162,2.9092,2.8711,2.8673,2.888,2.94,2.9881,3.018,3.018,3.0594,3.0965,3.1297,3.1728,3.2064,3.2287,3.2754,3.3001,3.2975,3.3204,3.3338,3.3397,3.3158,3.3088,3.3285,3.2884,3.2801,3.2996,3.2781,3.2698,3.2698,3.2429,3.2305,3.2284,3.2043,3.1836,3.1588,0.0,0.0,0.0,0.0,2.9829,2.9601,2.9601,2.9415,2.9187,2.9187,2.9187,2.9145,2.8959,2.8897,2.8831,2.8669,2.8396,2.8251,2.852,2.8396,2.8251,2.8545,2.8748,2.8897,2.8897,2.9063,2.9187,2.9187,2.9187,0.0,2.9187,2.8876,2.8368,2.7765,2.7325,2.6596,2.5328,2.4477,2.3695,2.2927,2.2346,2.166,2.0846,2.0108,0.0,0.0,0.0,1.7815,1.742,1.6955,0.0,0.0,0.0,1.5859,1.5402,1.5402,0.0,0.0,1.5315,1.5315,0.0,0.0,0.0,0.0,0.0,0.0,0.0,0.0,0.0,0.0,0.0,0.0,0.0,0.0,0.0,0.0,2.9823,3.0973,3.2685,3.2514,3.2089,3.1886,3.1807,3.1794,3.1836,3.2225,3.2504,3.2633,3.3463,3.3933,3.3884,3.4838,0.0,0.0,0.0,3.5272,3.3797,3.4307,3.4477,3.4289,3.341,3.3165,3.3547,3.3087,3.2863,3.2863,3.2863,3.2822,3.2781,3.2781,3.2471,3.1933,3.1091,3.0787,3.0725,3.0243,3.0077,3.0056,3.0015,0.0,0.0,2.9994,2.9994,2.9911,2.9497,2.9373,2.929,2.8876,2.8706,2.8711,2.8727,2.8773,2.8773,2.8773,2.9125,2.9456,2.9394,2.9704,2.9994,2.9994,2.9994,2.9994,2.9994,2.9311,2.8644,2.8287,2.7864,2.7306,2.6531,2.5398,2.4382,2.3633,2.273,0.0,2.1397,2.0922,2.0331,1.9613,1.9183,1.8542,1.7644,1.7282,1.6887,1.6464,1.6573,1.6381,1.5923,1.584,1.5756,1.5714,1.5509,1.5402,0.0,0.0,0.0,0.0,0.0,0.0,0.0,0.0,0.0,0.0,0.0,0.0,0.0,0.0,0.0,3.0398,3.2721,3.466,3.5458,3.573,3.5268,3.3639,3.378,3.4131,3.45,3.4977,3.5244,3.525,3.5453,3.5562,3.5533,3.5736,3.5925,3.6053,3.6027,3.6005,3.6075,3.5801,3.5649,3.562,3.4915,0.0,3.4664,3.408,3.3832,3.3832,3.3832,3.3596,3.3244,3.3244,3.2768,3.1953,3.1443,3.1263,3.1222,3.0745,3.0553,3.0491,3.0118,2.9994,2.9994,2.9994,2.9994,2.9973,2.9891,2.987,0.0,2.9746,2.9456,2.9249,2.9622,2.9725,2.9725,2.9725,3.0077,3.0325,2.9953,2.9932,2.9994,2.9994,2.9994,2.9994,2.9994,2.9849,2.9694,2.9641,2.9224,2.8655,2.7857,2.6912,2.6151,2.5666,2.4284,2.3581,2.4083,2.2584,2.1694,2.1842,2.0668,1.9632,1.8955,1.9303,1.927,1.8689,1.938,1.954,1.912,1.8523,1.8033,1.7632,1.6121,1.5402,0.0,0.0,0.0,0.0,0.0,0.0,0.0,0.0,0.0,0.0,0.0,2.6601,2.7744,0.0,3.1515,3.3013,3.4942,3.6434,3.6994,3.7223,3.6872,3.5569,3.5342,3.5385,3.5625,3.6056,3.6377,3.6454,3.6897,3.7045,3.6801,3.7345,3.7361,3.6713,3.7332,3.7361,3.6713,3.6795,3.6795,3.6691,3.5887,3.5625,3.5841,3.531,3.488,3.4555,3.4555,3.4252,3.375,3.375,3.3356,3.2706,3.2755,3.2196,3.1388,3.1139,3.0911,3.0704,3.0704,3.0559,3.0346,3.0346,3.0491,3.0663,3.0408,3.0512,3.0704,3.0704,3.0512,3.0387,3.0636,3.0704,3.0704,3.0704,3.0891,3.0994,3.0766,3.0704,3.0704,3.0704,3.0491,3.0346,3.0346,3.0139,2.9994,2.9994,2.9808,2.9405,2.8792,2.7758,2.6956,2.6554,2.5182,2.4368,2.4576,2.3121,2.2333,2.2681,2.1471,2.0613,2.0304,2.0575,2.05,1.9968,2.0377,2.0385,2.0006,1.9625,1.9328,1.9072,1.7997,1.7181,0.0,0.0,0.0,0.0,0.0,0.0,0.0,2.5417,2.6152,2.6152,2.7438,2.8976,3.0285,3.1915,3.3637,3.5382,3.6571,3.7443,3.7885,3.8022,3.7897,3.7437,3.6856,3.6544,3.6632,3.6979,3.7251,3.7344,3.8064,3.8327,3.7952,3.8814,3.866,3.7251,3.8578,3.863,3.72,3.7723,3.7925,3.7766,3.6883,3.6648,3.6992,3.6509,3.5982,3.5481,3.5374,3.5058,3.4613,3.4464,3.4134,3.3759,3.412,3.3294,3.1906,3.174,3.1402,3.1112,3.1326,3.116,3.0849,3.0849,3.1098,3.1326,3.0953,3.1118,3.1408,3.1408,3.1408,3.1408,3.1408,3.1471,3.1485,3.1429,3.1471,3.1512,3.1429,3.1408,3.1408,3.1408,3.1098,3.0849,3.0849,3.0512,3.0201,3.0015,2.9994,2.987,2.9477,2.8462,2.7612,2.7197,2.6025,2.5071,2.4574,2.3782,2.3264,2.321,2.2344,2.1797,2.1671,2.1701,2.1572,2.1267,2.1322,2.1212,2.0856,2.0747,2.0622,2.0516,2.0346,1.9509,2.5716,2.4958,2.443,2.4751,2.5169,2.567,0.0,2.7022,2.7757,2.7757,2.9297,3.0859,3.1502,3.3568,3.5405,3.6098,3.7448,3.8436,3.8481,3.8872,3.9095,3.9036,3.8611,3.8462,3.8873,3.8964,3.9017,3.9007,3.9121,3.9167,3.9098,3.9233,3.9226,3.901,3.9197,3.9226,3.901,3.9069,3.9092,3.9101,3.8372,3.8052,3.8119,3.7514,3.7221,3.7109,3.6703,3.6477,3.6359,3.5785,3.524,3.4829,3.4747,3.433,3.3708,3.2871,3.2512,3.2367,3.165,3.1367,3.1326,3.1326,3.1367,3.1388,3.1346,3.1367,3.1408,3.1408,3.1408,3.1408,3.1408,3.1671,3.1829,3.1464,3.1671,3.1829,3.1491,3.1408,3.1408,3.1408,3.1367,3.1326,3.1326,3.1284,3.0973,3.0118,2.9994,2.9973,2.9932,2.9441,2.8915,2.8462,2.7316,2.6251,2.533,2.5811,2.5612,2.44,2.404,2.3611,2.3002,2.315,2.3348,2.3514,2.3881,2.4023,2.4001,2.34,2.286,2.2386,2.2599,2.1509,2.5903,2.5375,2.5119,2.5306,2.6221,2.7093,2.732,2.8377,2.9366,2.9688,3.1134,3.2673,3.3752,3.5263,3.664,3.7522,3.839,3.901,3.901,3.917,3.9078,3.8504,3.8757,3.9078,3.9285,3.9308,3.9308,3.9308,3.9308,3.9308,3.9308,3.9308,3.9308,3.9308,3.9308,3.9308,3.9308,3.9308,3.9308,3.9308,3.9012,3.8894,3.8864,3.8604,3.8276,3.7886,3.7336,3.6945,3.6705,3.669,3.6157,3.5435,3.5652,3.5603,3.5269,3.3992,3.3348,3.3099,3.3004,3.2797,3.2527,3.225,3.252,3.2817,3.2002,3.2126,3.2569,3.2569,3.2354,3.223,3.2507,3.2499,3.2367,3.2209,3.2499,3.2768,3.261,3.2776,3.2962,3.2962,3.2755,3.2569,3.2569,3.2106,3.1629,3.1209,3.0739,3.0408,3.0408,2.9766,2.9125,2.8644,2.8143,2.7577,2.6903,2.6951,2.6643,2.5771,2.538,2.5071,2.4778,2.4598,2.4556,2.4653,2.4549,2.4507,2.4507,2.4228,2.397,2.3756,2.3754,2.3349,2.5903,2.5807,2.606,2.6611,2.7805,2.8884,2.9181,3.0285,3.134,3.1754,3.304,3.444,3.552,3.6525,3.7512,3.8436,3.8872,3.9193,3.9469,3.94,3.9033,3.8298,3.8619,3.8941,3.9078,3.9216,3.9308,3.9308,3.9308,3.9308,3.9308,3.9308,3.9308,3.9308,3.9308,3.9308,3.9308,3.9308,3.9308,3.9308,3.9308,3.9308,3.9308,3.9308,3.9042,3.8544,3.8096,3.7717,3.7436,3.7582,3.7178,3.6415,3.6608,3.6698,3.6551,3.5426,3.4601,3.4047,3.4078,3.3874,3.3542,3.3203,3.3534,3.3915,3.2892,3.3058,3.3605,3.3605,3.3348,3.3161,3.3492,3.3327,3.3099,3.3099,3.3348,3.3605,3.3605,3.3853,3.4102,3.4102,3.3832,3.3605,3.3605,3.2913,3.2388,3.2388,3.1629,3.1008,3.0911,3.0077,2.9311,2.8856,2.869,2.8458,2.8127,2.7696,2.7265,2.6809,2.6353,2.6043,2.5918,2.5564,2.5397,2.5397,2.5066,2.488,2.488,2.488,2.488,2.488,2.4748,2.4847,2.5696,2.608,2.693,2.8884,3.017,3.118,3.2121,3.3155,3.3889,3.3912,3.5156,3.6213,3.6259,3.7109,3.7953,3.8504,3.8596,3.897,3.9935,3.9636,3.9285,3.9262,3.8413,3.8074,3.855,3.9033,3.9308,3.9308,3.9308,3.9308,3.9308,3.9308,3.9308,3.9308,3.9308,3.9308,3.9308,3.9308,3.9308,3.9308,3.9308,3.9308,3.9308,3.9308,3.9279,3.9279,3.9249,3.9226,3.9167,3.8514,3.8246,3.8156,3.7585,3.7374,3.7374,3.7322,3.6574,3.5494,3.4456,3.4081,3.4081,3.406,3.4081,3.4081,3.404,3.406,3.4081,3.4081,3.406,3.406,3.4081,3.406,3.406,3.406,3.406,3.4081,3.4081,3.4081,3.4102,3.4102,3.4081,3.4081,3.4081,3.3687,3.3377,3.3377,3.2553,3.1809,3.145,3.0553,2.9787,2.9332,2.8851,2.8582,2.8562,2.8148,2.7717,2.7286,2.6853,2.6374,2.5918,2.5897,2.5877,2.5877,2.5877,2.5856,2.5856,2.5856,2.5856,2.5856,2.5856,2.5877,2.6614,2.8059,2.9711,3.0698,3.2414,3.3778,3.3533,3.4462,3.5192,3.4811,3.5137,3.5489,3.5489,3.6306,3.7123,3.7481,3.8137,3.8832,3.9469,3.94,3.8941,3.7902,3.8114,3.8005,3.7155,3.7816,3.8573,3.9262,3.9308,3.9308,3.9308,3.9659,3.9682,3.9308,3.9951,3.9974,3.9308,3.9659,3.9659,3.9308,3.9308,3.9308,3.9308,3.9308,3.9308,3.9308,3.9308,3.9308,3.9279,3.9072,3.8716,3.8276,3.8066,3.8006,3.7946,3.7555,3.7415,3.7322,3.6548,3.5994,3.5559,3.5242,3.5077,3.4859,3.4288,3.4309,3.4558,3.4558,3.433,3.4164,3.4475,3.433,3.4102,3.4102,3.433,3.4558,3.4558,3.4755,3.4962,3.4962,3.4962,3.4962,3.4962,3.4341,3.3667,3.3037,3.2408,3.185,3.145,3.087,3.0387,3.0243,2.9808,2.9415,2.9104,2.8938,2.8524,2.7759,2.7552,2.7262,2.6853,2.6519,2.6353,2.6353,2.6063,2.5897,2.5897,2.5897,2.5897,2.5897,2.5897,2.6063,2.8556,3.035,3.1984,3.2648,3.4477,3.5949,3.5383,3.5991,3.6507,3.5926,3.5805,3.5585,3.4929,3.5494,3.6109,3.6202,3.6805,3.7655,3.8872,3.9055,3.8826,3.8183,3.839,3.8281,3.7453,3.7793,3.8344,3.8987,3.9216,3.9308,3.9308,3.9636,3.9751,3.9584,4.0203,4.0318,3.9859,4.0158,4.0096,3.9584,3.9584,3.9469,3.9308,3.9308,3.9308,3.9308,3.9308,3.9308,3.9308,3.9308,3.9042,3.8656,3.8656,3.8656,3.8633,3.8604,3.8819,3.899,3.7826,3.7102,3.6694,3.6424,3.6076,3.5652,3.5098,3.4967,3.5013,3.5013,3.4806,3.4631,3.4951,3.4806,3.4548,3.4548,3.4776,3.5013,3.5013,3.5231,3.5387,3.5387,3.5387,3.5387,3.5387,3.4672,3.3853,3.3078,3.2553,3.2098,3.1671,3.1215,3.0891,3.0725,3.0263,2.987,2.958,2.9394,2.9042,2.8438,2.8231,2.7966,2.7534,2.722,2.6996,2.6851,2.654,2.6395,2.6395,2.6395,2.6395,2.6395,2.6395,2.656,3.1351,3.291,3.3857,3.4771,3.6356,3.7655,3.7578,3.7752,3.7758,3.7169,3.6946,3.6355,3.458,3.4694,3.5034,3.4921,3.4903,3.5795,3.8298,3.87,3.9051,3.9979,3.9258,3.8867,3.9363,3.893,3.87,3.8839,3.916,3.9377,3.9331,3.94,3.9629,4.0119,4.0188,4.0417,4.0793,4.0793,4.0571,4.0096,4.0119,3.9843,3.9308,3.9331,3.9331,3.9308,3.9308,3.9308,3.9308,3.9367,3.9367,3.9397,3.9426,3.9455,3.955,4.0455,4.0774,4.0461,3.8343,3.7616,3.7585,3.7585,3.7102,3.6514,3.6484,3.6003,3.5479,3.5448,3.5448,3.5448,3.5448,3.5418,3.5387,3.5387,3.5387,3.5387,3.5387,3.5407,3.5428,3.5387,3.5387,3.5387,3.5366,3.4672,3.3957,3.348,3.3037,3.2574,3.2098,3.1692,3.1263,3.0801,3.0325,3.0036,3.0036,2.9601,2.9332,2.9311,2.8897,2.8417,2.7962,2.7941,2.7759,2.7351,2.7348,2.7327,2.7309,2.733,2.733,2.7309,2.7309,2.7309,3.3422,3.5785,3.8137,3.8112,3.9053,3.9759,3.8708,3.8335,3.7789,3.636,3.5712,3.5065,3.3851,3.4221,3.5041,3.5975,3.6329,3.7219,3.9406,4.0001,4.0103,3.9985,4.008,4.0349,4.0825,3.9807,3.9878,4.174,4.0974,4.0272,3.9912,4.0624,4.0869,4.064,4.1352,4.1466,4.0793,4.0793,4.0571,4.0096,4.0433,4.0158,3.9308,3.9728,3.9682,3.9308,3.9308,3.9308,3.9367,4.0048,4.0339,4.0426,4.1067,4.1301,4.1329,4.1558,4.1672,4.1586,4.1043,4.0529,4.0176,4.0176,3.9216,3.8029,3.7572,3.7171,3.6798,3.63,3.6147,3.6147,3.6147,3.5757,3.5387,3.5387,3.5387,3.5387,3.5387,3.5656,3.58,3.5469,3.5387,3.5283,3.4983,3.4765,3.433,3.3522,3.3315,3.3058,3.2574,3.214,3.1809,3.1685,3.0988,3.0512,3.0512,3.0077,2.9684,2.9332,2.9187,2.8918,2.8438,2.8417,2.8214,2.7759,2.809,2.7969,2.7309,2.7593,2.7593,2.7309,2.7309,2.7309,3.6785,3.8721,4.034,3.987,4.0519,4.0866,3.9316,3.8715,3.7899,3.5926,3.5285,3.4492,3.2587,3.314,3.4335,3.5558,3.5727,3.6782,3.9948,4.0592,4.0864,4.121,4.1931,4.2472,4.2704,4.2049,4.2088,4.325,4.1578,4.0668,4.1051,4.1161,4.1214,4.1145,4.1696,4.1834,4.1458,4.1901,4.1646,4.0762,4.1444,4.1135,3.9974,4.0073,4.0121,4.0205,3.9995,4.0135,4.0519,4.1038,4.1268,4.1325,4.1814,4.1984,4.204,4.246,4.2628,4.2684,4.3075,4.2967,4.2547,4.1757,4.0702,3.9692,3.9363,3.8655,3.7872,3.7511,3.711,3.6789,3.6484,3.6264,3.607,3.579,3.5842,3.6007,3.6007,3.6225,3.6287,3.578,3.5728,3.5583,3.5128,3.491,3.462,3.4081,3.3667,3.3285,3.3037,3.2408,3.2016,3.2016,3.1402,3.0932,3.0725,3.045,3.0098,2.9642,2.9601,2.9497,2.9228,2.9021,2.8768,2.85,2.8562,2.8359,2.7886,2.811,2.809,2.7886,2.7886,2.7886,4.0306,4.1349,4.1613,4.0908,4.1202,4.1229,3.9625,3.8654,3.756,3.5495,3.4946,3.4037,3.1447,3.2154,3.361,3.5042,3.4849,3.604,4.0459,4.1115,4.1653,4.3006,4.3999,4.4665,4.4858,4.465,4.4477,4.4376,4.2067,4.1188,4.2334,4.1635,4.1399,4.1869,4.1767,4.1942,4.2475,4.3232,4.3005,4.1807,4.2666,4.2437,4.1198,4.0764,4.0956,4.1577,4.1075,4.1296,4.2012,4.2125,4.2182,4.2182,4.2294,4.2351,4.2463,4.327,4.3547,4.3657,4.445,4.4695,4.445,4.2855,4.1927,4.1386,4.1301,4.0245,3.9157,3.9115,3.8589,3.7854,3.7214,3.72,3.721,3.652,3.6578,3.6804,3.6804,3.6804,3.6701,3.637,3.6204,3.5945,3.5552,3.5148,3.4848,3.4806,3.4102,3.3563,3.3501,3.2657,3.207,3.207,3.1733,3.1298,3.0905,3.0787,3.0512,3.0118,3.0036,2.9994,2.9994,2.9622,2.9394,2.9394,2.9001,2.8773,2.8686,2.8686,2.8644,2.8582,2.8582,2.8582,4.1361,4.2637,4.3812,4.2491,4.1772,4.1046,3.9798,3.726,3.492,3.4058,3.3097,3.2391,3.2368,3.2851,3.4346,3.7715,3.7662,3.8445,4.1952,4.2733,4.3212,4.3991,4.4583,4.5414,4.6682,4.5392,4.5305,4.7279,4.5151,4.3476,4.2912,4.3125,4.334,4.3434,4.2589,4.2603,4.3521,4.2886,4.263,4.2749,4.3384,4.3527,4.3276,4.3065,4.2856,4.2621,4.203,4.1842,4.2069,4.2852,4.3159,4.3215,4.3932,4.4206,4.4259,4.4423,4.4478,4.4505,4.4641,4.4695,4.4641,4.4341,4.3657,4.2908,4.2326,4.1817,4.143,4.1348,4.1234,4.1029,4.0546,3.9691,3.8682,3.772,3.7137,3.6804,3.6804,3.6804,3.6887,3.7198,3.6639,3.6048,3.5997,3.5604,3.519,3.4848,3.464,3.4413,3.4019,3.3161,3.2574,3.2574,3.2181,3.1871,3.1788,3.1112,3.0683,3.0574,3.0201,2.9994,2.9994,2.9911,2.987,2.987,2.9787,2.9559,2.9187,2.9187,2.898,2.8582,2.8582,2.8582,4.3532,4.4353,4.4899,4.3893,4.245,4.0853,3.9128,3.6488,3.3979,3.2542,3.2254,3.2059,3.1409,3.2617,3.454,3.7066,3.6972,3.7981,4.2025,4.2798,4.3482,4.4954,4.6049,4.695,4.7696,4.6968,4.6923,4.8088,4.7093,4.5998,4.496,4.4707,4.4576,4.4576,4.4113,4.4082,4.4576,4.4583,4.4462,4.422,4.4951,4.5047,4.4585,4.3905,4.3721,4.3965,4.3415,4.3297,4.3487,4.4573,4.4845,4.4613,4.534,4.5637,4.5637,4.5637,4.5454,4.5217,4.5532,4.5454,4.5217,4.5532,4.4916,4.4092,4.407,4.3644,4.3262,4.3503,4.3246,4.2763,4.2227,4.1405,4.0417,3.9216,3.8209,3.7591,3.7786,3.7695,3.7591,3.7819,3.7301,3.6763,3.6515,3.6287,3.5976,3.5542,3.5252,3.4972,3.4516,3.3874,3.3327,3.3099,3.2636,3.2284,3.2036,3.1829,3.165,3.1374,3.0967,3.0822,3.1023,3.0367,3.0222,3.0725,3.047,3.0367,3.0387,3.0387,3.0139,2.9684,2.9684,2.9559,4.5087,4.54,4.5243,4.4512,4.2605,4.0383,3.8214,3.56,3.3169,3.1384,3.1515,3.1649,3.0586,3.2281,3.4343,3.6009,3.61,3.7442,4.1736,4.2608,4.3606,4.5776,4.7215,4.8041,4.8201,4.8201,4.8201,4.8201,4.8201,4.7762,4.6734,4.5803,4.5403,4.5586,4.5403,4.5403,4.5616,4.6105,4.6105,4.5616,4.6345,4.6405,4.5894,4.4842,4.4798,4.5467,4.4988,4.4894,4.5166,4.6107,4.6212,4.5818,4.629,4.6501,4.6501,4.6501,4.6186,4.5872,4.6316,4.6186,4.5872,4.6342,4.5846,4.5165,4.5635,4.5292,4.486,4.5425,4.5088,4.4356,4.3568,4.299,4.2218,4.0529,3.9407,3.8766,3.8916,3.8613,3.8336,3.8336,3.7881,3.7384,3.7011,3.6867,3.668,3.6308,3.5842,3.5438,3.5117,3.4599,3.4102,3.375,3.3182,3.2698,3.2326,3.245,3.2408,3.2008,3.1629,3.1526,3.185,3.076,3.0532,3.1388,3.0953,3.0932,3.1408,3.1408,3.1222,3.087,3.087,3.0636,4.446,4.4773,4.4512,4.3415,4.143,3.9285,3.7508,3.4084,3.1254,3.1044,3.026,3.0014,3.1381,3.2293,3.374,3.6478,3.7349,3.873,4.1797,4.3101,4.4431,4.623,4.6991,4.7594,4.8146,4.8201,4.8201,4.8201,4.8201,4.7762,4.6734,4.5803,4.5707,4.6525,4.5737,4.5707,4.6555,4.5803,4.5803,4.6555,4.6645,4.7146,4.7912,4.7259,4.7002,4.7062,4.6543,4.6312,4.6344,4.6449,4.6475,4.6423,4.6475,4.6501,4.6501,4.6501,4.6475,4.6449,4.6475,4.6475,4.6449,4.6475,4.6423,4.6316,4.6423,4.6367,4.6413,4.6958,4.7057,4.6672,4.5379,4.4894,4.4024,4.1194,4.0456,4.0214,3.9557,3.9089,3.8758,3.8758,3.8088,3.7488,3.7446,3.7074,3.6784,3.6742,3.6349,3.6039,3.5997,3.5262,3.4703,3.4661,3.3874,3.3335,3.3294,3.2512,3.2057,3.2016,3.1629,3.1429,3.1443,3.0932,3.0891,3.1388,3.0953,3.0932,3.1408,3.1408,3.1388,3.1346,3.1346,3.1326,4.4198,4.4956,4.4956,4.3833,4.1559,3.905,3.6933,3.388,3.1294,3.0589,3.0372,3.0634,3.1615,3.2574,3.3718,3.5208,3.5626,3.6567,3.8762,4.0043,4.1794,4.4618,4.5741,4.6758,4.8068,4.8201,4.8201,4.8201,4.8201,4.8026,4.7619,4.7235,4.7205,4.7589,4.7235,4.7205,4.7589,4.7235,4.7235,4.7589,4.7589,4.7821,4.8172,4.7568,4.7307,4.7307,4.7072,4.6787,4.6554,4.726,4.731,4.7022,4.7362,4.7521,4.7521,4.7521,4.7283,4.7048,4.7388,4.7283,4.7048,4.7388,4.7521,4.7469,4.71,4.6996,4.71,4.7675,4.7832,4.7788,4.762,4.652,4.5047,4.3322,4.2114,4.1312,4.1263,4.0554,3.9959,4.0254,3.9187,3.8282,3.8282,3.8117,3.7827,3.7301,3.7301,3.7156,3.6597,3.5976,3.5562,3.5562,3.4537,3.3708,3.3439,3.3335,3.3141,3.2871,3.2437,3.2188,3.2188,3.1485,3.1222,3.1408,3.1464,3.1561,3.1747,3.2036,3.2043,3.1747,3.1747,3.1629,4.3101,4.4251,4.4564,4.3415,4.1219,3.8736,3.641,3.375,3.1536,3.0563,3.0563,3.1026,3.1895,3.2777,3.3561,3.4267,3.4554,3.526,3.7011,3.8266,4.0069,4.3049,4.4382,4.5715,4.7283,4.7885,4.8201,4.8201,4.8201,4.8306,4.8463,4.8306,4.8201,4.8201,4.8201,4.8201,4.8201,4.8201,4.8201,4.8201,4.8201,4.8201,4.8201,4.778,4.7568,4.7568,4.7568,4.7362,4.7077,4.7887,4.7937,4.7594,4.8015,4.8201,4.8201,4.8201,4.7937,4.762,4.8041,4.7911,4.7675,4.825,4.8489,4.8407,4.8172,4.796,4.7934,4.8538,4.8492,4.8384,4.9006,4.7745,4.611,4.5066,4.3878,4.2915,4.2645,4.1847,4.1165,4.1265,4.0211,3.9244,3.904,3.8903,3.8592,3.7984,3.7943,3.7736,3.7094,3.6597,3.6266,3.6121,3.5252,3.4454,3.3874,3.3874,3.375,3.3418,3.2975,3.2698,3.2698,3.1981,3.1629,3.1774,3.1933,3.2078,3.2222,3.2553,3.2533,3.2222,3.2222,3.2057,4.0855,4.2161,4.2736,4.1612,3.9993,3.8109,3.5835,3.3488,3.1641,3.1104,3.0511,3.0641,3.2359,3.2698,3.3064,3.4214,3.4894,3.5887,3.7665,3.8893,4.0252,4.2003,4.3206,4.4383,4.5505,4.7179,4.8201,4.8201,4.8201,4.8463,4.9064,4.8512,4.8201,4.8201,4.8201,4.8201,4.8201,4.8201,4.8201,4.8201,4.8201,4.8201,4.8201,4.8201,4.8201,4.8201,4.8201,4.8201,4.8172,4.8201,4.8201,4.8201,4.8201,4.8201,4.8201,4.8201,4.8201,4.8201,4.8201,4.8201,4.8306,4.8878,4.9117,4.9195,4.9688,4.9479,4.9191,4.9714,4.9177,4.8511,4.9058,4.8432,4.7345,4.6094,4.5763,4.5289,4.3458,4.2704,4.217,4.1433,4.0912,4.0354,3.964,3.9109,3.882,3.8799,3.8067,3.7508,3.7488,3.7074,3.6618,3.6163,3.6101,3.5728,3.4848,3.3936,3.3418,3.3397,3.2975,3.2698,3.2698,3.2243,3.2222,3.2677,3.2243,3.2243,3.2698,3.2698,3.2698,3.2698,3.2698,3.2698,3.79,3.9183,3.9808,3.8658,3.7639,3.6436,3.4554,3.3247,3.215,3.1201,3.0843,3.0999,3.1921,3.2437,3.3064,3.4214,3.4894,3.5626,3.6541,3.8004,3.9939,4.2448,4.5846,4.7861,4.7414,4.8564,4.9035,4.825,4.8594,4.8695,4.8515,4.8277,4.841,4.8773,4.8437,4.8201,4.8201,4.8201,4.8201,4.8201,4.8201,4.8201,4.8201,4.8201,4.8201,4.8201,4.8201,4.8201,4.8201,4.8201,4.8201,4.8201,4.8201,4.8201,4.8201,4.8201,4.8463,4.8829,4.8829,4.8829,4.8934,4.9483,4.9401,4.93,5.0211,5.0106,4.9662,4.9845,4.9972,5.0064,5.0245,4.9804,4.9057,4.7929,4.7084,4.6214,4.4949,4.4116,4.357,4.335,4.2485,4.1611,4.084,4.0631,4.0108,3.8971,3.8841,3.8667,3.8046,3.757,3.7218,3.7074,3.6763,3.608,3.4889,3.4516,3.4226,3.3895,3.375,3.3492,3.3182,3.3037,3.2727,3.2243,3.2388,3.2553,3.2698,3.3037,3.3161,3.3161,3.2843,3.2698,3.5365,3.6854,3.7508,3.6593,3.5913,3.5077,3.3587,3.2803,3.2097,3.1201,3.0992,3.1235,3.1999,3.2463,3.3064,3.4214,3.4711,3.5234,3.5992,3.7429,3.9523,4.2631,4.6316,4.8407,4.7911,4.8904,4.9374,4.8878,4.8773,4.8773,4.8855,4.8407,4.8489,4.9061,4.8486,4.8201,4.8201,4.8201,4.8201,4.8201,4.8201,4.8201,4.8201,4.8201,4.8201,4.8201,4.8201,4.8201,0.0,4.8201,4.8201,4.8201,4.8201,4.8201,4.8254,4.8463,4.8616,4.8829,4.9244,4.9244,4.9247,4.9976,5.0132,5.0159,5.089,5.0838,5.0524,5.0524,5.0812,5.11,5.11,5.0867,5.0404,4.9346,4.842,4.748,4.6217,4.5416,4.4831,4.4554,4.3715,4.2933,4.2365,4.1981,4.1276,3.9948,3.972,3.9367,3.8535,3.8046,3.7695,3.7508,3.7239,3.6577,3.5407,3.5138,3.4848,3.4392,3.4185,3.3895,3.3418,3.3397,3.312,3.2533,3.2636,3.2863,3.3244,3.3542,3.3667,3.3667,3.3368,3.3244,0.0,3.4868,3.56,3.5025,3.4528,3.3927,3.2777,3.213,0.0,3.1104,3.0992,3.1358,3.2437,3.2672,3.3064,3.4214,3.4476,3.492,3.6018,3.7403,3.9547,4.2788,4.5323,4.6944,4.7333,4.8486,4.9374,4.9793,4.8852,4.8695,4.9714,4.8803,4.8463,4.9038,4.8515,4.8201,4.8201,4.8201,4.8201,4.8201,4.8201,4.8201,4.8201,4.8201,4.8201,4.8201,4.8201,4.8201,4.8201,4.8201,4.8201,4.8201,4.8201,4.8201,4.825,4.8881,4.875,4.8437,4.9557,4.9584,4.9322,5.042,5.1152,5.1596,5.1596,5.1596,5.1596,5.1596,5.1596,5.1596,5.1596,5.1596,5.1346,5.0366,4.9674,4.8867,4.7308,4.6536,4.5965,4.528,4.4701,4.4256,4.4022,4.3158,4.2283,4.1502,4.0665,3.982,3.8989,3.8528,3.8092,3.7591,3.755,3.7177,3.6287,3.5759,3.5335,3.491,3.4475,3.404,3.3563,3.3522,3.348,3.3397,3.2975,3.3203,3.4102,3.4102,3.4123,3.4143,3.4123,3.4102,0.0,0.0,3.196,3.0966,3.1575,3.213,0.0,3.1275,3.1641,3.1104,3.0992,3.1209,3.1895,3.2411,3.3064,3.4214,3.5129,3.5966,3.6698,4.0069,4.3101,4.4773,4.7832,4.9296,4.8094,4.9453,5.008,4.9322,4.9064,4.8773,4.859,4.8358,4.825,4.841,4.825,4.8201,4.8201,4.8201,4.8201,4.8201,4.8201,4.8201,4.8201,4.8201,4.8201,4.8201,4.8201,4.8201,4.8201,4.8201,4.8201,4.8201,4.8201,4.8201,4.825,4.8881,4.9012,4.9035,5.0185,5.0185,4.9819,5.0551,5.1152,5.1596,5.1596,5.1596,5.1596,5.1596,5.1596,5.1596,5.1596,5.1596,5.1346,5.0366,4.9674,4.8989,4.7762,4.7072,4.6666,4.6491,4.601,4.5447,4.4862,4.4232,4.34,4.2304,4.1658,4.0923,3.9854,3.9275,3.8726,3.8092,3.8026,3.7798,3.7218,3.6742,3.6287,3.5832,3.5687,3.5418,3.4962,3.464,3.4123,3.3418,3.3285,3.3542,3.4102,3.4102,3.4288,3.462,3.4268,3.4102,0.0,2.9693,3.0861,3.0234,3.0947,3.1641,3.1014,0.0,3.1346,3.1071,3.1182,3.1529,3.2104,3.2698,3.3483,3.4633,3.5547,3.6671,3.8344,4.1192,4.386,4.5794,4.7911,4.9139,4.8982,4.9584,4.9845,4.9479,4.8956,4.8672,4.862,4.8329,4.8201,4.8201,4.8201,4.8201,4.8201,4.8201,4.8201,4.8201,4.8201,4.8201,4.8201,4.8201,4.8201,4.8201,4.8201,4.8201,4.8201,4.8201,4.8201,4.8201,4.8201,4.8201,4.825,4.8881,4.9117,4.9218,5.008,5.0342,5.0394,5.0969,5.1361,5.1596,5.1596,5.1596,5.1648,5.1936,5.2014,5.2067,5.2354,5.2223,5.1966,5.1685,5.061,4.9481,4.8908,4.8383,4.7842,4.7336,4.7214,4.6936,4.6029,4.5446,4.4649,4.3412,4.2845,4.2156,4.0936,4.036,3.9675,3.8756,3.8858,3.8662,3.7893,3.7777,3.7331,3.6494,3.6225,3.5914,3.5407,3.5013,3.4454,3.375,3.3729,3.3853,3.4102,3.4102,3.4226,3.4475,3.4433,3.4413,2.7725,2.9353,3.094,3.0678,3.1209,3.1745,0.0,0.0,3.1104,3.1104,3.1555,3.213,3.2725,3.33,3.4104,3.5234,3.6096,3.7639,4.054,4.1873,4.3598,4.6318,4.7205,4.8172,4.9636,4.9378,4.93,4.974,4.8773,4.8407,4.896,4.8381,4.8041,4.8041,4.8041,4.8041,4.8041,4.8146,4.8201,4.8201,4.8201,4.8201,4.8201,4.8201,4.8201,4.8201,4.8201,4.8201,4.8201,4.8201,4.8201,4.8227,4.8306,4.8358,4.8407,4.9117,4.9296,4.9296,4.9845,5.042,5.0995,5.1439,5.1596,5.1596,5.1596,5.1596,5.1727,5.2328,5.2485,5.2616,5.3138,5.2955,5.2772,5.3269,5.1862,5.0416,5.045,5.0048,4.9355,4.8413,4.8427,4.8329,4.7318,4.6692,4.5909,4.4593,4.4165,4.35,4.2046,4.1462,4.0683,3.9483,3.9704,3.9556,3.8578,3.8825,3.8533,3.7397,3.661,3.5945,3.5407,3.5013,3.4599,3.4205,3.4143,3.4143,3.4205,3.4205,3.4247,3.4309,3.464,3.4786,2.8752,2.9998,3.0652,2.9161,3.0302,3.1562,3.057,3.104,3.1667,3.1667,3.213,3.2751,3.3352,3.3901,3.4659,3.5783,3.7717,4.0069,4.297,4.3912,4.5034,4.6941,4.8146,4.893,4.9221,4.9169,4.9113,4.9221,4.8594,4.8254,4.8329,4.778,4.7438,4.7438,4.7438,4.7438,4.7438,4.7937,4.8201,4.8201,4.8201,4.8201,4.8201,4.8201,4.8201,4.8201,4.8201,4.8201,4.8201,4.8201,4.8201,4.8224,4.8777,4.8956,4.9117,5.0132,5.0211,4.9845,5.0446,5.1021,5.1492,5.157,5.1596,5.1596,5.1596,5.1596,5.1727,5.2328,5.2485,5.2511,5.2616,5.2955,5.3295,5.3373,5.273,5.2136,5.2136,5.1712,5.1286,5.1111,5.0036,4.8975,4.8374,4.7785,4.6949,4.5415,4.5549,4.5046,4.2906,4.2159,4.1406,4.0171,4.0127,4.0062,3.9899,3.9964,3.9899,3.9682,3.7803,3.6308,3.5428,3.5013,3.4765,3.4682,3.4288,3.4288,3.4682,3.4682,3.4868,3.518,3.4931,3.4786,2.8177,2.9387,3.0302,2.9536,3.1059,3.2548,3.1686,3.1895,3.2287,3.2287,3.2777,3.3352,3.3927,3.4999,3.6488,3.8556,4.0332,4.2004,4.3677,4.4643,4.5714,4.7124,4.7777,4.8381,4.9064,4.8829,4.859,4.859,4.8358,4.8201,4.8201,4.762,4.7438,4.778,4.7205,4.7022,4.7307,4.7568,4.7885,4.8201,4.8201,4.8201,4.8201,4.8201,4.8201,4.8201,4.8201,4.8201,4.8201,4.8201,4.8201,4.8254,4.8515,4.8799,4.9247,5.0368,5.042,5.0028,5.0917,5.1204,5.1204,5.1492,5.1596,5.1596,5.1596,5.1596,5.1648,5.1936,5.2485,5.306,5.3347,5.3635,5.3922,5.4236,5.341,5.2573,5.2911,5.279,5.245,5.1827,5.1595,5.0974,4.9219,4.8944,4.8473,4.6865,4.7389,4.711,4.491,4.4675,4.3903,4.1838,4.1551,4.1386,4.1022,4.1022,4.053,3.9358,3.8293,3.7252,3.6204,3.5728,3.55,3.55,3.4827,3.4578,3.4786,3.4537,3.4516,3.4693,3.4765,3.4786,2.7846,2.8891,2.9936,3.0074,0.0,3.3169,3.3117,3.3111,3.3195,3.3613,3.4058,3.4528,3.492,3.6436,3.8527,4.1247,4.2683,4.3729,4.4592,4.5454,4.6419,4.7568,4.7594,4.7937,4.9012,4.8567,4.8201,4.8201,4.8201,4.812,4.7989,4.744,4.7283,4.7571,4.6734,4.6499,4.6915,4.7176,4.7516,4.7989,4.812,4.8201,4.8201,4.8201,4.8201,4.8201,4.8201,4.8201,4.8201,4.8201,4.8201,4.8198,4.8358,4.8881,4.961,5.0603,5.0681,5.042,5.1282,5.1335,5.1047,5.1465,5.1596,5.1596,5.1596,5.1596,5.1622,5.1779,5.2589,5.3504,5.3896,5.421,5.4524,5.4994,5.41,5.3231,5.3699,5.3776,5.3487,5.2482,5.2891,5.2662,5.0287,5.0323,5.0124,4.8541,4.912,4.9035,4.7034,4.699,4.6304,4.4032,4.3742,4.3443,4.2802,4.2623,4.1767,3.9958,3.9163,3.8423,3.7678,3.6824,3.6373,3.6373,3.5406,3.4951,3.4951,3.4578,3.4383,3.4413,3.4682,3.4786,2.8874,2.9266,2.9475,2.9988,3.1014,3.2319,3.3927,3.4267,3.4737,3.6358,3.6724,3.6776,3.6802,3.824,4.015,4.2501,4.3885,4.5218,4.6837,4.7124,4.762,4.8826,4.8489,4.8381,4.9064,4.8567,4.8201,4.8201,4.8201,4.7963,4.7385,4.6839,4.6316,4.5792,4.5714,4.5687,4.5714,4.6785,4.7333,4.7359,4.7937,4.8201,4.8201,4.8201,4.8201,4.8201,4.8201,4.8201,4.8201,4.8201,4.8201,4.828,4.8829,4.9688,5.0734,5.1309,5.1518,5.1492,5.157,5.157,5.1544,5.1596,5.1596,5.1596,5.1596,5.1596,5.1727,5.2276,5.2903,5.34,5.3452,5.4236,5.5046,5.5099,5.5006,5.4913,5.4972,5.4998,5.4809,5.4136,5.3687,5.3013,5.1848,5.2017,5.1808,5.0259,5.0464,5.0233,4.8632,4.7978,4.7398,4.677,4.669,4.6462,4.5848,4.5336,4.4662,4.3845,4.1104,3.9708,4.0109,3.8211,3.7125,3.7125,3.5966,3.5376,3.5376,3.5304,3.5314,3.5283,3.4972,3.4786,2.849,2.9004,2.9528,3.0424,3.1522,3.2725,3.4084,3.5234,3.6305,3.7351,3.8135,3.8736,3.905,4.0252,4.1611,4.2814,4.4277,4.5532,4.6158,4.7179,4.7885,4.796,4.8433,4.8538,4.8041,4.812,4.7914,4.7207,4.744,4.7414,4.6839,4.6264,4.6003,4.6159,4.5426,4.5217,4.5609,4.6027,4.6236,4.6262,4.7571,4.8201,4.8201,4.8201,4.8201,4.8201,4.8201,4.8201,4.8201,4.8201,4.8201,4.8306,4.9218,5.008,5.0864,5.1387,5.1596,5.1596,5.1596,5.1596,5.1596,5.1596,5.1596,5.1596,5.1596,5.1858,5.2197,5.2433,5.3164,5.3896,5.3896,5.4497,5.502,5.4628,5.4837,5.4916,5.421,5.4314,5.4367,5.3818,5.3543,5.3127,5.236,5.269,5.2602,5.1322,5.1904,5.1736,4.9794,4.9608,4.9224,4.8033,4.7361,4.6837,4.6609,4.5798,4.5557,4.619,4.3886,4.2076,4.1234,4.0164,3.9107,3.822,3.7082,3.636,3.6024,3.5603,3.5387,3.5387,3.5252,3.5169,2.7801,2.8429,2.9188,2.9972,3.1705,3.366,3.5155,3.6436,3.7665,3.8972,3.9573,4.0043,4.0567,4.135,4.2238,4.3127,4.4748,4.5898,4.5898,4.7231,4.7911,4.7153,4.7937,4.8146,4.7124,4.7414,4.7338,4.658,4.6839,4.6813,4.6238,4.5818,4.5687,4.5924,4.5113,4.4904,4.5322,4.5505,4.5609,4.5609,4.6996,4.7728,4.7911,4.8094,4.8094,4.7937,4.812,4.8068,4.7937,4.812,4.8332,4.8594,4.9531,5.0263,5.0864,5.1387,5.1596,5.1596,5.1596,5.1596,5.1596,5.1596,5.1596,5.1596,5.1596,5.2014,5.2537,5.272,5.3478,5.4236,5.4445,5.4785,5.4994,5.4576,5.4654,5.4602,5.3818,5.3818,5.3792,5.3217,5.34,5.3407,5.262,5.3146,5.3322,5.2371,5.2738,5.2568,5.1068,5.0992,5.071,4.9597,4.8679,4.8052,4.7877,4.7023,4.6844,4.7679,4.6311,4.4811,4.3333,4.2312,4.1113,3.9637,3.853,3.7548,3.6728,3.6248,3.6034,3.6034,3.6034,3.6034,2.686,2.754,2.8403,2.8429,3.1463,3.5025,3.7377,3.7926,3.8736,4.1637,4.1246,4.0594,4.1194,4.1325,4.1899,4.3624,4.535,4.6475,4.6501,4.7469,4.7783,4.6632,4.697,4.7072,4.6525,4.6501,4.6501,4.6475,4.6501,4.6212,4.5609,4.5583,4.5322,4.4721,4.4695,4.4695,4.4695,4.5296,4.5583,4.5609,4.6186,4.6761,4.7307,4.7911,4.7858,4.7333,4.7937,4.7858,4.7359,4.7937,4.8567,4.9139,4.9662,5.0263,5.0838,5.1387,5.1596,5.1596,5.1596,5.1596,5.1596,5.1596,5.1596,5.1596,5.1596,5.2014,5.2642,5.3243,5.3792,5.4341,5.4942,5.5099,5.5099,5.5072,5.4628,5.4184,5.4184,5.3766,5.3217,5.2616,5.34,5.3818,5.2694,5.3452,5.4001,5.3478,5.2877,5.2485,5.2485,5.1962,5.1596,5.1596,5.11,5.0551,4.9923,4.9401,4.8855,4.8254,4.8201,4.7762,4.6734,4.4661,4.283,4.1334,4.0219,3.8904,3.7435,3.7404,3.7404,3.7435,3.7404,3.7404,2.856,2.8769,2.9423,3.1018,3.3247,3.5757,3.8475,3.9102,4.0017,4.3284,4.3023,4.2396,4.3023,4.3154,4.3154,4.3258,4.4382,4.5374,4.582,4.6159,4.6421,4.6501,4.663,4.6499,4.5896,4.6238,4.6133,4.5297,4.5637,4.5583,4.5008,4.4982,4.4878,4.4721,4.4695,4.4695,4.4695,4.4878,4.4982,4.4982,4.5583,4.6186,4.6734,4.6946,4.692,4.6761,4.7336,4.7464,4.7359,4.7937,4.8567,4.9143,4.93,4.9662,5.0237,5.0812,5.1021,5.1073,5.1465,5.1596,5.1596,5.1596,5.1596,5.1675,5.2093,5.2642,5.3243,5.3818,5.4393,5.4785,5.4524,5.4471,5.4367,5.4001,5.3766,5.34,5.2537,5.2589,5.2589,5.1988,5.2145,5.2406,5.2485,5.2772,5.2955,5.2772,5.2616,5.2354,5.191,5.1701,5.1465,5.1073,5.0498,4.9923,4.9374,4.8773,4.841,4.8227,4.8201,4.7762,4.6734,4.608,4.4868,4.2955,4.2162,4.1194,4.0001,3.8862,3.8655,3.9281,3.8014,3.7744,2.8647,2.9266,3.0417,3.2228,3.4345,3.6724,3.9625,4.0801,4.1951,4.4225,4.378,4.318,4.3807,4.3703,4.3493,4.3389,4.4303,4.5113,4.5217,4.5635,4.5924,4.5794,4.6003,4.5898,4.5296,4.5584,4.548,4.4747,4.5034,4.5087,4.4721,4.4695,4.4695,4.4695,4.4695,4.4695,4.4695,4.4695,4.4695,4.4695,4.506,4.5426,4.5794,4.6292,4.637,4.6159,4.6734,4.7098,4.7359,4.7937,4.8567,4.9117,4.9117,4.9427,4.9949,5.0577,5.0786,5.0864,5.1413,5.1596,5.1596,5.1596,5.1596,5.1675,5.2014,5.272,5.3478,5.3792,5.4314,5.4654,5.4288,5.387,5.3504,5.3426,5.3217,5.2825,5.2119,5.204,5.2014,5.1675,5.1779,5.1988,5.2119,5.2537,5.2694,5.2197,5.2145,5.2014,5.1648,5.1596,5.1387,5.0838,5.0472,4.9923,4.9169,4.8777,4.8463,4.8227,4.8201,4.7938,4.7324,4.7294,4.6417,4.4568,4.3939,4.3046,4.1812,4.0838,4.0663,4.1186,4.0315,4.0224,2.7977,2.9431,3.1365,3.2672,3.526,3.8161,4.0853,4.2762,4.4121,4.459,4.3885,4.3363,4.3964,4.3572,4.331,4.3886,4.4853,4.5348,4.4852,4.5689,4.595,4.4904,4.5217,4.5296,4.4747,4.4695,4.4695,4.4695,4.4695,4.4695,4.4695,4.4695,4.4695,4.4695,4.4695,4.4695,4.4695,4.4695,4.4695,4.4695,4.4695,4.4695,4.4747,4.5846,4.6055,4.5635,4.6186,4.6761,4.7333,4.7885,4.846,4.9038,4.9038,4.9326,4.9819,5.0472,5.0707,5.0786,5.1387,5.1596,5.1596,5.1596,5.1596,5.1596,5.1675,5.2485,5.34,5.3452,5.387,5.4262,5.4158,5.3347,5.2694,5.3138,5.2825,5.2433,5.2485,5.2014,5.1622,5.1675,5.2067,5.225,5.1701,5.2511,5.2851,5.1753,5.1596,5.1596,5.1596,5.1596,5.1387,5.0838,5.0734,5.0289,4.9244,4.9061,4.8829,4.8303,4.8254,4.8201,4.8201,4.8201,4.7532,4.6148,4.5584,4.4598,4.316,4.3124,4.3124,4.316,4.3588,4.3835,3.0268,3.0928,3.2235,3.4737,3.8263,4.1349,4.2422,4.3624,4.4564,4.4669,4.4512,4.4512,4.5113,4.4721,4.4381,4.4513,4.4721,4.5008,4.5348,4.5217,4.5165,4.5374,4.5113,4.4852,4.4721,4.4695,4.4695,4.4695,4.4695,4.4695,4.4695,4.4695,4.4695,4.4695,4.4695,4.4695,4.4695,4.4695,4.4695,4.4695,4.4695,4.4695,4.4721,4.4956,4.5269,4.5609,4.574,4.6367,4.7307,4.7438,4.7858,4.8381,4.8381,4.8463,4.8669,4.9714,5.008,5.0237,5.1256,5.1596,5.1596,5.1596,5.1596,5.1675,5.2171,5.2825,5.3478,5.3896,5.4445,5.4707,5.3792,5.34,5.3008,5.2171,5.1884,5.191,5.2406,5.2014,5.1727,5.2197,5.2014,5.1753,5.1622,5.1805,5.1884,5.1622,5.1596,5.1596,5.1596,5.1596,5.1387,5.0838,5.0368,4.9976,4.974,4.8934,4.8538,4.8878,4.8463,4.8201,4.8201,4.8201,4.7824,4.7019,4.689,4.6233,4.5027,4.476,4.4763,4.4999,4.4169,4.4186,3.0992,3.1993,3.3724,3.6619,3.9782,4.2264,4.2552,4.3284,4.3963,4.4251,4.433,4.4487,4.506,4.446,4.4068,4.4616,4.446,4.4539,4.5087,4.4904,4.4825,4.5139,4.4878,4.4695,4.4695,4.4695,4.4695,4.4695,4.446,4.433,4.433,4.4042,4.4016,4.4304,4.433,4.446,4.4695,4.4695,4.4695,4.4695,4.4695,4.4695,4.4695,4.4695,4.4878,4.5191,4.5478,4.6079,4.6944,4.7202,4.7675,4.8201,4.8201,4.8384,4.875,4.9584,5.008,5.0446,5.1309,5.1596,5.1648,5.1936,5.2014,5.2093,5.2406,5.2929,5.34,5.34,5.3609,5.3713,5.3112,5.2746,5.238,5.1753,5.1596,5.1675,5.1988,5.1831,5.1779,5.238,5.2014,5.1779,5.2354,5.2223,5.2014,5.2014,5.1779,5.1596,5.1596,5.1596,5.1282,5.0446,5.008,4.9662,4.9113,4.8538,4.8329,4.8672,4.8384,4.8201,4.8201,4.8201,4.8041,4.7754,4.7438,4.702,4.6419,4.6225,4.6254,4.6391,4.6078,4.6159,3.1187,3.2881,3.5338,3.8031,4.0383,4.2081,4.216,4.2605,4.3127,4.365,4.3834,4.4043,4.446,4.378,4.3441,4.4407,4.4095,4.3964,4.4616,4.4616,4.459,4.4695,4.4695,4.4669,4.4564,4.4564,4.4512,4.4407,4.399,4.3755,4.3755,4.3284,4.3232,4.3729,4.3755,4.3964,4.4407,4.4512,4.4564,4.4564,4.4643,4.4695,4.4695,4.4695,4.4695,4.4721,4.5348,4.595,4.6554,4.7072,4.7675,4.8201,4.8201,4.8515,4.9038,4.9636,5.0211,5.0734,5.1361,5.1596,5.1675,5.2171,5.2406,5.2485,5.2485,5.2929,5.3321,5.2903,5.272,5.2642,5.2642,5.2197,5.1727,5.1622,5.1596,5.1622,5.1727,5.1675,5.1779,5.238,5.2014,5.191,5.2903,5.2668,5.2328,5.2328,5.191,5.1596,5.1596,5.1596,5.123,5.0289,5.0106,4.9662,4.875,4.8489,4.8358,4.8358,4.828,4.8201,4.8201,4.8201,4.8201,4.8201,4.7728,4.7411,4.7307,4.7411,4.7411,4.7307,4.7911,4.8201,3.1859,3.375,3.6332,3.824,4.0069,4.1559,4.2081,4.2605,4.3023,4.3101,4.352,4.3912,4.399,4.3886,4.3834,4.399,4.352,4.3493,4.4538,4.4304,4.4173,4.4643,4.4695,4.4539,4.4069,4.4017,4.3781,4.3258,4.3154,4.3101,4.3101,4.3023,4.3023,4.3101,4.3101,4.3154,4.3232,4.3729,4.4017,4.4017,4.4487,4.4695,4.4695,4.4695,4.4695,4.4721,4.5348,4.595,4.6554,4.7072,4.7675,4.8201,4.8201,4.8254,4.8433,4.9505,4.9949,5.0159,5.123,5.1596,5.1596,5.1675,5.2067,5.2485,5.2485,5.2929,5.3478,5.387,5.3635,5.3269,5.3269,5.2825,5.225,5.1727,5.1596,5.1727,5.2276,5.1962,5.1779,5.238,5.2014,5.1648,5.1805,5.1779,5.1727,5.1727,5.1648,5.1596,5.1596,5.1596,5.1544,5.1387,5.0943,5.0603,5.0446,4.9561,4.8956,4.8956,4.8515,4.8201,4.8201,4.8201,4.8201,4.8201,4.812,4.7832,4.7307,4.7832,4.7806,4.7307,4.7911,4.8201,3.3836,3.5669,3.7709,3.8497,4.0301,4.1845,4.1705,4.2301,4.2817,4.2602,4.3198,4.3721,4.3441,4.2866,4.2762,4.3755,4.3154,4.2944,4.4095,4.3755,4.3493,4.3728,4.3754,4.365,4.3415,4.3389,4.3284,4.3023,4.2709,4.2552,4.2552,4.2239,4.2213,4.2526,4.2552,4.2709,4.2997,4.3598,4.4069,4.4356,4.459,4.4695,4.4695,4.4695,4.4695,4.4721,4.5348,4.595,4.6554,4.7072,4.7675,4.8201,4.8201,4.841,4.8773,4.9584,5.0106,5.0498,5.1309,5.1596,5.1648,5.1988,5.2511,5.2929,5.2589,5.2929,5.3295,5.2877,5.2563,5.238,5.238,5.2197,5.1936,5.1648,5.1596,5.1675,5.1936,5.1779,5.1675,5.1936,5.2328,5.238,5.1727,5.1884,5.1988,5.1648,5.1596,5.1596,5.1596,5.1596,5.1465,5.1178,5.0943,5.0655,5.0315,4.9557,4.9117,4.9117,4.8512,4.8201,4.8201,4.8201,4.8201,4.8201,4.8201,4.8068,4.7806,4.8068,4.8041,4.7806,4.8068,4.8201,3.5276,3.6729,3.8026,3.8555,4.029,4.1728,4.1273,4.2084,4.2889,4.2634,4.3285,4.3783,4.363,4.2865,4.2556,4.3337,4.2836,4.2649,4.3546,4.318,4.2866,4.2971,4.2997,4.2945,4.2814,4.2814,4.2735,4.2579,4.2186,4.1977,4.1977,4.1533,4.1507,4.1977,4.1977,4.216,4.2553,4.3284,4.3938,4.4486,4.4616,4.4695,4.4695,4.4695,4.4695,4.4747,4.5478,4.6081,4.6554,4.7257,4.7806,4.8201,4.8201,4.8489,4.893,4.9666,5.0185,5.0655,5.1361,5.1596,5.1675,5.2119,5.2668,5.3112,5.2825,5.2929,5.3086,5.2616,5.2171,5.1858,5.2014,5.2067,5.2014,5.1858,5.1831,5.1779,5.1622,5.1596,5.1596,5.1596,5.2328,5.2642,5.1753,5.1962,5.2119,5.1675,5.1596,5.1596,5.1596,5.1596,5.1439,5.1047,5.0995,5.076,5.0159,4.974,4.943,4.9143,4.8698,4.8437,4.8437,4.8306,4.825,4.8437,4.8306,4.8201,4.8201,4.8201,4.8201,4.8201,4.8201,4.8201,3.5405,3.5956,3.6441,3.8175,3.9627,4.0634,4.0792,4.2103,4.3361,4.3642,4.4028,4.4443,4.506,4.5068,4.4394,4.2569,4.2566,4.2838,4.3022,4.2579,4.2447,4.2918,4.2997,4.2814,4.2291,4.2238,4.2003,4.143,4.1351,4.1325,4.1325,4.1299,4.1299,4.1325,4.1325,4.1376,4.1377,4.2474,4.3363,4.3938,4.446,4.4695,4.4695,4.4695,4.4695,4.4773,4.5924,4.6475,4.6606,4.7704,4.8146,4.8201,4.8201,4.8227,4.8384,4.9479,4.9897,5.0106,5.1204,5.1596,5.1596,5.1622,5.2067,5.2642,5.3191,5.2981,5.2877,5.4471,5.3739,5.2589,5.3164,5.3295,5.3164,5.2589,5.2459,5.2302,5.1727,5.1596,5.1596,5.1596,5.1648,5.1675,5.1596,5.1622,5.1622,5.1596,5.1596,5.1596,5.1596,5.1596,5.1596,5.157,5.1544,5.1335,5.0786,5.0707,5.0237,4.9165,4.9061,4.9035,4.9035,4.8486,4.8489,4.9035,4.8515,4.8201,4.8201,4.8201,4.8201,4.8201,4.8201,4.8201,3.6691,3.7432,3.8248,3.8685,3.994,4.1016,4.0724,4.2191,4.3468,4.2944,4.4121,4.5132,4.4734,4.465,4.4502,4.4196,4.3922,4.3907,4.4346,4.3913,4.3612,4.3807,4.3834,4.3776,4.3581,4.2947,4.2501,4.2286,4.1645,4.1299,4.1299,4.1299,4.1299,4.1299,4.1299,4.184,4.2984,4.2995,4.3861,4.55,4.5369,4.5448,4.5795,4.5795,4.5795,4.5822,4.6669,4.6838,4.6606,4.773,4.8201,4.8201,4.8201,4.8463,4.8855,4.9247,4.9845,5.0524,5.0943,5.1309,5.1596,5.1596,5.2014,5.2459,5.2302,5.2354,5.2642,5.3243,5.2694,5.2067,5.2668,5.2537,5.2197,5.1962,5.191,5.1858,5.1648,5.1596,5.1596,5.1596,5.1596,5.1596,5.1596,5.1596,5.1596,5.1596,5.1596,5.1596,5.1596,5.1596,5.1596,5.1596,5.1596,5.1518,5.1335,5.0995,5.0629,5.0211,4.9819,4.961,4.961,4.9061,4.8881,4.9117,4.8515,4.8201,4.8201,4.8201,4.8201,4.8201,4.8201,4.8201,3.77,3.8436,3.9307,3.9373,4.0283,4.1088,4.0756,4.2302,4.364,4.3228,4.4695,4.5983,4.5699,4.5447,4.5218,4.4941,4.4846,4.4826,4.487,4.4542,4.4312,4.4312,4.4312,4.4312,4.4312,4.3392,4.2792,4.2792,4.1868,4.1299,4.1299,4.1299,4.1299,4.1299,4.1299,4.2046,4.3556,4.3384,4.4252,4.613,4.5952,4.606,4.6402,4.6402,4.651,4.6754,4.7351,4.7396,4.7169,4.8105,4.8608,4.8837,4.9022,4.934,4.9764,5.0164,5.077,5.1459,5.1671,5.1989,5.228,5.228,5.254,5.2805,5.2593,5.2673,5.299,5.3604,5.3149,5.2641,5.3029,5.2544,5.191,5.191,5.191,5.1831,5.1648,5.1596,5.1596,5.1596,5.1596,5.1596,5.1596,5.1596,5.1596,5.1596,5.1596,5.1596,5.1596,5.1596,5.1596,5.1596,5.1596,5.1596,5.1596,5.1256,5.0995,5.0812,5.042,5.0185,5.0185,4.9692,4.9378,4.9378,4.8773,4.841,4.8201,4.8201,4.8201,4.8201,4.8201,4.8201,0.0,0.0,0.0,4.0147,4.0533,4.0733,4.0878,4.2337,4.3858,4.4617,4.5704,4.6885,4.8033,4.769,4.6631,4.4679,4.5184,4.5508,4.4522,4.4406,4.4406,4.4382,4.4382,4.4382,4.4382,4.3487,4.2889,4.2889,4.1967,4.1399,4.1399,4.1399,4.1374,4.1399,4.1374,4.1938,4.3072,4.366,4.453,4.569,4.6183,4.6428,4.6454,4.6454,4.6806,4.7431,4.8002,4.8246,4.83,4.8904,4.9472,5.0064,5.0661,5.0905,5.1068,5.2237,5.2699,5.2807,5.3375,5.3592,5.3592,5.3592,5.3592,5.37,5.4212,5.3995,5.3972,5.5677,5.5297,5.4356,5.4381,5.3419,5.249,5.249,5.2517,5.2302,5.1727,5.1596,5.1596,5.1596,5.1596,5.1596,5.1596,5.1596,5.1596,5.1596,5.1596,5.1596,5.1596,5.1596,5.1596,5.1596,5.1596,5.1596,5.1596,5.1596,5.1361,5.0838,5.0812,5.0812,5.0812,5.0237,4.9897,4.9897,4.9348,4.8773,4.8201,4.8201,4.8201,4.8201,4.8201,4.8201,3.9134,0.0,0.0,0.0,0.0,0.0,4.0838,4.1697,4.2735,4.3978,4.4709,4.5392,4.6214,4.6193,4.5992,4.5784,4.6518,4.6945,4.6528,4.6616,4.6609,4.6484,4.6462,4.6462,4.6462,4.5553,4.4955,4.4955,4.4055,4.3464,4.3464,4.3132,4.3012,4.3177,4.3131,4.3647,4.4792,4.5015,4.5897,4.7397,4.7153,4.7262,4.7622,4.7622,4.7731,4.7956,4.8588,4.911,4.9487,4.9662,4.9868,5.0064,5.0661,5.115,5.1613,5.1995,5.2617,5.3293,5.3052,5.3242,5.3592,5.3592,5.3592,5.3619,5.3782,5.3727,5.3782,5.4646,5.4375,5.3802,5.3839,5.3205,5.2576,5.2576,5.2202,5.1805,5.1622,5.1596,5.1596,5.1596,5.1596,5.1596,5.1596,5.1596,5.1596,5.1596,5.1596,5.1596,5.1596,5.1596,5.1596,5.1596,5.1596,5.1596,5.1596,5.1596,5.1544,5.1387,5.1361,5.1361,5.1361,5.0838,5.0342,4.9897,4.9348,4.8773,4.8201,4.8201,4.8201,4.8201,4.8201,4.8201,0.0,0.0,0.0,4.0649,0.0,0.0,4.0819,4.1286,4.1906,4.283,4.3568,4.4175,4.469,4.4831,4.5022,4.5509,4.6188,4.6794,4.7233,4.7452,4.7538,4.743,4.7439,4.7439,4.7439,4.6432,4.5801,4.5801,4.4932,4.447,4.461,4.4331,4.435,4.4767,4.4757,4.5396,4.6829,4.6876,4.7631,4.9054,4.8728,4.8753,4.9079,4.9079,4.9023,4.9036,5.0027,5.0595,5.0909,5.1553,5.1375,5.0822,5.1428,5.1869,5.2255,5.2807,5.3441,5.4017,5.388,5.41,5.4403,5.4403,5.4403,5.4403,5.4403,5.4403,5.4568,5.5422,5.524,5.4643,5.4123,5.3504,5.3044,5.3044,5.2711,5.2342,5.2063,5.2032,5.1939,5.1659,5.1596,5.1596,5.1596,5.1596,5.1596,5.1596,5.1596,5.1596,5.1596,5.1596,5.1596,5.1596,5.1596,5.1596,5.1596,5.1596,5.1596,5.1596,5.1596,5.1596,5.1596,5.1282,5.0734,4.9897,4.9584,4.9038,4.8201,4.8201,4.8201,4.8201,4.8201,4.8201,0.0,0.0,0.0,4.1943,4.1772,0.0,4.0994,4.1225,4.1613,4.1854,4.2598,4.3301,4.3622,4.3821,4.4122,4.4579,4.5029,4.5718,4.6937,4.7284,4.7413,4.7391,4.7452,4.7482,4.7533,4.6645,4.6048,4.6048,4.5389,4.5087,4.5354,4.5286,4.5493,4.6051,4.6212,4.698,4.8446,4.8738,4.936,5.0294,5.0353,5.0383,5.0383,5.0383,5.032,5.0287,5.1624,5.2168,5.222,5.3612,5.3279,5.2006,5.2599,5.2825,5.2967,5.4147,5.4625,5.4765,5.5299,5.5496,5.5496,5.5496,5.5496,5.5496,5.5496,5.5496,5.5749,5.6929,5.6845,5.6141,5.5003,5.4221,5.3713,5.3713,5.3652,5.344,5.2834,5.2711,5.2527,5.1939,5.169,5.1596,5.1596,5.1596,5.1596,5.1596,5.1596,5.1596,5.1596,5.1596,5.1596,5.1596,5.1596,5.1596,5.1596,5.1596,5.1596,5.1596,5.1596,5.1596,5.1596,5.1596,5.11,5.0002,4.9871,4.927,4.8201,4.8201,4.8201,4.8201,4.8201,4.8201,4.2009,4.2218,4.2357,4.2046,4.2585,0.0,4.2151,4.2585,4.3162,4.3211,4.3271,4.3452,4.4048,4.4189,4.4375,4.4848,4.5117,4.5453,4.5875,4.615,4.6232,4.6017,4.6478,4.6873,4.7101,4.7407,4.7572,4.7572,4.7443,4.7435,4.7649,4.7103,4.6678,4.6493,4.748,4.7649,4.685,4.9004,4.9904,4.9593,5.0147,5.0383,5.0383,5.0383,5.0399,5.0402,5.117,5.1792,5.2339,5.3166,5.3186,5.2812,5.3471,5.3661,5.3585,5.4344,5.4906,5.5327,5.5468,5.5496,5.5496,5.5496,5.5496,5.5496,5.5496,5.5496,5.5664,5.6395,5.6502,5.6327,5.6075,5.5182,5.4318,5.4318,5.3926,5.3561,5.344,5.341,5.3379,5.3227,5.2342,5.1596,5.1596,5.1596,5.1596,5.1596,5.1596,5.1596,5.1596,5.1596,5.1596,5.1596,5.1596,5.1596,5.1596,5.1596,5.1596,5.1596,5.1596,5.1596,5.1596,5.1596,5.1282,5.0629,4.9714,4.8934,4.8201,4.8201,4.8201,4.8201,4.8201,4.8201,4.3252,4.3211,4.3119,4.3271,4.3456,0.0,0.0,4.2444,4.2676,4.291,4.2395,4.2138,4.3011,4.2756,4.2652,4.3377,4.377,4.4305,4.5303,4.5849,4.6103,4.5981,4.6234,4.6488,4.662,4.7177,4.7693,4.8124,4.785,4.7872,4.8417,4.7463,4.7277,4.8124,4.8399,4.8536,4.8536,4.9862,5.0555,5.0555,5.0886,5.1241,5.1542,5.1542,5.1333,5.1035,5.2047,5.248,5.2556,5.3933,5.4212,5.3733,5.3569,5.3442,5.3378,5.3585,5.4035,5.4625,5.4934,5.5243,5.5496,5.5496,5.5496,5.5496,5.5496,5.5945,5.6367,5.6058,5.6423,5.676,5.6114,5.5485,5.4998,5.4998,5.479,5.4463,5.4107,5.4047,5.3956,5.3652,5.3075,5.2496,5.2156,5.2094,5.2001,5.1659,5.1596,5.1596,5.1596,5.1596,5.1596,5.1596,5.1596,5.1596,5.1596,5.1596,5.1596,5.1596,5.1596,5.1596,5.1596,5.1596,5.1204,5.0368,4.9505,4.8773,4.8201,4.8201,4.8201,4.8201,4.8201,4.8201,4.4652,4.4591,4.4437,4.4714,4.456,4.406,0.0,0.0,0.0,4.2358,4.1786,4.1492,4.2144,4.1594,4.1255,4.1888,4.231,4.3027,4.4461,4.5295,4.5915,4.6273,4.5967,4.5834,4.615,4.6519,4.6966,4.7538,4.7344,4.7405,4.7999,4.725,4.7496,4.9056,4.8912,4.922,5.0082,5.0636,5.1097,5.1498,5.1775,5.2175,5.2676,5.2676,5.2382,5.1887,5.3009,5.3246,5.294,5.4772,5.521,5.4635,5.3803,5.3448,5.3384,5.323,5.3665,5.4402,5.4771,5.5281,5.5702,5.5476,5.536,5.5355,5.5468,5.6283,5.6985,5.5973,5.6423,5.6957,5.5945,5.558,5.5496,5.5496,5.5496,5.5377,5.496,5.4758,5.4582,5.4211,5.4066,5.3713,5.2926,5.2681,5.2404,5.1877,5.169,5.1596,5.1596,5.1596,5.1596,5.1596,5.1596,5.1596,5.1596,5.1596,5.1596,5.1596,5.1596,5.1596,5.1596,5.1596,5.1126,5.008,4.9666,4.9113,4.8512,4.8512,4.8407,4.8201,4.8201,4.8201,4.5484,4.6296,4.688,4.5761,4.6326,4.6511,4.4018,0.0,4.4633,4.2904,0.0,4.3931,4.3276,0.0,0.0,4.2112,4.2187,4.2352,4.2362,4.3252,4.4496,4.611,4.4744,4.4178,4.5549,4.5714,4.556,4.5045,4.606,4.646,4.5957,4.6911,4.7311,4.6942,4.8666,4.9035,4.7958,5.0359,5.1313,5.082,5.2021,5.2637,5.2676,5.2676,5.2653,5.2563,5.2745,5.3092,5.3638,5.4475,5.509,5.5531,5.5299,5.5091,5.4949,5.4902,5.5667,5.6663,5.6138,5.6258,5.6479,5.5331,5.4827,5.4793,5.5327,5.5973,5.6507,5.6337,5.6393,5.6507,5.6339,5.5917,5.5496,5.5496,5.5496,5.5635,5.6109,5.5771,5.5518,5.5991,5.5655,5.4908,5.3682,5.3014,5.2558,5.2496,5.197,5.1596,5.1596,5.1596,5.1596,5.1596,5.1596,5.1596,5.1596,5.1596,5.1596,5.1596,5.1596,5.1596,5.1596,5.1596,5.1309,5.0707,5.0629,5.0289,4.9688,4.9688,4.9195,4.8201,4.8201,4.8201,4.6542,4.7188,4.7465,4.6911,4.688,4.6511,4.4622,4.4314,4.4314,4.3852,0.0,0.0,0.0,0.0,0.0,0.0,4.261,4.2702,4.3394,4.2879,4.3131,4.4916,4.4523,4.4311,4.496,4.5022,4.4899,4.4622,4.5484,4.6069,4.6172,4.5976,4.6419,4.7742,4.7835,4.7989,4.8173,4.9743,5.0574,5.0697,5.1652,5.2306,5.2676,5.2676,5.2676,5.2676,5.2676,5.286,5.3199,5.4276,5.486,5.5206,5.5968,5.5901,5.5304,5.4842,5.5224,5.5934,5.5669,5.6192,5.6888,5.6213,5.5367,5.4709,5.5327,5.5917,5.6309,5.6002,5.6142,5.6309,5.5973,5.5693,5.5496,5.5496,5.5496,5.558,5.5833,5.5693,5.558,5.5833,5.5664,5.532,5.479,5.4136,5.3447,5.2711,5.2342,5.2032,5.1659,5.1596,5.1596,5.1596,5.1596,5.1596,5.1596,5.1596,5.1596,5.1596,5.1596,5.1596,5.1596,5.1596,5.1335,5.0812,5.0786,5.0498,4.9897,4.9584,4.9348,4.9195,4.9195,4.9038,4.7558,4.8173,4.8327,4.7742,4.7373,4.6757,4.5237,4.4622,4.4437,4.456,4.4129,0.0,0.0,0.0,4.3039,4.2945,0.0,4.3064,4.3794,4.2885,4.2719,4.4197,4.4342,4.4252,4.4067,4.4221,4.416,4.3821,4.456,4.5157,4.5495,4.5114,4.5853,4.7968,4.7465,4.7619,4.8583,4.9312,4.9928,5.042,5.1282,5.1959,5.2429,5.2637,5.2676,5.2676,5.2676,5.2799,5.3045,5.4214,5.4829,5.5106,5.6324,5.639,5.5769,5.5195,5.5385,5.5897,5.5718,5.6073,5.6595,5.6352,5.5537,5.4742,5.5161,5.5664,5.6058,5.5636,5.5833,5.6058,5.5608,5.5496,5.5496,5.5496,5.5496,5.5552,5.5721,5.5636,5.5552,5.5721,5.5608,5.5496,5.5496,5.5078,5.4391,5.3288,5.3121,5.2898,5.2245,5.2001,5.1877,5.1877,5.159,5.1439,5.1596,5.1465,5.1439,5.1596,5.1596,5.1596,5.1596,5.1596,5.1413,5.1021,5.1021,5.0786,5.0368,4.9976,4.9897,5.0132,4.9636,4.9296,4.8368,4.9558,5.0112,4.8112,4.806,4.8019,4.6018,4.6049,4.6142,4.4868,4.5607,4.5837,4.3712,4.3827,4.377,4.2283,4.2718,0.0,0.0,4.2904,4.379,4.4498,4.4006,4.339,4.2725,4.3267,4.3082,4.1801,4.2928,4.339,4.2756,4.451,4.5915,4.6634,4.7876,4.8553,4.8583,4.9312,4.9703,4.9764,5.1067,5.1713,5.1744,5.2421,5.2676,5.2676,5.2676,5.3076,5.3722,5.4429,5.5076,5.5745,5.6508,5.6785,5.6761,5.6737,5.7143,5.7636,5.6959,5.6231,5.5494,5.5064,5.4924,5.4846,5.4657,5.5046,5.5524,5.5524,5.5524,5.5524,5.5524,5.5496,5.5496,5.5496,5.5496,5.5664,5.6225,5.5917,5.5664,5.6253,5.5917,5.5496,5.5496,5.547,5.5245,5.452,5.4448,5.4212,5.3612,5.2983,5.2558,5.2558,5.1527,5.1021,5.1544,5.1126,5.1047,5.157,5.1596,5.1596,5.1596,5.1596,5.1596,5.157,5.157,5.157,5.1544,5.1518,5.1256,5.0707,4.9035,4.8567,5.0359,5.1005,5.0974,4.9374,4.8789,4.806,4.6049,4.613,4.6357,4.5453,4.6326,4.6768,4.511,4.5367,4.5348,4.394,4.3978,4.3924,0.0,4.299,4.3205,4.3852,4.3747,4.3328,4.2663,4.2817,4.2355,4.0984,4.2171,4.3033,4.3267,4.3913,4.5207,4.7188,4.7281,4.7711,4.8583,4.9312,4.9703,4.9733,5.1067,5.1713,5.1713,5.2368,5.2676,5.2676,5.2676,5.2829,5.3106,5.4245,5.4829,5.5137,5.6354,5.681,5.681,5.681,5.6964,5.7155,5.7371,5.6585,5.5606,5.6385,5.5552,5.4545,5.5859,5.6044,5.5851,5.6251,5.6365,5.6222,5.5642,5.5496,5.5496,5.5496,5.5496,5.5552,5.5777,5.5636,5.5552,5.5777,5.5636,5.5496,5.5496,5.5824,5.5723,5.4667,5.4511,5.4266,5.3679,5.341,5.3105,5.265,5.1869,5.1457,5.1575,5.1413,5.1413,5.1596,5.1596,5.1596,5.1596,5.1596,5.1596,5.1596,5.1256,5.1073,5.1073,5.0655,5.0577,5.076,4.9401,4.9117,5.1405,5.1713,5.1436,5.0349,4.9682,4.8881,4.7065,4.7188,4.7434,4.648,4.7188,4.7465,4.5884,4.6142,4.6142,4.4806,4.4806,4.4714,0.0,4.3575,4.3464,4.3882,4.3747,4.3421,4.3002,4.294,4.2263,4.0597,4.1568,4.2417,4.2866,4.3328,4.4714,4.7157,4.7065,4.7496,4.8583,4.9066,4.9312,4.9312,5.0697,5.1344,5.1374,5.2298,5.2676,5.2676,5.2676,5.2953,5.3445,5.4091,5.4768,5.553,5.617,5.657,5.681,5.681,5.681,5.6847,5.7278,5.6782,5.6045,5.6591,5.592,5.5084,5.638,5.6581,5.6461,5.71,5.7049,5.6651,5.6106,5.5729,5.5496,5.5496,5.5496,5.5496,5.5496,5.5496,5.5496,5.5496,5.5496,5.5496,5.5496,5.5833,5.5798,5.4965,5.5017,5.4952,5.4341,5.4074,5.3746,5.3322,5.2329,5.1622,5.1345,5.1492,5.1596,5.1596,5.1413,5.1387,5.1596,5.1413,5.1492,5.191,5.1361,5.1073,5.1073,5.0498,5.0315,5.0446,4.9505,4.93]}]]